[[{"header":{"parameterUnit":"m.s-1","parameterCategory":1,"la1":31.0,"la2":29.5877,"lo1":-88.7671,"lo2":-86.6584,"dy":0.0162,"dx":0.0185,"nx":115,"ny":88,"refTime":"2024-06-02T06:00:00:Z","depth":0,"parameterNumber":2,"parameterNumberName":"U-component_of_WINDS"},"data":[0.0,0.0,0.0,0.0,0.0,0.0,0.0,0.0,0.0,0.0,0.0,0.0,0.0,0.0,0.0,0.0,0.0,0.0,0.0,0.0,0.0,0.0,0.0,0.0,0.0,0.0,0.0,0.0,0.0,0.0,0.0,0.0,0.0,0.0,0.0,0.0,0.0,0.0,0.0,0.0,0.0,0.0,0.0,0.0,0.0,0.0,0.0,0.0,0.0,0.0,0.0,0.0,0.0,0.0,0.0,0.0,0.0,0.0,0.0,0.0,0.0,0.0,0.0,0.0,0.0,0.0,0.0,0.0,0.0,0.0,0.0,0.0,0.0,0.0,0.0,0.0,0.0,0.0,0.0,0.0,0.0,0.0,0.0,0.0,0.0,0.0,0.0,0.0,0.0,0.0,0.0,0.0,0.0,0.0,0.0,0.0,0.0,0.0,0.0,0.0,0.0,0.0,0.0,0.0,0.0,0.0,0.0,0.0,0.0,0.0,0.0,0.0,0.0,0.0,0.0,0.0,0.0,0.0,0.0,0.0,0.0,0.0,0.0,0.0,0.0,0.0,0.0,0.0,0.0,0.0,0.0,0.0,0.0,0.0,0.0,0.0,0.0,0.0,0.0,0.0,0.0,0.0,0.0,0.0,0.0,0.0,0.0,0.0,0.0,0.0,0.0,0.0,0.0,0.0,0.0,0.0,0.0,0.0,0.0,0.0,0.0,0.0,0.0,0.0,0.0,0.0,0.0,0.0,0.0,0.0,0.0,0.0,0.0,0.0,0.0,0.0,0.0,0.0,0.0,0.0,0.0,0.0,0.0,0.0,0.0,0.0,0.0,0.0,0.0,0.0,0.0,0.0,0.0,0.0,0.0,0.0,0.0,0.0,0.0,0.0,0.0,0.0,0.0,0.0,0.0,0.0,0.0,0.0,0.0,0.0,0.0,0.0,0.0,0.0,0.0,0.0,0.0,0.0,0.0,0.0,0.0,0.0,0.0,0.0,0.0,0.0,0.0,0.0,0.0,0.0,0.0,0.0,0.0,0.0,0.0,0.0,0.0,0.0,0.0,0.0,0.0,0.0,0.0,0.0,0.0,0.0,0.0,0.0,0.0,0.0,0.0,0.0,0.0,0.0,0.0,0.0,0.0,0.0,0.0,0.0,0.0,0.0,0.0,0.0,0.0,0.0,0.0,0.0,0.0,0.0,0.0,0.0,0.0,0.0,0.0,0.0,0.0,0.0,0.0,0.0,0.0,0.0,0.0,0.0,0.0,0.0,0.0,0.0,0.0,0.0,0.0,0.0,0.0,0.0,0.0,0.0,0.0,0.0,0.0,0.0,0.0,0.0,0.0,0.0,0.0,0.0,0.0,0.0,0.0,0.0,0.0,0.0,0.0,0.0,0.0,0.0,0.0,0.0,0.0,0.0,0.0,0.0,0.0,0.0,0.0,0.0,0.0,0.0,0.0,0.0,0.0,0.0,0.0,0.0,0.0,0.0,0.0,0.0,0.0,0.0,0.0,0.0,0.0,0.0,0.0,0.0,0.0,0.0,0.0,0.0,0.0,0.0,0.0,0.0,0.0,0.0,0.0,0.0,0.0,0.0,0.0,0.0,0.0,0.0,0.0,0.0,0.0,0.0,0.0,0.0,0.0,0.0,0.0,0.0,0.0,0.0,0.0,0.0,0.0,0.0,0.0,0.0,0.0,0.0,0.0,0.0,0.0,0.0,0.0,0.0,0.0,0.0,0.0,0.0,0.0,0.0,0.0,0.0,0.0,0.0,0.0,0.0,0.0,0.0,0.0,0.0,0.0,0.0,0.0,0.0,0.0,0.0,0.0,0.0,0.0,0.0,0.0,0.0,0.0,0.0,0.0,0.0,0.0,0.0,0.0,0.0,0.0,0.0,0.0,0.0,0.0,0.0,0.0,0.0,0.0,0.0,0.0,0.0,0.0,0.0,0.0,0.0,0.0,0.0,0.0,0.0,0.0,0.0,0.0,0.0,0.0,0.0,0.0,0.0,0.0,0.0,0.0,0.0,0.0,0.0,0.0,0.0,0.0,0.0,0.0,0.0,0.0,0.0,0.0,0.0,0.0,0.0,0.0,0.0,0.0,0.0,0.0,0.0,0.0,0.0,0.0,0.0,0.0,0.0,0.0,0.0,0.0,0.0,0.0,0.0,0.0,0.0,0.0,0.0,0.0,0.0,0.0,0.0,0.0,0.0,0.0,0.0,0.0,0.0,0.0,0.0,0.0,0.0,0.0,0.0,0.0,0.0,0.0,0.0,0.0,0.0,0.0,0.0,0.0,0.0,0.0,0.0,0.0,0.0,0.0,0.0,0.0,0.0,0.0,0.0,0.0,0.0,0.0,0.0,0.0,0.0,0.0,0.0,0.0,0.0,0.0,0.0,0.0,0.0,0.0,0.0,0.0,0.0,0.0,0.0,0.0,0.0,0.0,0.0,0.0,0.0,0.0,0.0,0.0,0.0,0.0,0.0,0.0,0.0,0.0,0.0,0.0,0.0,0.0,0.0,0.0,0.0,0.0,0.0,0.0,0.0,0.0,0.0,0.0,0.0,0.0,0.0,0.0,0.0,0.0,0.0,0.0,0.0,0.0,0.0,0.0,0.0,0.0,0.0,0.0,0.0,0.0,0.0,0.0,0.0,0.0,0.0,0.0,0.0,0.0,0.0,0.0,0.0,0.0,0.0,0.0,0.0,0.0,0.0,0.0,0.0,0.0,0.0,0.0,0.0,0.0,0.0,0.0,0.0,0.0,0.0,0.0,0.0,0.0,0.0,0.0,0.0,0.0,0.0,0.0,0.0,0.0,0.0,0.0,0.0,0.0,0.0,0.0,0.0,0.0,0.0,0.0,0.0,0.0,0.0,0.0,0.0,0.0,0.0,0.0,0.0,0.0,0.0,0.0,0.0,0.0,0.0,0.0,0.0,0.0,0.0,0.0,0.0,0.0,0.0,0.0,0.0,0.0,0.0,0.0,0.0,0.0,0.0,0.0,0.0,0.0,0.0,0.0,0.0,0.0,0.0,0.0,0.0,0.0,0.0,0.0,0.0,0.0,0.0,0.0,0.0,0.0,0.0,0.0,0.0,0.0,0.0,0.0,0.0,0.0,0.0,0.0,0.0,0.0,0.0,0.0,0.0,0.0,0.0,0.0,0.0,0.0,0.0,0.0,0.0,0.0,0.0,0.0,0.0,0.0,0.0,0.0,0.0,0.0,0.0,0.0,0.0,0.0,0.0,0.0,0.0,0.0,0.0,0.0,0.0,0.0,0.0,0.0,0.0,0.0,0.0,0.0,0.0,0.0,0.0,0.0,0.0,0.0,0.0,0.0,0.0,0.0,0.0,0.0,0.0,0.0,0.0,0.0,0.0,0.0,0.0,0.0,0.0,0.0,0.0,0.0,0.0,0.0,0.0,0.0,0.0,0.0,0.0,0.0,0.0,0.0,0.0,0.0,0.0,0.0,0.0,0.0,0.0,0.0,0.0,0.0,0.0,0.0,0.0,0.0,0.0,0.0,0.0,0.0,0.0,0.0,0.0,0.0,0.0,0.0,0.0,0.0,0.0,0.0,0.0,0.0,0.0,0.0,0.0,0.0,0.0,0.0,0.0,0.0,0.0,0.0,0.0,0.0,0.0,0.0,0.0,0.0,0.0,0.0,0.0,0.0,0.0,0.0,0.0,0.0,0.0,0.0,0.0,0.0,0.0,0.0,0.0,0.0,0.0,0.0,0.0,0.0,0.0,0.0,0.0,0.0,0.0,0.0,0.0,0.0,0.0,0.0,0.0,0.0,0.0,0.0,0.0,0.0,0.0,0.0,0.0,0.0,0.0,0.0,0.0,0.0,0.0,0.0,0.0,0.0,0.0,0.0,0.0,0.0,0.0,0.0,0.0,0.0,0.0,0.0,0.0,0.0,0.0,0.0,0.0,0.0,0.0,0.0,0.0,0.0,0.0,0.0,0.0,0.0,0.0,0.0,0.0,0.0,0.0,0.0,0.0,0.0,0.0,0.0,0.0,0.0,0.0,0.0,0.0,0.0,0.0,0.0,0.0,0.0,0.0,0.0,0.0,0.0,0.0,0.0,0.0,0.0,0.0,0.0,0.0,0.0,0.0,0.0,0.0,0.0,0.0,0.0,0.0,0.0,0.0,0.0,0.0,0.0,0.0,0.0,0.0,0.0,0.0,0.0,0.0,0.0,0.0,0.0,0.0,0.0,0.0,0.0,0.0,0.0,0.0,0.0,0.0,0.0,0.0,0.0,0.0,-1.0508,0.0,0.0,0.0,0.0,0.0,0.0,0.0,0.0,0.0,0.0,0.0,0.0,0.0,0.0,0.0,0.0,0.0,0.0,0.0,0.0,0.0,0.0,0.0,0.0,0.0,0.0,0.0,0.0,0.0,0.0,0.0,0.0,0.0,0.0,0.0,0.0,0.0,0.0,0.0,0.0,0.0,0.0,0.0,0.0,0.0,0.0,0.0,0.0,0.0,0.0,0.0,0.0,0.0,0.0,0.0,0.0,0.0,0.0,0.0,0.0,0.0,0.0,0.0,0.0,0.0,0.0,0.0,0.0,0.0,0.0,0.0,0.0,0.0,0.0,0.0,0.0,0.0,0.0,0.0,0.0,0.0,0.0,0.0,0.0,0.0,0.0,0.0,0.0,0.0,0.0,0.0,0.0,0.0,0.0,0.0,0.0,0.0,0.0,0.0,0.0,0.0,0.0,0.0,0.0,0.0,0.0,0.0,0.0,0.0,0.0,-1.2806,-1.3164,-1.2675,-1.2228,-1.1859,0.0,0.0,0.0,0.0,0.0,0.0,0.0,0.0,0.0,0.0,0.0,0.0,0.0,0.0,0.0,0.0,0.0,0.0,0.0,0.0,0.0,0.0,0.0,0.0,0.0,0.0,0.0,0.0,0.0,0.0,0.0,0.0,0.0,0.0,0.0,0.0,0.0,0.0,0.0,0.0,0.0,0.0,0.0,0.0,0.0,0.0,0.0,0.0,0.0,0.0,0.0,0.0,0.0,0.0,0.0,0.0,0.0,0.0,0.0,0.0,0.0,0.0,0.0,0.0,0.0,0.0,0.0,0.0,0.0,0.0,0.0,0.0,0.0,0.0,0.0,0.0,0.0,0.0,0.0,0.0,0.0,0.0,0.0,0.0,0.0,0.0,0.0,0.0,0.0,0.0,0.0,0.0,0.0,0.0,0.0,0.0,0.0,0.0,0.0,0.0,0.0,0.0,0.0,0.0,0.0,0.0,0.0,0.0,0.0,0.0,0.0,0.0,-1.369,-1.3143,-1.2717,0.0,0.0,0.0,0.0,0.0,0.0,0.0,0.0,0.0,0.0,0.0,0.0,0.0,0.0,0.0,0.0,0.0,0.0,0.0,0.0,0.0,0.0,0.0,0.0,0.0,0.0,0.0,0.0,0.0,0.0,0.0,0.0,0.0,0.0,0.0,0.0,0.0,0.0,0.0,0.0,0.0,0.0,0.0,0.0,0.0,0.0,0.0,0.0,0.0,0.0,0.0,0.0,0.0,0.0,0.0,0.0,0.0,0.0,0.0,0.0,0.0,0.0,0.0,0.0,0.0,0.0,0.0,0.0,0.0,0.0,0.0,0.0,0.0,0.0,0.0,0.0,0.0,0.0,0.0,0.0,0.0,0.0,0.0,0.0,0.0,0.0,0.0,0.0,0.0,0.0,0.0,0.0,0.0,0.0,0.0,0.0,0.0,0.0,0.0,0.0,0.0,0.0,0.0,0.0,0.0,0.0,0.0,0.0,0.0,0.0,-1.448,-1.4484,-1.4343,0.0,-1.2083,0.0,0.0,0.0,0.0,0.0,0.0,0.0,0.0,0.0,0.0,0.0,0.0,0.0,0.0,0.0,0.0,0.0,0.0,0.0,0.0,0.0,0.0,0.0,0.0,0.0,0.0,0.0,0.0,0.0,0.0,0.0,0.0,0.0,0.0,0.0,0.0,0.0,0.0,0.0,0.0,0.0,0.0,0.0,0.0,0.0,0.0,0.0,0.0,0.0,0.0,0.0,0.0,0.0,0.0,0.0,0.0,0.0,0.0,0.0,0.0,0.0,0.0,0.0,0.0,0.0,0.0,0.0,0.0,0.0,0.0,0.0,0.0,0.0,0.0,0.0,0.0,0.0,0.0,0.0,0.0,0.0,0.0,0.0,0.0,0.0,0.0,0.0,0.0,0.0,0.0,0.0,0.0,0.0,0.0,0.0,0.0,0.0,0.0,0.0,0.0,0.0,0.0,0.0,0.0,0.0,0.0,0.0,0.0,0.0,0.0,-1.4651,-1.464,-1.4508,-1.3664,0.0,0.0,0.0,0.0,0.0,0.0,0.0,0.0,0.0,0.0,0.0,0.0,0.0,0.0,0.0,0.0,0.0,0.0,0.0,0.0,0.0,0.0,0.0,0.0,0.0,0.0,0.0,0.0,0.0,0.0,0.0,0.0,0.0,0.0,0.0,0.0,0.0,0.0,0.0,0.0,0.0,0.0,0.0,0.0,0.0,0.0,0.0,0.0,0.0,0.0,0.0,0.0,0.0,0.0,0.0,0.0,0.0,0.0,0.0,0.0,0.0,0.0,0.0,0.0,0.0,0.0,0.0,0.0,0.0,0.0,0.0,0.0,0.0,0.0,0.0,0.0,0.0,0.0,0.0,0.0,0.0,0.0,0.0,0.0,0.0,0.0,0.0,0.0,0.0,0.0,0.0,0.0,0.0,0.0,0.0,0.0,0.0,0.0,0.0,0.0,0.0,0.0,0.0,0.0,0.0,0.0,0.0,0.0,0.0,0.0,-1.4759,-1.4709,-1.4706,-1.4616,-1.3774,-1.2113,0.0,0.0,0.0,0.0,0.0,0.0,0.0,0.0,0.0,0.0,0.0,0.0,0.0,0.0,0.0,0.0,0.0,0.0,0.0,0.0,0.0,0.0,0.0,0.0,0.0,0.0,0.0,0.0,0.0,0.0,0.0,0.0,0.0,0.0,0.0,0.0,0.0,0.0,0.0,0.0,0.0,0.0,0.0,0.0,0.0,0.0,0.0,0.0,0.0,0.0,0.0,0.0,0.0,0.0,0.0,0.0,0.0,0.0,0.0,0.0,0.0,0.0,0.0,0.0,0.0,0.0,0.0,0.0,0.0,0.0,0.0,0.0,0.0,0.0,0.0,0.0,0.0,0.0,0.0,0.0,0.0,0.0,0.0,0.0,0.0,0.0,0.0,0.0,0.0,0.0,0.0,0.0,0.0,0.0,0.0,0.0,0.0,0.0,0.0,0.0,0.0,0.0,0.0,0.0,0.0,0.0,0.0,0.0,-1.4892,-1.4837,-1.4769,-1.4712,-1.4677,-1.3907,0.0,0.0,0.0,0.0,0.0,0.0,0.0,0.0,0.0,0.0,0.0,0.0,0.0,0.0,0.0,0.0,0.0,0.0,0.0,0.0,0.0,0.0,0.0,0.0,0.0,0.0,0.0,0.0,0.0,0.0,0.0,0.0,0.0,0.0,0.0,0.0,0.0,0.0,0.0,0.0,0.0,0.0,0.0,0.0,0.0,0.0,0.0,0.0,0.0,0.0,0.0,0.0,0.0,0.0,0.0,0.0,0.0,0.0,0.0,0.0,0.0,0.0,0.0,0.0,0.0,0.0,0.0,0.0,0.0,0.0,0.0,0.0,0.0,0.0,0.0,0.0,0.0,0.0,0.0,0.0,0.0,0.0,0.0,0.0,0.0,0.0,0.0,0.0,0.0,0.0,0.0,0.0,0.0,0.0,0.0,0.0,0.0,0.0,0.0,0.0,0.0,0.0,0.0,0.0,0.0,0.0,0.0,0.0,0.0,-1.4957,-1.4855,-1.4808,-1.4769,-1.4773,-1.398,0.0,0.0,0.0,0.0,0.0,0.0,0.0,0.0,0.0,0.0,0.0,0.0,0.0,0.0,0.0,0.0,0.0,0.0,0.0,0.0,0.0,0.0,0.0,0.0,0.0,0.0,0.0,0.0,0.0,0.0,0.0,0.0,0.0,0.0,0.0,0.0,0.0,0.0,0.0,0.0,0.0,0.0,0.0,0.0,0.0,0.0,0.0,0.0,0.0,0.0,0.0,0.0,0.0,0.0,0.0,0.0,0.0,0.0,0.0,0.0,0.0,0.0,0.0,0.0,0.0,0.0,0.0,0.0,0.0,0.0,0.0,0.0,0.0,0.0,0.0,0.0,0.0,0.0,0.0,0.0,0.0,0.0,0.0,0.0,0.0,0.0,0.0,0.0,0.0,0.0,0.0,0.0,0.0,0.0,0.0,0.0,0.0,0.0,0.0,0.0,0.0,0.0,0.0,0.0,0.0,0.0,0.0,0.0,0.0,-1.4986,0.0,-1.4818,0.0,-1.4808,-1.4139,0.0,0.0,0.0,0.0,0.0,0.0,0.0,0.0,0.0,0.0,0.0,0.0,0.0,0.0,0.0,0.0,0.0,0.0,0.0,0.0,0.0,0.0,0.0,0.0,0.0,0.0,0.0,0.0,0.0,0.0,0.0,0.0,0.0,0.0,0.0,0.0,0.0,0.0,0.0,0.0,0.0,0.0,0.0,0.0,0.0,0.0,0.0,0.0,0.0,0.0,0.0,0.0,0.0,0.0,0.0,0.0,0.0,0.0,0.0,0.0,0.0,0.0,0.0,0.0,0.0,0.0,0.0,0.0,0.0,0.0,0.0,0.0,0.0,0.0,0.0,0.0,0.0,0.0,0.0,0.0,0.0,0.0,0.0,0.0,0.0,0.0,0.0,0.0,0.0,0.0,0.0,0.0,0.0,0.0,0.0,0.0,0.0,0.0,0.0,0.0,0.0,0.0,0.0,0.0,0.0,0.0,0.0,0.0,-1.5045,-1.49,-1.4892,-1.4876,-1.4804,-1.4804,-1.4419,0.0,0.0,0.0,0.0,0.0,0.0,0.0,0.0,0.0,0.0,0.0,0.0,0.0,0.0,0.0,0.0,0.0,0.0,0.0,0.0,0.0,0.0,0.0,0.0,0.0,0.0,0.0,0.0,0.0,0.0,0.0,0.0,0.0,0.0,0.0,0.0,0.0,0.0,0.0,0.0,0.0,0.0,0.0,0.0,0.0,0.0,0.0,0.0,0.0,0.0,0.0,0.0,0.0,0.0,0.0,0.0,0.0,0.0,0.0,0.0,0.0,0.0,0.0,0.0,0.0,0.0,0.0,0.0,0.0,0.0,0.0,0.0,0.0,0.0,0.0,0.0,0.0,0.0,0.0,0.0,0.0,0.0,0.0,0.0,0.0,0.0,0.0,0.0,0.0,0.0,0.0,0.0,0.0,0.0,0.0,0.0,0.0,0.0,0.0,0.0,0.0,0.0,0.0,0.0,0.0,0.0,0.0,0.0,0.0,-1.5049,-1.4996,-1.4956,-1.4934,-1.4889,-1.4478,0.0,0.0,0.0,0.0,0.0,0.0,0.0,0.0,0.0,0.0,0.0,0.0,0.0,0.0,0.0,0.0,0.0,0.0,0.0,0.0,0.0,0.0,0.0,0.0,0.0,0.0,0.0,0.0,0.0,0.0,0.0,0.0,0.0,0.0,0.0,0.0,0.0,0.0,0.0,0.0,0.0,0.0,0.0,0.0,0.0,0.0,0.0,0.0,0.0,0.0,0.0,0.0,0.0,0.0,0.0,0.0,0.0,0.0,0.0,0.0,0.0,0.0,0.0,0.0,0.0,0.0,0.0,0.0,0.0,0.0,0.0,0.0,0.0,0.0,0.0,0.0,0.0,0.0,0.0,0.0,0.0,0.0,0.0,0.0,0.0,0.0,0.0,0.0,0.0,0.0,0.0,0.0,0.0,0.0,0.0,0.0,0.0,0.0,0.0,0.0,0.0,0.0,0.0,0.0,0.0,0.0,0.0,0.0,0.0,-1.559,-1.5547,-1.5506,-1.5505,-1.5439,-1.5014,-1.4111,0.0,0.0,0.0,0.0,0.0,0.0,0.0,0.0,0.0,0.0,0.0,0.0,0.0,0.0,0.0,0.0,0.0,0.0,0.0,0.0,0.0,0.0,0.0,0.0,0.0,0.0,0.0,0.0,0.0,0.0,0.0,0.0,0.0,0.0,0.0,0.0,0.0,0.0,0.0,0.0,0.0,0.0,0.0,0.0,0.0,0.0,0.0,0.0,0.0,0.0,0.0,0.0,0.0,0.0,0.0,0.0,0.0,0.0,0.0,0.0,0.0,0.0,0.0,0.0,0.0,0.0,0.0,0.0,0.0,0.0,0.0,0.0,0.0,0.0,0.0,0.0,0.0,0.0,0.0,0.0,0.0,0.0,0.0,0.0,0.0,0.0,0.0,0.0,0.0,0.0,0.0,0.0,0.0,0.0,0.0,0.0,0.0,0.0,0.0,0.0,0.0,0.0,0.0,0.0,0.0,0.0,0.0,0.0,-1.6529,-1.6553,-1.6506,-1.6387,-1.6317,-1.5892,0.0,0.0,0.0,0.0,0.0,0.0,0.0,0.0,0.0,0.0,0.0,0.0,0.0,0.0,0.0,0.0,0.0,0.0,0.0,0.0,0.0,0.0,0.0,0.0,0.0,0.0,0.0,0.0,0.0,0.0,0.0,0.0,0.0,0.0,0.0,0.0,0.0,0.0,0.0,0.0,0.0,0.0,0.0,0.0,0.0,0.0,0.0,0.0,0.0,0.0,0.0,0.0,0.0,0.0,0.0,0.0,0.0,0.0,0.0,0.0,0.0,0.0,0.0,0.0,0.0,0.0,0.0,0.0,0.0,0.0,0.0,0.0,0.0,0.0,0.0,0.0,0.0,0.0,0.0,0.0,0.0,0.0,0.0,0.0,0.0,0.0,0.0,0.0,0.0,0.0,0.0,0.0,0.0,0.0,0.0,0.0,0.0,0.0,0.0,0.0,0.0,0.0,0.0,0.0,0.0,0.0,0.0,0.0,0.0,-1.8333,-1.8381,-1.8051,-1.7359,-1.6701,-1.6242,0.0,0.0,0.0,0.0,0.0,0.0,0.0,0.0,0.0,0.0,0.0,0.0,0.0,0.0,0.0,0.0,0.0,0.0,0.0,0.0,0.0,0.0,0.0,0.0,0.0,0.0,0.0,0.0,0.0,0.0,0.0,0.0,0.0,0.0,0.0,0.0,0.0,0.0,0.0,0.0,0.0,0.0,0.0,0.0,0.0,0.0,0.0,0.0,0.0,0.0,0.0,0.0,0.0,0.0,0.0,0.0,0.0,0.0,0.0,0.0,0.0,0.0,0.0,0.0,0.0,0.0,0.0,0.0,0.0,0.0,0.0,0.0,0.0,0.0,0.0,0.0,0.0,0.0,0.0,0.0,0.0,0.0,0.0,0.0,0.0,0.0,0.0,0.0,0.0,0.0,0.0,0.0,0.0,0.0,0.0,0.0,0.0,0.0,0.0,0.0,0.0,0.0,0.0,0.0,0.0,0.0,0.0,0.0,-1.8095,-1.9088,-1.9471,-1.9365,-1.88,-1.7945,-1.7122,0.0,0.0,0.0,0.0,0.0,0.0,0.0,0.0,0.0,0.0,0.0,0.0,0.0,0.0,0.0,0.0,0.0,0.0,0.0,0.0,0.0,0.0,0.0,0.0,0.0,0.0,0.0,0.0,0.0,0.0,0.0,0.0,0.0,0.0,0.0,0.0,0.0,0.0,0.0,0.0,0.0,0.0,0.0,0.0,0.0,0.0,0.0,0.0,0.0,0.0,0.0,0.0,0.0,0.0,0.0,0.0,0.0,0.0,0.0,0.0,0.0,0.0,0.0,0.0,0.0,0.0,0.0,0.0,0.0,0.0,0.0,0.0,0.0,0.0,0.0,0.0,0.0,0.0,0.0,0.0,0.0,0.0,0.0,0.0,0.0,0.0,0.0,0.0,0.0,0.0,0.0,0.0,0.0,0.0,0.0,0.0,0.0,0.0,0.0,0.0,0.0,0.0,0.0,0.0,0.0,0.0,0.0,0.0,-1.9211,-1.9383,-2.0127,-2.0492,-2.0424,-1.9507,-1.8202,0.0,0.0,0.0,0.0,0.0,0.0,0.0,0.0,0.0,0.0,0.0,0.0,0.0,0.0,0.0,0.0,0.0,0.0,0.0,0.0,0.0,0.0,0.0,0.0,0.0,0.0,0.0,0.0,0.0,0.0,0.0,0.0,0.0,0.0,0.0,0.0,0.0,0.0,0.0,0.0,0.0,0.0,0.0,0.0,0.0,0.0,0.0,0.0,0.0,0.0,0.0,0.0,0.0,0.0,0.0,0.0,0.0,0.0,0.0,0.0,0.0,0.0,0.0,0.0,0.0,0.0,0.0,0.0,0.0,0.0,0.0,0.0,0.0,0.0,0.0,0.0,0.0,0.0,0.0,0.0,0.0,0.0,0.0,0.0,0.0,0.0,0.0,0.0,0.0,0.0,0.0,0.0,0.0,0.0,0.0,0.0,0.0,0.0,0.0,0.0,0.0,0.0,0.0,0.0,0.0,0.0,0.0,0.0,-1.9828,-2.1107,-2.1321,-2.1415,-2.1388,-1.9847,-1.8478,0.0,0.0,0.0,0.0,0.0,0.0,0.0,0.0,0.0,0.0,0.0,0.0,0.0,0.0,0.0,0.0,0.0,0.0,0.0,0.0,0.0,0.0,0.0,0.0,0.0,0.0,0.0,0.0,0.0,0.0,0.0,0.0,0.0,0.0,0.0,0.0,0.0,0.0,0.0,0.0,0.0,0.0,0.0,0.0,0.0,0.0,0.0,0.0,-1.1113,0.0,0.0,0.0,0.0,0.0,0.0,0.0,0.0,0.0,0.0,0.0,0.0,0.0,0.0,0.0,0.0,0.0,0.0,0.0,0.0,0.0,0.0,0.0,0.0,0.0,0.0,0.0,0.0,0.0,0.0,0.0,0.0,0.0,0.0,0.0,0.0,0.0,0.0,0.0,0.0,0.0,0.0,0.0,0.0,0.0,0.0,0.0,0.0,0.0,0.0,0.0,0.0,0.0,0.0,0.0,0.0,0.0,0.0,0.0,-2.0836,-2.1727,-2.2115,-2.2108,-2.1687,-2.0733,-1.9407,0.0,0.0,0.0,0.0,0.0,0.0,0.0,0.0,0.0,0.0,0.0,0.0,0.0,0.0,0.0,0.0,0.0,0.0,0.0,0.0,0.0,0.0,0.0,0.0,0.0,0.0,0.0,0.0,0.0,0.0,0.0,0.0,0.0,0.0,0.0,0.0,0.0,0.0,0.0,0.0,0.0,0.0,0.0,0.0,0.0,0.0,0.0,0.0,0.0,0.0,0.0,0.0,0.0,0.0,0.0,0.0,0.0,0.0,0.0,0.0,0.0,0.0,0.0,0.0,0.0,0.0,0.0,0.0,0.0,0.0,0.0,0.0,0.0,0.0,0.0,0.0,0.0,0.0,0.0,0.0,0.0,0.0,0.0,0.0,0.0,0.0,0.0,0.0,0.0,0.0,0.0,0.0,0.0,0.0,0.0,0.0,0.0,0.0,0.0,0.0,0.0,0.0,0.0,0.0,0.0,0.0,0.0,-2.0509,-2.1867,-2.2013,-2.279,-2.278,-2.1945,-2.1836,-2.0574,-1.8005,0.0,0.0,0.0,0.0,0.0,0.0,0.0,0.0,0.0,0.0,0.0,0.0,0.0,0.0,0.0,0.0,0.0,0.0,0.0,0.0,0.0,0.0,0.0,0.0,0.0,0.0,0.0,0.0,0.0,0.0,0.0,0.0,0.0,0.0,0.0,0.0,0.0,0.0,-0.8551,-0.961,0.0,0.0,0.0,0.0,0.0,0.0,0.0,0.0,-1.3682,0.0,0.0,0.0,0.0,0.0,0.0,0.0,0.0,0.0,0.0,0.0,0.0,0.0,0.0,0.0,0.0,0.0,0.0,0.0,0.0,0.0,0.0,0.0,0.0,0.0,0.0,0.0,0.0,0.0,0.0,0.0,0.0,0.0,0.0,0.0,0.0,0.0,0.0,0.0,0.0,0.0,0.0,0.0,0.0,0.0,0.0,0.0,0.0,0.0,0.0,0.0,0.0,0.0,0.0,0.0,0.0,-1.8014,-2.0512,-2.2149,-2.2884,-2.3745,-2.3722,-2.2826,-2.2715,-2.1469,-1.8939,0.0,0.0,0.0,0.0,0.0,0.0,0.0,0.0,0.0,0.0,0.0,0.0,0.0,0.0,0.0,0.0,0.0,0.0,0.0,0.0,0.0,0.0,0.0,0.0,0.0,0.0,0.0,0.0,0.0,0.0,0.0,0.0,0.0,0.0,0.0,0.0,0.0,0.0,0.0,-1.044,-1.1066,0.0,0.0,0.0,0.0,0.0,0.0,0.0,0.0,-1.3749,0.0,0.0,0.0,0.0,0.0,0.0,0.0,0.0,0.0,0.0,0.0,0.0,0.0,0.0,0.0,0.0,0.0,0.0,0.0,0.0,0.0,0.0,0.0,0.0,0.0,0.0,0.0,0.0,0.0,0.0,0.0,0.0,0.0,0.0,0.0,0.0,0.0,0.0,0.0,0.0,0.0,0.0,0.0,0.0,0.0,0.0,0.0,0.0,0.0,0.0,0.0,0.0,0.0,0.0,0.0,-1.8784,-2.1185,-2.2685,-2.3125,-2.4382,-2.4422,-2.3098,-2.2987,-2.1917,0.0,0.0,0.0,0.0,0.0,0.0,0.0,0.0,0.0,0.0,0.0,0.0,0.0,0.0,0.0,0.0,0.0,0.0,0.0,0.0,0.0,0.0,0.0,0.0,0.0,0.0,0.0,0.0,0.0,0.0,0.0,0.0,0.0,0.0,0.0,0.0,0.0,0.0,0.0,0.0,-1.0517,-1.117,-1.2327,0.0,0.0,0.0,0.0,0.0,0.0,-1.4091,-1.403,0.0,0.0,0.0,0.0,0.0,0.0,0.0,0.0,0.0,0.0,0.0,0.0,0.0,0.0,0.0,0.0,0.0,0.0,0.0,0.0,0.0,0.0,0.0,0.0,0.0,0.0,0.0,0.0,0.0,0.0,0.0,0.0,0.0,0.0,0.0,0.0,0.0,0.0,0.0,0.0,0.0,0.0,0.0,0.0,0.0,0.0,0.0,0.0,0.0,0.0,0.0,0.0,0.0,0.0,0.0,-1.9608,-2.1912,-2.3199,-2.3405,-2.4881,-2.4864,-2.3174,-2.305,-2.2155,0.0,0.0,0.0,0.0,0.0,0.0,0.0,0.0,0.0,0.0,0.0,0.0,0.0,0.0,0.0,0.0,0.0,0.0,0.0,0.0,0.0,0.0,0.0,0.0,0.0,0.0,0.0,0.0,0.0,0.0,0.0,0.0,0.0,0.0,0.0,0.0,0.0,0.0,0.0,0.0,0.0,-1.1438,-1.2164,-1.2816,0.0,0.0,0.0,0.0,-1.4337,-1.4294,0.0,0.0,0.0,0.0,0.0,0.0,0.0,0.0,0.0,0.0,0.0,0.0,0.0,0.0,0.0,0.0,0.0,0.0,0.0,0.0,0.0,0.0,0.0,0.0,0.0,0.0,0.0,0.0,0.0,0.0,0.0,0.0,0.0,0.0,0.0,0.0,0.0,0.0,0.0,0.0,0.0,0.0,0.0,0.0,0.0,0.0,0.0,0.0,0.0,0.0,0.0,0.0,0.0,0.0,0.0,0.0,-2.0449,-2.2246,-2.3515,-2.4256,-2.5188,-2.4883,-2.3163,-2.3028,-2.218,0.0,0.0,0.0,0.0,0.0,0.0,0.0,0.0,0.0,0.0,0.0,0.0,0.0,0.0,0.0,0.0,0.0,0.0,0.0,0.0,0.0,0.0,0.0,0.0,0.0,0.0,0.0,0.0,0.0,0.0,0.0,0.0,0.0,0.0,0.0,0.0,0.0,0.0,0.0,0.0,0.0,-1.2302,-1.2746,-1.3129,-1.3648,0.0,0.0,-1.4476,-1.447,-1.4428,0.0,0.0,0.0,0.0,0.0,0.0,0.0,0.0,0.0,0.0,0.0,0.0,0.0,0.0,0.0,0.0,0.0,0.0,0.0,0.0,0.0,0.0,0.0,0.0,0.0,0.0,0.0,0.0,0.0,0.0,0.0,0.0,0.0,0.0,0.0,0.0,0.0,0.0,0.0,0.0,0.0,0.0,0.0,0.0,0.0,0.0,0.0,0.0,0.0,0.0,0.0,0.0,0.0,0.0,0.0,-1.9102,-2.1289,-2.2519,-2.3535,-2.4374,-2.5248,-2.4869,-2.3154,-2.3063,-2.1986,0.0,0.0,0.0,0.0,0.0,0.0,0.0,0.0,0.0,0.0,0.0,0.0,0.0,0.0,0.0,0.0,0.0,0.0,0.0,0.0,0.0,0.0,0.0,0.0,0.0,0.0,0.0,0.0,0.0,0.0,0.0,0.0,0.0,0.0,0.0,0.0,0.0,0.0,0.0,0.0,0.0,0.0,-1.309,-1.3682,0.0,0.0,0.0,-1.4618,-1.4613,0.0,0.0,0.0,0.0,0.0,0.0,0.0,0.0,0.0,0.0,0.0,0.0,0.0,0.0,0.0,0.0,0.0,0.0,0.0,0.0,0.0,0.0,0.0,0.0,0.0,0.0,0.0,0.0,0.0,0.0,0.0,0.0,0.0,0.0,0.0,0.0,0.0,0.0,0.0,0.0,0.0,0.0,0.0,0.0,0.0,0.0,0.0,0.0,0.0,0.0,0.0,0.0,0.0,0.0,0.0,0.0,0.0,-2.2148,-2.2812,-2.3633,-2.4687,-2.5348,-2.4873,-2.3164,-2.31,0.0,0.0,0.0,0.0,0.0,0.0,0.0,0.0,0.0,0.0,0.0,0.0,0.0,0.0,0.0,0.0,0.0,0.0,0.0,0.0,0.0,0.0,0.0,0.0,0.0,0.0,0.0,-0.7354,0.0,0.0,0.0,0.0,0.0,0.0,0.0,0.0,0.0,0.0,0.0,0.0,0.0,0.0,-1.4101,-1.3685,-1.463,-1.5375,0.0,0.0,-1.5274,-1.5059,-1.504,-1.4918,0.0,0.0,0.0,0.0,0.0,0.0,0.0,0.0,0.0,0.0,0.0,0.0,0.0,0.0,0.0,0.0,0.0,0.0,0.0,0.0,0.0,0.0,0.0,0.0,0.0,0.0,0.0,0.0,0.0,0.0,0.0,0.0,0.0,0.0,0.0,0.0,0.0,0.0,0.0,0.0,0.0,0.0,0.0,0.0,0.0,0.0,0.0,0.0,0.0,0.0,0.0,0.0,0.0,0.0,-1.9668,-2.2988,-2.3164,-2.3984,-2.5527,-2.5663,-2.4861,-2.3177,-2.3106,-2.1854,0.0,0.0,0.0,0.0,0.0,0.0,0.0,0.0,0.0,0.0,0.0,0.0,0.0,0.0,0.0,0.0,0.0,0.0,0.0,0.0,0.0,0.0,0.0,0.0,0.0,0.0,0.0,0.0,0.0,0.0,0.0,0.0,0.0,0.0,0.0,0.0,0.0,0.0,0.0,0.0,0.0,-1.5719,-1.49,-1.6172,-1.7214,0.0,-1.7165,-1.6854,-1.6035,-1.5923,-1.5635,-1.4837,0.0,0.0,0.0,0.0,0.0,0.0,0.0,0.0,0.0,0.0,0.0,0.0,0.0,0.0,0.0,0.0,0.0,0.0,0.0,0.0,0.0,0.0,0.0,0.0,0.0,0.0,0.0,0.0,0.0,0.0,0.0,0.0,0.0,0.0,0.0,0.0,0.0,0.0,0.0,0.0,0.0,0.0,0.0,0.0,0.0,0.0,0.0,0.0,0.0,0.0,0.0,0.0,0.0,-1.9687,-2.3066,-2.3144,-2.3965,-2.5605,-2.5703,-2.5135,-2.3922,-2.3385,-2.1885,0.0,0.0,0.0,0.0,0.0,0.0,0.0,0.0,0.0,0.0,0.0,0.0,0.0,0.0,0.0,0.0,0.0,0.0,0.0,0.0,0.0,0.0,0.0,0.0,0.0,0.0,0.0,0.0,-1.0983,-1.1902,-1.3243,0.0,0.0,0.0,0.0,0.0,0.0,0.0,0.0,0.0,0.0,-1.6322,-1.6465,-1.7066,0.0,0.0,-1.807,-1.7242,-1.6911,-1.6872,-1.6757,-1.6423,-1.633,0.0,0.0,0.0,0.0,0.0,0.0,0.0,0.0,0.0,0.0,0.0,0.0,0.0,0.0,0.0,0.0,0.0,0.0,0.0,0.0,0.0,0.0,0.0,0.0,0.0,0.0,0.0,0.0,0.0,0.0,0.0,0.0,0.0,0.0,0.0,0.0,0.0,0.0,0.0,0.0,0.0,0.0,0.0,0.0,0.0,0.0,0.0,0.0,0.0,0.0,0.0,0.0,-2.0195,-2.3105,-2.3359,-2.4199,-2.5664,-2.5703,-2.5292,-2.4412,-2.3565,-2.1994,0.0,0.0,0.0,0.0,0.0,0.0,0.0,0.0,0.0,0.0,0.0,0.0,0.0,0.0,0.0,0.0,0.0,0.0,0.0,0.0,0.0,0.0,0.0,0.0,0.0,0.0,0.0,0.0,-1.2016,-1.2731,-1.4139,0.0,0.0,0.0,0.0,0.0,0.0,0.0,0.0,0.0,0.0,-1.6911,-1.7471,-1.7952,-1.8688,-1.9849,-1.8965,-1.8087,-1.7831,-1.7782,-1.7686,-1.7454,0.0,0.0,0.0,0.0,0.0,0.0,0.0,0.0,0.0,0.0,0.0,0.0,0.0,0.0,0.0,0.0,0.0,0.0,0.0,0.0,0.0,0.0,0.0,0.0,0.0,0.0,0.0,-1.5364,0.0,0.0,-1.5448,0.0,0.0,0.0,0.0,0.0,0.0,0.0,0.0,0.0,0.0,0.0,0.0,0.0,0.0,0.0,0.0,0.0,0.0,0.0,0.0,0.0,0.0,-2.1406,-2.3164,-2.3965,-2.4785,-2.5664,-2.5703,-2.5293,-2.4433,-2.3571,-2.2296,-2.0551,0.0,0.0,0.0,0.0,0.0,0.0,0.0,0.0,0.0,0.0,0.0,0.0,0.0,0.0,0.0,0.0,0.0,0.0,0.0,0.0,0.0,0.0,0.0,0.0,0.0,0.0,-1.2676,-1.3446,-1.4258,0.0,0.0,0.0,0.0,0.0,0.0,0.0,0.0,0.0,-1.6349,-1.7154,-1.7658,-1.7626,-1.9001,-2.0026,-2.0044,-1.9957,-1.9651,-1.8815,-1.8689,-1.838,0.0,0.0,0.0,0.0,0.0,0.0,0.0,0.0,0.0,0.0,0.0,0.0,0.0,0.0,0.0,0.0,0.0,0.0,0.0,0.0,0.0,0.0,0.0,0.0,0.0,0.0,0.0,-1.8859,-1.8803,0.0,0.0,0.0,0.0,0.0,0.0,0.0,0.0,0.0,0.0,0.0,-2.1836,-2.2129,0.0,0.0,0.0,0.0,0.0,0.0,0.0,0.0,0.0,0.0,0.0,0.0,-2.1426,-2.3086,-2.3984,-2.4805,-2.5664,-2.5703,-2.5566,-2.5273,-2.3847,-2.1773,-1.897,0.0,0.0,0.0,0.0,0.0,0.0,0.0,0.0,0.0,0.0,0.0,0.0,0.0,0.0,0.0,0.0,0.0,0.0,0.0,0.0,0.0,0.0,0.0,0.0,0.0,-1.2927,0.0,0.0,0.0,0.0,0.0,0.0,0.0,0.0,0.0,0.0,0.0,-1.6179,-1.6463,-1.7684,-1.8498,-1.8292,-1.9852,-2.1081,0.0,0.0,0.0,0.0,0.0,0.0,0.0,0.0,0.0,0.0,0.0,0.0,0.0,0.0,-1.6133,-1.5422,-1.477,-1.432,-1.4301,0.0,0.0,0.0,0.0,0.0,0.0,0.0,0.0,0.0,0.0,0.0,0.0,0.0,0.0,-2.2206,-2.1874,-2.1328,0.0,0.0,0.0,0.0,0.0,0.0,0.0,0.0,-2.293,-2.3555,-2.3574,-2.3848,-2.3867,-2.3633,-2.3574,-2.2266,0.0,0.0,0.0,0.0,0.0,0.0,0.0,0.0,-2.2168,-2.3516,-2.4414,-2.5117,-2.5664,-2.5703,-2.5703,-2.5664,-2.4003,-2.1657,-1.8543,-1.7619,-1.6753,0.0,0.0,0.0,0.0,0.0,0.0,0.0,0.0,0.0,0.0,0.0,0.0,0.0,0.0,0.0,0.0,0.0,0.0,0.0,0.0,0.0,0.0,0.0,-1.3848,0.0,0.0,0.0,0.0,0.0,0.0,0.0,0.0,0.0,-1.5762,-1.6422,-1.7059,-1.736,-1.8339,-1.9069,-1.9207,0.0,0.0,0.0,0.0,0.0,0.0,0.0,-2.0332,-1.9977,-1.9936,-1.9932,-1.9908,-1.9424,-1.8866,-1.8305,0.0,0.0,-1.6469,-1.5777,-1.5337,-1.5319,-1.5256,-1.5179,-1.5121,-1.5035,-1.4984,0.0,0.0,0.0,0.0,-2.4511,0.0,0.0,0.0,-2.5727,-2.526,0.0,-2.4457,0.0,0.0,0.0,0.0,-2.3161,-2.3202,0.0,0.0,-2.4141,-2.4473,-2.4551,-2.5293,-2.5234,-2.4473,-2.4453,-2.4043,-2.3184,-2.1543,0.0,0.0,0.0,0.0,0.0,0.0,-2.3555,-2.4375,-2.5215,-2.5703,-2.5703,-2.5703,-2.5684,-2.5605,-2.4003,-2.1912,-1.9464,-1.8506,-1.7626,-1.6725,-1.59,0.0,0.0,0.0,0.0,0.0,0.0,0.0,0.0,0.0,0.0,0.0,0.0,0.0,0.0,0.0,0.0,0.0,0.0,0.0,0.0,-1.48,0.0,0.0,0.0,0.0,0.0,0.0,0.0,0.0,0.0,-1.6696,-1.6713,-1.7371,-1.8142,-1.8971,0.0,0.0,0.0,0.0,-2.1725,-2.1951,-2.2401,-2.2456,-2.1632,-2.1419,-2.1043,-2.0193,0.0,0.0,-1.993,-1.99,-1.9875,-1.9858,-1.9175,-1.8352,-1.7462,-1.7138,-1.7009,-1.6941,-1.6839,-1.6858,-1.6803,-1.658,-1.6555,-2.8923,0.0,0.0,0.0,0.0,-2.7182,-2.7318,-2.7552,-2.7553,-2.7436,-2.7143,-2.6537,0.0,0.0,0.0,0.0,0.0,0.0,-2.5879,-2.5918,-2.6152,-2.6269,-2.623,-2.5879,-2.5566,-2.5332,-2.5332,-2.5215,-2.4941,-2.3867,-2.2871,-2.2031,0.0,0.0,0.0,0.0,-2.416,-2.4434,-2.5254,-2.5703,-2.5703,-2.5703,-2.541,-2.4785,-2.3671,-2.2206,-2.0291,-1.9392,-1.8238,-1.6792,-1.6459,0.0,0.0,0.0,0.0,0.0,0.0,0.0,0.0,0.0,0.0,0.0,0.0,0.0,0.0,0.0,0.0,0.0,0.0,0.0,-1.4925,-1.5153,-1.5286,0.0,0.0,0.0,0.0,0.0,0.0,0.0,0.0,0.0,-1.8393,-1.8584,-1.8797,0.0,0.0,-2.0105,-2.0379,-2.16,-2.2705,-2.318,-2.3506,0.0,-2.3314,-2.267,-2.1934,-2.1086,-2.0424,-1.9988,-1.9977,-1.9977,-1.9947,-1.99,-1.9707,-1.9433,-1.9074,-1.8009,-1.7217,-1.7071,-1.7009,-1.6968,-1.6897,-1.6807,-1.6777,-3.2539,-3.076,-2.9763,-2.9528,-2.9802,-2.9802,-2.9802,-2.9802,-2.9802,-2.9431,-2.8786,-2.8258,-2.7848,-2.7497,-2.6969,0.0,0.0,0.0,-2.7519,-2.7519,-2.7519,-2.7519,-2.748,-2.6992,-2.6738,-2.6699,-2.6387,-2.6211,-2.6191,-2.5332,-2.4648,-2.4102,0.0,-2.334,-2.3672,-2.416,-2.459,-2.4922,-2.543,-2.5703,-2.5703,-2.5703,-2.5273,-2.4414,-2.3574,-2.25,-2.1152,-1.9941,-1.8651,-1.7283,-1.6892,-1.6306,0.0,0.0,0.0,0.0,0.0,0.0,0.0,0.0,0.0,0.0,0.0,-1.0725,-1.0734,0.0,0.0,0.0,-1.4508,-1.5297,-1.5287,-1.5298,0.0,0.0,0.0,0.0,0.0,0.0,0.0,-1.8219,-1.8777,-1.9222,-1.957,-1.9612,-1.9744,-2.0095,-2.0869,-2.1314,-2.1098,0.0,-2.3508,-2.3755,-2.4246,-2.4479,-2.4091,-2.3549,-2.2726,-2.1486,-2.0891,-2.0364,-2.0031,-1.9988,-1.9982,-1.9941,-1.9919,-1.989,-1.9842,-1.8924,-1.8221,-1.8143,-1.8079,-1.8,-1.7907,-1.7822,-1.7767,-3.5723,-3.4805,-3.2499,-3.1794,-3.2185,-3.2206,-3.2205,-3.2204,-3.2186,-3.1326,-2.9918,-2.984,-2.9332,-2.8513,-2.8514,0.0,-2.8515,-2.8496,-2.8516,-2.8496,-2.8418,-2.8398,-2.8398,-2.832,-2.8281,-2.8281,-2.748,-2.707,-2.6953,-2.6172,-2.5762,-2.5644,-2.4102,-2.3711,-2.4473,-2.4512,-2.4902,-2.5684,-2.5684,-2.5703,-2.5703,-2.5703,-2.5312,-2.4531,-2.3652,-2.2832,-2.1991,-2.0332,-1.9003,-1.8124,-1.7264,-1.6405,-1.5546,0.0,0.0,0.0,0.0,0.0,0.0,0.0,0.0,0.0,0.0,0.0,0.0,0.0,0.0,0.0,-1.4824,0.0,-1.5394,-1.5405,0.0,0.0,0.0,-1.7006,-1.7816,-1.7913,-1.8239,-1.9109,0.0,0.0,-2.0382,-2.0556,-2.0905,-2.1785,-2.2443,-2.2648,-2.2204,-2.3287,-2.4118,-2.4006,-2.4761,-2.511,-2.4417,-2.4068,-2.3393,-2.1953,-2.1453,-2.1132,-2.0459,-2.0278,-2.0221,-2.0291,-2.0149,-2.0077,-2.0028,-1.993,-1.9851,-1.9656,-1.9577,-1.9499,-1.9332,-1.921,-1.9112,-3.7851,-3.7617,-3.7012,-3.5351,-3.3105,-3.3085,-3.3085,-3.3105,-3.3104,-3.2851,-3.2461,-3.1836,-3.1113,-3.0291,-3.0293,-3.0293,-3.0292,-3.0273,-3.0293,-3.0254,-2.9609,-2.9297,-2.9277,-2.8613,-2.8281,-2.8281,-2.8086,-2.7656,-2.7012,-2.6777,-2.6348,-2.5703,-2.5273,-2.5176,-2.5391,-2.5391,-2.5488,-2.5703,-2.5703,-2.5703,-2.5703,-2.5703,-2.5605,-2.5391,-2.3965,-2.3086,-2.2793,-2.1191,-1.9902,-1.9023,-1.8144,-1.7305,-1.6426,-1.5762,0.0,0.0,0.0,0.0,0.0,0.0,0.0,0.0,0.0,-1.2504,-1.2482,0.0,-1.3871,0.0,-1.4819,-1.5582,-1.6235,-1.6301,0.0,0.0,-1.7604,-1.7907,-1.8703,-1.8797,-1.9125,-1.9996,-2.0092,-2.0424,-2.1278,-2.1936,-2.2613,-2.3445,-2.2671,-2.2168,-2.2629,-2.3557,-2.4428,-2.4946,-2.5259,-2.5312,-2.5069,-2.4399,-2.3795,-2.3359,-2.2732,-2.2192,-2.1948,-2.1905,-2.1899,-2.1894,-2.1839,-2.1569,-2.094,-2.0809,-2.0496,-1.9882,-1.9648,-1.9599,-1.9555,-1.9416,-1.9289,-3.918,-3.9141,-3.8769,-3.748,-3.5684,-3.5293,-3.4687,-3.3984,-3.3984,-3.3769,-3.3379,-3.293,-3.2461,-3.2011,-3.2012,-3.2012,-3.2031,-3.2012,-3.1816,-3.1445,-3.0976,-3.0566,-3.0176,-2.9687,-2.9453,-2.9453,-2.9062,-2.8633,-2.8144,-2.7383,-2.6758,-2.6269,-2.5898,-2.5703,-2.5703,-2.5703,-2.5703,-2.5703,-2.5703,-2.5703,-2.5703,-2.5703,-2.5703,-2.5684,-2.4434,-2.3535,-2.3125,-2.1875,-2.0605,-1.9375,-1.8828,-1.8008,-1.6777,-1.625,-1.5801,0.0,0.0,0.0,0.0,0.0,0.0,0.0,0.0,0.0,0.0,0.0,-1.4257,-1.4657,-1.544,-1.6109,-1.6564,-1.694,-1.7506,-1.8351,-1.8423,-1.8761,-1.9573,-1.9686,-1.9996,-2.0869,-2.0966,-2.1298,-2.211,-2.2633,-2.3213,-2.406,-2.3383,-2.3097,-2.3906,-2.4505,-2.4969,-2.541,-2.548,-2.5421,-2.5406,-2.4918,-2.4372,-2.3946,-2.3487,-2.3042,-2.2593,-2.2486,-2.2493,-2.2482,-2.2483,-2.23,-2.179,-2.1689,-2.1488,-2.1002,-2.053,-2.0108,-1.9678,-1.9497,-1.9379,-4.0078,-4.0,-3.9238,-3.8848,-3.8711,-3.7969,-3.6641,-3.5019,-3.4922,-3.4375,-3.3574,-3.3574,-3.3496,-3.3398,-3.3379,-3.3379,-3.3379,-3.3379,-3.3027,-3.2363,-3.2246,-3.1797,-3.1074,-3.0937,-3.0918,-3.0879,-3.0137,-2.9707,-2.9551,-2.8066,-2.7207,-2.6973,-2.625,-2.582,-2.5703,-2.5703,-2.5703,-2.5703,-2.5703,-2.5703,-2.5703,-2.5703,-2.5703,-2.5664,-2.4844,-2.4004,-2.3144,-2.2324,-2.1152,-1.959,-1.9375,-1.8613,-1.7129,-1.6934,-1.6484,0.0,-1.5566,0.0,0.0,0.0,0.0,0.0,0.0,0.0,0.0,-1.4526,-1.4914,-1.5665,-1.6434,-1.6887,-1.6929,-1.7617,-1.8393,-1.9197,-1.9375,-1.9749,-2.0466,-2.0653,-2.1004,-2.1785,-2.1862,-2.2149,-2.2942,-2.3077,-2.3383,-2.4234,-2.437,-2.4544,-2.5279,-2.543,-2.5449,-2.5507,-2.5484,-2.5459,-2.5412,-2.5332,-2.4978,-2.4268,-2.4094,-2.3774,-2.3053,-2.2922,-2.2891,-2.2873,-2.2937,-2.2817,-2.2621,-2.257,-2.2487,-2.2212,-2.1601,-2.0872,-2.0048,-1.9648,-1.9483,-4.0957,-4.0937,-4.0781,-4.0293,-3.9648,-3.9473,-3.8418,-3.6777,-3.6054,-3.5273,-3.4473,-3.4473,-3.4062,-3.3418,-3.3379,-3.3379,-3.3379,-3.3379,-3.332,-3.3164,-3.2519,-3.2109,-3.1914,-3.123,-3.0918,-3.0898,-3.0742,-3.0293,-2.9609,-2.9277,-2.8398,-2.7031,-2.6836,-2.6406,-2.5742,0.0,0.0,0.0,-2.5703,-2.5703,-2.5703,-2.5703,-2.5703,-2.5684,-2.4844,0.0,-2.3203,-2.2363,-2.1426,-2.0391,-1.9687,0.0,0.0,0.0,0.0,0.0,0.0,0.0,0.0,0.0,0.0,0.0,-1.6953,-1.6972,-1.6308,-1.6853,-1.7338,-1.7489,-1.7675,-1.8016,-1.8644,-1.8841,-1.9305,-2.0153,-2.0806,-2.1271,-2.1469,-2.2017,-2.2494,-2.2633,-2.2671,-2.3,-2.379,-2.3944,-2.4273,-2.5066,-2.5256,-2.5318,-2.5468,-2.5507,-2.5507,-2.5507,-2.5444,-2.5419,-2.5387,-2.5341,-2.5224,-2.4976,-2.4974,-2.4834,-2.4573,-2.4536,-2.4556,-2.4461,-2.4511,-2.4232,-2.3599,-2.3421,-2.3179,-2.2453,-2.214,-2.1709,-2.083,-2.009,-1.9548,-4.1191,-4.1191,-4.1191,-4.0937,0.0,-4.0078,-3.9394,-3.8516,-3.7656,-3.6797,-3.5957,-3.5527,-3.5098,-3.4687,-3.4668,-3.4687,-3.4687,-3.4687,-3.4453,-3.4023,-3.3633,-3.2988,-3.2187,-3.1738,-3.1328,-3.0918,-3.0918,-3.0664,-3.0234,-2.9805,-2.916,-2.8281,-2.7871,-2.7207,-2.6367,-2.5918,-2.5703,-2.5703,-2.5703,-2.5703,-2.5703,-2.5703,-2.5703,-2.5684,-2.5273,0.0,0.0,0.0,0.0,0.0,0.0,0.0,0.0,0.0,0.0,-1.7402,-1.7344,-1.7148,-1.6758,-1.709,-1.7344,-1.7363,-1.8144,-1.8261,-1.7421,-1.7752,-1.8003,-1.8019,-1.8381,-1.8778,-1.9173,-1.9954,-2.0651,-2.1085,-2.184,-2.2346,-2.2366,-2.2659,-2.3077,-2.3461,-2.3542,-2.3871,-2.4733,-2.4853,-2.5008,-2.543,-2.5507,-2.5507,-2.5507,-2.5507,-2.5507,-2.5507,-2.5436,-2.5391,-2.5387,-2.5356,-2.5292,-2.5217,-2.5201,-2.5157,-2.5119,-2.5088,-2.5088,-2.5006,-2.4985,-2.4807,-2.4425,-2.4233,-2.4051,-2.3601,-2.3156,-2.273,-2.2155,-2.1105,-2.017,-4.1191,-4.1191,-4.1191,-4.1191,-4.1152,-4.043,-4.0137,-4.0059,-3.9023,0.0,0.0,-3.6601,-3.623,-3.6211,-3.6074,-3.6016,-3.6016,-3.6016,-3.5625,-3.4922,-3.4766,-3.3965,-3.2656,-3.2324,-3.1836,-3.1133,-3.0976,-3.0918,-3.0879,-3.0176,-2.9766,-2.9551,-2.8887,-2.8027,-2.7031,-2.6289,-2.5859,-2.5723,-2.5703,-2.5703,-2.5703,-2.5703,-2.5703,-2.5703,-2.5703,-2.498,-2.3477,-2.3359,-2.2559,-2.0937,-2.084,-2.0449,-1.9609,-1.9531,-1.9141,-1.8301,-1.8223,-1.8164,-1.8008,-1.8144,-1.8301,-1.8437,-1.912,-1.9159,-1.828,-1.8377,-1.8453,-1.8469,-1.9259,-1.9713,-1.9675,-2.1082,-2.2012,-2.1936,-2.2693,-2.3201,-2.3208,-2.3339,-2.3693,-2.4292,-2.4428,-2.4679,-2.5352,-2.5468,-2.5507,-2.5507,-2.5507,-2.5507,-2.5507,-2.5507,-2.5488,-2.546,-2.5412,-2.5391,-2.5397,-2.5356,-2.5283,-2.5222,-2.5206,-2.5174,-2.5137,-2.5113,-2.5069,-2.5006,-2.4985,-2.4959,-2.4905,-2.4799,-2.4805,-2.4813,-2.4238,-2.3697,-2.3509,-2.2383,-2.1284,-4.1211,-4.1191,-4.1191,-4.1191,-4.1191,-4.1074,-4.1035,-4.0879,-3.9297,-3.8535,-3.8359,-3.75,-3.7109,-3.707,-3.6328,-3.6016,-3.6016,-3.6016,-3.5918,-3.5762,-3.5059,-3.459,-3.4277,-3.2871,-3.2148,-3.1953,-3.1269,-3.0918,-3.0898,-3.0781,-3.0332,-2.9687,-2.9473,-2.8594,-2.7129,-2.6875,-2.6445,-2.5723,-2.5703,-2.5703,-2.5703,-2.5703,-2.5703,-2.5703,-2.5703,-2.5254,-2.4297,-2.4219,-2.3457,-2.1816,-2.1719,-2.1328,-2.0488,-2.041,-2.0019,-1.9219,-1.9121,-1.8789,-1.8105,-1.8691,-1.9453,-2.0156,-2.0351,-2.0038,-1.9237,-1.9801,-2.0247,-2.0263,-2.0953,-2.1447,-2.1487,-2.2327,-2.2877,-2.2878,-2.3558,-2.4032,-2.4051,-2.462,-2.5066,-2.524,-2.5333,-2.5298,-2.5472,-2.5507,-2.5507,-2.5507,-2.5507,-2.5507,-2.5507,-2.5507,-2.5484,-2.5429,-2.5404,-2.5382,-2.5384,-2.5356,-2.5287,-2.5217,-2.5209,-2.5176,-2.51,-2.515,-2.5113,-2.5006,-2.5004,-2.4984,-2.4971,-2.487,-2.482,-2.4798,-2.4565,-2.444,-2.4324,-2.3545,-2.2707,-4.1855,-4.1797,-4.1387,-4.1191,-4.1191,-4.1191,-4.1191,-4.1133,-4.0351,-3.9746,-3.9238,-3.8398,-3.7754,-3.7285,-3.6894,-3.6445,-3.6016,-3.6016,-3.6016,-3.5976,-3.5586,-3.5156,-3.4648,-3.3926,-3.3066,-3.2226,-3.1797,-3.1367,-3.0937,-3.0918,-3.0703,-3.0293,-2.9844,-2.918,-2.8418,-2.748,-2.6816,-2.6406,-2.5937,-2.5703,-2.5703,-2.5703,-2.5703,-2.5703,-2.5703,-2.5273,-2.4453,-2.4414,-2.3828,-2.2598,-2.2578,-2.2207,-2.1387,-2.1309,-2.0918,-2.0078,-2.0,-1.9824,-1.9434,-2.0215,-2.0878,-2.1288,-2.1736,-2.1793,-2.1402,-2.1322,-2.1474,-2.1918,-2.2298,-2.2519,-2.2516,-2.326,-2.3728,-2.3708,-2.4409,-2.4894,-2.4927,-2.5224,-2.5511,-2.5507,-2.5507,-2.5507,-2.5507,-2.5507,-2.5507,-2.5507,-2.5507,-2.5507,-2.5507,-2.548,-2.5448,-2.5421,-2.5385,-2.5387,-2.5398,-2.5351,-2.5287,-2.5217,-2.5209,-2.5164,-2.5106,-2.5138,-2.5107,-2.5006,-2.4985,-2.4977,-2.4964,-2.4863,-2.4813,-2.4783,-2.4746,-2.4695,-2.4548,-2.4197,-2.3464,-4.2558,-4.2324,-4.1738,-4.1387,-4.1211,-4.1191,-4.1191,-4.1191,-4.1191,-4.082,-4.0137,-3.9277,-3.8516,-3.7871,-3.748,-3.6934,-3.6328,-3.6074,-3.6016,-3.6016,-3.6016,-3.5625,-3.5,-3.4805,-3.4004,-3.2812,-3.2402,-3.1836,-3.125,-3.0996,-3.0918,-3.084,-3.0234,-2.9805,-2.957,-2.8066,-2.7207,-2.6972,-2.6152,-2.5703,-2.5703,-2.5703,-2.5703,-2.5703,-2.5703,-2.5371,-2.4746,-2.4707,-2.4277,-2.3457,-2.3437,-2.3066,-2.2266,-2.2187,-2.1875,-2.1269,-2.1172,-2.1172,-2.1191,-2.1776,-2.2167,-2.2186,-2.2749,-2.3175,-2.333,-2.2821,-2.2622,-2.3044,-2.3251,-2.3391,-2.3463,-2.4107,-2.4593,-2.463,-2.5124,-2.5437,-2.5511,-2.5515,-2.5507,-2.5507,-2.5507,-2.5507,-2.5507,-2.5507,-2.5507,-2.5507,-2.5507,-2.5488,-2.5484,-2.5429,-2.5401,-2.5385,-2.5391,-2.5388,-2.5384,-2.5317,-2.5257,-2.5212,-2.5187,-2.5141,-2.5107,-2.5095,-2.5063,-2.5012,-2.5004,-2.4977,-2.4924,-2.4856,-2.4805,-2.4795,-2.4742,-2.466,-2.4582,-2.4409,-2.397,-4.3144,-4.2441,-4.2324,-4.1855,-4.123,-4.1191,-4.1191,-4.1191,-4.1191,-4.1152,-4.0937,-4.0156,-3.9726,-3.9453,-3.8027,-3.7305,-3.707,-3.6348,-3.6035,-3.6016,-3.6016,-3.5957,-3.5781,-3.5098,-3.4629,-3.4238,-3.2969,-3.2266,-3.1973,-3.125,-3.0918,-3.0898,-3.0801,-3.0371,-2.9608,-2.8651,-2.7811,-2.7008,-2.613,-2.5702,-2.5703,-2.5703,-2.5703,-2.5703,-2.5701,-2.5662,-2.5527,-2.5566,-2.5175,-2.4394,-2.4277,-2.3926,-2.3184,-2.3008,-2.2969,-2.291,-2.2851,-2.287,-2.2849,-2.2927,-2.2984,-2.3001,-2.3117,-2.3523,-2.4198,-2.4215,-2.3842,-2.3483,-2.386,-2.4251,-2.4263,-2.4948,-2.5382,-2.5368,-2.5457,-2.5515,-2.5508,-2.5515,-2.5507,-2.5507,-2.5507,-2.5507,-2.5507,-2.5507,-2.5507,-2.5507,-2.5507,-2.548,-2.5429,-2.5417,-2.54,-2.5393,-2.5398,-2.5375,-2.5331,-2.5276,-2.5225,-2.5217,-2.5141,-2.5113,-2.5101,-2.5082,-2.5063,-2.5011,-2.4977,-2.4957,-2.491,-2.4849,-2.4817,-2.478,-2.4737,-2.4658,-2.4542,-2.4402,-2.4118,-4.4277,-4.3848,-4.2832,-4.1933,-4.125,-4.1191,-4.1191,-4.1191,-4.1191,-4.1191,-4.1172,-4.082,-4.0391,-3.9863,-3.9141,-3.8301,-3.7305,-3.6934,-3.6484,-3.6035,-3.6016,-3.6016,-3.5957,-3.5664,-3.5234,-3.4707,-3.3984,-3.3144,-3.2207,-3.1309,-3.0918,-3.0918,-3.0918,-3.0722,-3.033,-2.949,-2.8629,-2.7769,-2.691,-2.6227,-2.576,-2.5702,-2.5701,-2.5701,-2.57,-2.57,-2.5701,-2.5701,-2.5526,-2.5194,-2.5155,-2.4784,-2.3944,-2.3885,-2.3632,-2.3221,-2.3123,-2.3103,-2.3102,-2.3569,-2.3859,-2.3875,-2.436,-2.4805,-2.5127,-2.5176,-2.5012,-2.4774,-2.4962,-2.5141,-2.5109,-2.541,-2.5613,-2.5592,-2.5548,-2.5508,-2.5513,-2.5507,-2.5507,-2.5507,-2.5507,-2.5507,-2.5507,-2.5507,-2.5507,-2.5507,-2.548,-2.5429,-2.5401,-2.54,-2.5369,-2.5337,-2.5337,-2.5341,-2.5306,-2.525,-2.5223,-2.5189,-2.5143,-2.5095,-2.5051,-2.5089,-2.5063,-2.4998,-2.4931,-2.4896,-2.4849,-2.4832,-2.4795,-2.4749,-2.4687,-2.4599,-2.4517,-2.4393,-2.4294,-4.5215,-4.4746,-4.3124,-4.207,-4.1523,-4.1269,-4.1171,-4.1191,-4.1171,-4.1171,-4.1171,-4.1172,-4.082,-4.0254,-4.0019,-3.916,-3.8066,-3.7519,-3.6973,-3.6348,-3.6133,-3.6016,-3.6016,-3.6016,-3.5684,-3.5117,-3.4785,-3.3828,-3.2305,-3.1582,-3.1133,-3.0937,-3.0917,-3.0915,-3.0817,-3.0034,-2.9291,-2.8625,-2.7591,-2.6693,-2.6127,-2.5834,-2.5698,-2.5699,-2.5698,-2.5698,-2.5698,-2.5699,-2.5699,-2.57,-2.57,-2.5407,-2.4801,-2.4762,-2.4469,-2.3902,-2.3803,-2.3822,-2.3821,-2.4403,-2.475,-2.4804,-2.5366,-2.5693,-2.5702,-2.5689,-2.5695,-2.5626,-2.5684,-2.561,-2.5607,-2.5615,-2.5601,-2.5599,-2.556,-2.5517,-2.5518,-2.5523,-2.5507,-2.5507,-2.5507,-2.5507,-2.5507,-2.5507,-2.5488,-2.546,-2.5429,-2.5393,-2.5385,-2.5393,-2.5351,-2.5298,-2.5292,-2.5285,-2.5255,-2.5228,-2.5208,-2.5162,-2.512,-2.5063,-2.4999,-2.5031,-2.5044,-2.4945,-2.4863,-2.482,-2.4824,-2.4795,-2.4757,-2.4695,-2.4631,-2.4549,-2.4437,-2.4339,-2.4247,-4.5761,-4.4803,-4.3139,-4.2435,-4.2278,-4.1498,-4.1127,-4.1108,-4.1108,-4.1108,-4.1128,-4.1111,-4.1092,-4.0955,-4.0273,-3.9863,-3.9531,-3.8125,-3.7344,-3.709,-3.6406,-3.6016,-3.6016,-3.6016,-3.5976,-3.5781,-3.5137,-3.3926,-3.2344,-3.207,-3.1659,-3.0936,-3.0915,-3.0913,-3.0812,-3.0087,-2.9578,-2.9302,-2.7916,-2.6978,-2.6822,-2.6119,-2.569,-2.5694,-2.569,-2.5691,-2.5694,-2.5694,-2.5696,-2.57,-2.57,-2.5661,-2.5622,-2.5602,-2.5542,-2.5499,-2.5518,-2.5515,-2.5469,-2.5525,-2.5562,-2.5594,-2.563,-2.5702,-2.5703,-2.5677,-2.5663,-2.5609,-2.5607,-2.5604,-2.5596,-2.5598,-2.5602,-2.5596,-2.5524,-2.5522,-2.5515,-2.5519,-2.5511,-2.5507,-2.5507,-2.5507,-2.5507,-2.5507,-2.548,-2.5429,-2.5401,-2.5385,-2.5369,-2.5351,-2.5322,-2.5287,-2.525,-2.5206,-2.5203,-2.5197,-2.5162,-2.5114,-2.5057,-2.5018,-2.5005,-2.4992,-2.4959,-2.4917,-2.4834,-2.4791,-2.4813,-2.4776,-2.4718,-2.4655,-2.4566,-2.4472,-2.4384,-2.4266,-2.4171,-4.5797,-4.4956,-4.4329,-4.343,-4.2395,-4.2063,-4.1615,-4.1126,-4.1107,-4.1107,-4.1107,-4.1108,-4.1109,-4.107,-4.0798,-4.039,-3.9863,-3.9219,-3.8379,-3.7383,-3.6992,-3.6543,-3.6035,-3.6016,-3.6016,-3.5957,-3.5684,-3.4648,-3.3066,-3.2401,-3.1697,-3.1032,-3.0912,-3.0909,-3.0849,-3.0552,-3.014,-2.9534,-2.8402,-2.7561,-2.6996,-2.6157,-2.5688,-2.5689,-2.5688,-2.5687,-2.569,-2.5689,-2.5691,-2.5693,-2.5693,-2.5693,-2.5693,-2.569,-2.5706,-2.5701,-2.5699,-2.5698,-2.5694,-2.5694,-2.5707,-2.5692,-2.5691,-2.5683,-2.5663,-2.5632,-2.5637,-2.5601,-2.5604,-2.5595,-2.5615,-2.5602,-2.5573,-2.5541,-2.5517,-2.5511,-2.5519,-2.5511,-2.5507,-2.5507,-2.5507,-2.5507,-2.5488,-2.548,-2.5429,-2.5401,-2.54,-2.5369,-2.5332,-2.5303,-2.5287,-2.525,-2.5212,-2.5185,-2.5126,-2.5119,-2.5113,-2.5057,-2.5018,-2.5005,-2.4985,-2.4991,-2.4964,-2.4896,-2.4813,-2.4761,-2.4776,-2.4745,-2.4679,-2.4615,-2.4532,-2.442,-2.4321,-2.4219,-2.4123,-4.5967,-4.542,-4.5125,-4.4323,-4.3228,-4.2624,-4.2058,-4.1512,-4.122,-4.1102,-4.1103,-4.1104,-4.1104,-4.1105,-4.1106,-4.0817,-4.0292,-4.0019,-3.9121,-3.7773,-3.7441,-3.6836,-3.6113,-3.6016,-3.6016,-3.6016,-3.6015,-3.5214,-3.3866,-3.2927,-3.2104,-3.1341,-3.1024,-3.0885,-3.0865,-3.0822,-3.0488,-2.9904,-2.9142,-2.8285,-2.7444,-2.6566,-2.5962,-2.5726,-2.5687,-2.5687,-2.5687,-2.5687,-2.5687,-2.5687,-2.5706,-2.5704,-2.5702,-2.5699,-2.5694,-2.569,-2.5707,-2.5704,-2.5701,-2.5697,-2.5669,-2.5671,-2.5669,-2.5641,-2.56,-2.5604,-2.5613,-2.5604,-2.5567,-2.5551,-2.5567,-2.5583,-2.5554,-2.552,-2.5522,-2.5503,-2.5511,-2.5511,-2.5507,-2.5507,-2.5507,-2.5507,-2.5484,-2.5429,-2.5397,-2.5385,-2.5388,-2.5351,-2.5308,-2.5268,-2.5236,-2.5168,-2.5172,-2.5125,-2.507,-2.5057,-2.5057,-2.5031,-2.4972,-2.4965,-2.4977,-2.4983,-2.4962,-2.4868,-2.4817,-2.4764,-2.4737,-2.4706,-2.4639,-2.4582,-2.4481,-2.4358,-2.4275,-2.4199,-2.4084,-4.6293,-4.6117,-4.5366,-4.4994,-4.4564,-4.3159,-4.2435,-4.2183,-4.1441,-4.1111,-4.1112,-4.1116,-4.1099,-4.11,-4.1103,-4.1068,-4.0873,-4.0328,-3.9529,-3.8592,-3.7773,-3.6953,-3.6172,-3.6035,-3.6016,-3.6016,-3.6015,-3.5545,-3.4588,-3.3685,-3.284,-3.2038,-3.1194,-3.0801,-3.08,-3.0801,-3.08,-3.0528,-2.9866,-2.9103,-2.8303,-2.7387,-2.6547,-2.5884,-2.5747,-2.5687,-2.5687,-2.5687,-2.5687,-2.5706,-2.5702,-2.5696,-2.5692,-2.5689,-2.5689,-2.5686,-2.5697,-2.5687,-2.5699,-2.5632,-2.5622,-2.561,-2.5608,-2.5578,-2.5599,-2.5585,-2.5592,-2.5583,-2.5548,-2.5515,-2.5511,-2.5513,-2.5522,-2.5518,-2.5503,-2.5511,-2.5511,-2.5507,-2.5507,-2.5507,-2.5488,-2.546,-2.5406,-2.5393,-2.54,-2.5384,-2.5351,-2.5303,-2.5288,-2.5236,-2.5187,-2.5128,-2.5087,-2.5076,-2.5031,-2.4985,-2.4998,-2.4996,-2.4931,-2.4891,-2.491,-2.4915,-2.4887,-2.4817,-2.4772,-2.4737,-2.4706,-2.4666,-2.4601,-2.4534,-2.4402,-2.4303,-2.4219,-2.4151,-2.3986,-4.6305,-4.6266,-4.6028,-4.5539,-4.4894,-4.3782,-4.2982,-4.2318,-4.1479,-4.1109,-4.1109,-4.1111,-4.1112,-4.1112,-4.1115,-4.1116,-4.1077,-4.0808,-4.0285,-3.9448,-3.859,-3.7693,-3.6891,-3.6286,-3.6013,-3.6013,-3.6012,-3.5562,-3.47,-3.3837,-3.2955,-3.2092,-3.125,-3.082,-3.08,-3.08,-3.08,-3.0703,-3.0001,-2.9456,-2.9064,-2.7757,-2.688,-2.6567,-2.602,-2.5706,-2.5702,-2.5705,-2.5705,-2.5702,-2.5701,-2.5693,-2.5701,-2.5692,-2.5668,-2.564,-2.563,-2.5643,-2.5637,-2.5605,-2.5609,-2.5599,-2.5549,-2.5537,-2.5541,-2.5535,-2.5528,-2.5541,-2.5505,-2.551,-2.5506,-2.5511,-2.5503,-2.5515,-2.5519,-2.5507,-2.5507,-2.5507,-2.5507,-2.5488,-2.546,-2.5429,-2.5417,-2.54,-2.5364,-2.5327,-2.5317,-2.5292,-2.5231,-2.5217,-2.5191,-2.5112,-2.5082,-2.5031,-2.4979,-2.4938,-2.4929,-2.4922,-2.4882,-2.4849,-2.4861,-2.4839,-2.4809,-2.4772,-2.4737,-2.4698,-2.4666,-2.4617,-2.4551,-2.4465,-2.4358,-2.4275,-2.4199,-2.4074,-2.3907,-4.6294,-4.6294,-4.6271,-4.5956,-4.5332,-4.422,-4.34,-4.2737,-4.1605,-4.1117,-4.1117,-4.1101,-4.1103,-4.1104,-4.1108,-4.1109,-4.1109,-4.1114,-4.0825,-4.0184,-3.9074,-3.8138,-3.7279,-3.642,-3.601,-3.601,-3.6009,-3.5714,-3.5165,-3.4303,-3.344,-3.2579,-3.1719,-3.1094,-3.0839,-3.08,-3.08,-3.0703,-3.0331,-2.9882,-2.9432,-2.8512,-2.7632,-2.7029,-2.6463,-2.6031,-2.5754,-2.5699,-2.5699,-2.5696,-2.5693,-2.5683,-2.5685,-2.5677,-2.565,-2.5619,-2.5603,-2.5612,-2.5609,-2.5571,-2.5573,-2.5544,-2.5535,-2.5509,-2.5518,-2.5511,-2.552,-2.5517,-2.5522,-2.5503,-2.5507,-2.5515,-2.5515,-2.5507,-2.5519,-2.5511,-2.5488,-2.5464,-2.548,-2.5452,-2.5421,-2.5404,-2.5378,-2.536,-2.5322,-2.5288,-2.5271,-2.5255,-2.5193,-2.5172,-2.5113,-2.5057,-2.5012,-2.4965,-2.4924,-2.4882,-2.4846,-2.4839,-2.4824,-2.4824,-2.4817,-2.4776,-2.4746,-2.4745,-2.4698,-2.4615,-2.4582,-2.4559,-2.45,-2.4403,-2.4284,-2.4181,-2.4094,-2.3947,-2.3806,-4.6303,-4.6301,-4.6233,-4.6189,-4.5916,-4.4395,-4.3653,-4.3378,-4.1837,-4.1115,-4.1098,-4.1109,-4.1111,-4.1115,-4.1101,-4.1104,-4.1108,-4.1108,-4.1088,-4.0605,-3.9519,-3.8292,-3.7297,-3.6418,-3.6027,-3.6008,-3.6005,-3.5985,-3.5807,-3.4963,-3.4256,-3.328,-3.2401,-3.1621,-3.0955,-3.08,-3.0798,-3.0778,-3.0755,-3.0362,-2.9677,-2.9455,-2.8711,-2.7231,-2.6978,-2.6528,-2.5825,-2.5687,-2.5689,-2.5687,-2.5697,-2.5666,-2.563,-2.5604,-2.5595,-2.5603,-2.5596,-2.5582,-2.5573,-2.5535,-2.5518,-2.5515,-2.5511,-2.5511,-2.5505,-2.5506,-2.5515,-2.5518,-2.5523,-2.5511,-2.5511,-2.5507,-2.5507,-2.5507,-2.5511,-2.5507,-2.5484,-2.5429,-2.5406,-2.5397,-2.54,-2.5369,-2.5322,-2.5288,-2.5253,-2.5217,-2.5206,-2.5195,-2.5184,-2.5119,-2.5005,-2.4952,-2.4931,-2.4903,-2.4861,-2.4865,-2.4828,-2.4787,-2.4772,-2.4764,-2.4791,-2.4749,-2.4692,-2.469,-2.4642,-2.4584,-2.4507,-2.4482,-2.4403,-2.4294,-2.419,-2.4084,-2.3976,-2.3845,-2.375,-4.6214,-4.6231,-4.6209,-4.6206,-4.5952,-4.4412,-4.3709,-4.3475,-4.1835,-4.1111,-4.1113,-4.1115,-4.1098,-4.1098,-4.1103,-4.1105,-4.1107,-4.1115,-4.1117,-4.0943,-4.0016,-3.8654,-3.7365,-3.6428,-3.6018,-3.6018,-3.6017,-3.6014,-3.5938,-3.5174,-3.4295,-3.3396,-3.2592,-3.1693,-3.0932,-3.0789,-3.0786,-3.0785,-3.0783,-3.0725,-3.0391,-2.9801,-2.9021,-2.8067,-2.7365,-2.6601,-2.5814,-2.5691,-2.5692,-2.5696,-2.5662,-2.5613,-2.5602,-2.5598,-2.5601,-2.5593,-2.555,-2.5548,-2.5522,-2.5501,-2.551,-2.5506,-2.5515,-2.5507,-2.5507,-2.5519,-2.5515,-2.5515,-2.5511,-2.5507,-2.5507,-2.5507,-2.5507,-2.5507,-2.5503,-2.548,-2.5433,-2.5406,-2.5397,-2.5395,-2.536,-2.5327,-2.5298,-2.5257,-2.5234,-2.5195,-2.5155,-2.5132,-2.5107,-2.5057,-2.4938,-2.487,-2.4834,-2.4839,-2.4817,-2.4813,-2.4791,-2.4742,-2.4726,-2.4729,-2.4729,-2.4703,-2.4663,-2.465,-2.4576,-2.4508,-2.4447,-2.4394,-2.4284,-2.418,-2.4074,-2.3947,-2.3884,-2.3771,-2.3693,-4.6215,-4.6209,-4.62,-4.6193,-4.5933,-4.4374,-4.3669,-4.3319,-4.1838,-4.1064,-4.105,-4.1056,-4.1061,-4.1106,-4.1111,-4.1113,-4.1115,-4.1103,-4.1105,-4.0873,-3.9786,-3.8505,-3.7339,-3.6422,-3.6012,-3.6012,-3.6012,-3.6009,-3.5929,-3.5461,-3.4601,-3.3544,-3.2897,-3.2017,-3.0866,-3.0803,-3.0799,-3.0798,-3.0794,-3.0792,-3.0734,-3.0316,-2.9652,-2.8813,-2.7957,-2.6979,-2.5921,-2.5658,-2.5656,-2.5638,-2.5632,-2.5602,-2.5608,-2.5601,-2.5598,-2.5612,-2.5541,-2.5517,-2.5506,-2.5468,-2.5449,-2.546,-2.5468,-2.5468,-2.5464,-2.5464,-2.5464,-2.5444,-2.5452,-2.5456,-2.546,-2.546,-2.5456,-2.5456,-2.5448,-2.5444,-2.5382,-2.5389,-2.5387,-2.5374,-2.5341,-2.5297,-2.5252,-2.5223,-2.5197,-2.5169,-2.5101,-2.5051,-2.5006,-2.4959,-2.4889,-2.4805,-2.4776,-2.4787,-2.4764,-2.476,-2.4745,-2.4695,-2.4663,-2.4666,-2.4639,-2.4639,-2.4599,-2.4549,-2.45,-2.4448,-2.4358,-2.4284,-2.4181,-2.4084,-2.3937,-2.3855,-2.38,-2.3703,-2.3634,-4.6187,-4.6173,-4.6174,-4.6154,-4.5849,-4.4346,-4.3611,-4.3276,-4.1762,-4.1011,-4.099,-4.0981,-4.1033,-4.107,-4.1073,-4.1083,-4.1086,-4.1086,-4.1091,-4.0589,-3.9501,-3.8163,-3.7549,-3.6476,-3.6045,-3.6006,-3.6009,-3.6004,-3.5981,-3.5941,-3.5098,-3.3943,-3.3472,-3.2514,-3.1322,-3.0911,-3.0794,-3.0788,-3.0778,-3.0774,-3.0772,-3.0645,-3.0173,-2.9335,-2.8245,-2.7234,-2.6217,-2.5745,-2.5604,-2.56,-2.56,-2.5605,-2.5601,-2.5604,-2.5586,-2.5567,-2.5517,-2.5484,-2.5488,-2.5433,-2.5412,-2.54,-2.5395,-2.5391,-2.5395,-2.5395,-2.5395,-2.54,-2.5389,-2.5417,-2.5397,-2.5417,-2.5417,-2.5417,-2.5419,-2.5395,-2.538,-2.5397,-2.5361,-2.5288,-2.5297,-2.5245,-2.522,-2.5199,-2.515,-2.5101,-2.5031,-2.4979,-2.4926,-2.487,-2.4798,-2.4723,-2.4715,-2.4749,-2.4737,-2.4706,-2.4663,-2.4639,-2.4626,-2.4601,-2.4557,-2.4541,-2.4507,-2.4464,-2.4403,-2.434,-2.4275,-2.417,-2.4074,-2.3976,-2.3865,-2.381,-2.3765,-2.3656,-2.3555,-4.6115,-4.613,-4.6106,-4.6122,-4.5845,-4.4342,-4.3603,-4.3443,-4.1731,-4.0972,-4.098,-4.0988,-4.0991,-4.1015,-4.1025,-4.1029,-4.1026,-4.1019,-4.1053,-4.084,-3.9321,-3.8523,-3.7884,-3.6731,-3.605,-3.6011,-3.6011,-3.6009,-3.5988,-3.591,-3.5481,-3.4484,-3.3616,-3.2892,-3.1893,-3.1081,-3.0799,-3.0777,-3.0745,-3.0723,-3.0723,-3.0717,-3.0345,-2.9466,-2.8104,-2.7167,-2.6622,-2.5963,-2.5625,-2.5615,-2.5609,-2.5601,-2.5585,-2.556,-2.5538,-2.5513,-2.5461,-2.5433,-2.5425,-2.5408,-2.5395,-2.5387,-2.5382,-2.5391,-2.5391,-2.5387,-2.5391,-2.5391,-2.5391,-2.5395,-2.54,-2.5395,-2.5395,-2.5391,-2.5397,-2.5374,-2.5337,-2.5327,-2.5327,-2.5292,-2.5239,-2.5208,-2.5205,-2.5088,-2.5063,-2.503,-2.4964,-2.4884,-2.4842,-2.4798,-2.473,-2.466,-2.466,-2.4695,-2.4671,-2.4631,-2.4599,-2.4574,-2.4551,-2.4508,-2.4464,-2.4446,-2.4411,-2.4367,-2.4294,-2.4237,-2.4151,-2.4054,-2.3937,-2.3855,-2.3782,-2.3725,-2.3667,-2.3567,-2.3476,-4.6084,-4.6042,-4.6042,-4.6027,-4.5735,-4.4234,-4.3501,-4.3146,-4.165,-4.0917,-4.095,-4.0939,-4.0952,-4.0964,-4.0972,-4.0984,-4.0991,-4.0983,-4.1016,-4.064,-3.9318,-3.85,-3.8113,-3.6891,-3.596,-3.5999,-3.6005,-3.5984,-3.5977,-3.5892,-3.5498,-3.4635,-3.3785,-3.292,-3.206,-3.119,-3.0776,-3.0756,-3.0728,-3.0703,-3.0703,-3.0684,-3.0314,-2.963,-2.8541,-2.7821,-2.6906,-2.6507,-2.6032,-2.571,-2.5579,-2.5573,-2.5586,-2.5538,-2.5506,-2.5503,-2.5437,-2.5389,-2.5395,-2.5402,-2.5388,-2.5355,-2.5355,-2.5351,-2.5351,-2.5355,-2.5351,-2.5355,-2.5384,-2.5397,-2.5387,-2.5397,-2.5393,-2.5388,-2.538,-2.5332,-2.5312,-2.5307,-2.5287,-2.5245,-2.522,-2.5149,-2.5095,-2.5031,-2.4985,-2.4964,-2.4894,-2.4824,-2.4768,-2.4723,-2.4703,-2.4647,-2.4639,-2.4631,-2.4615,-2.4582,-2.4522,-2.4479,-2.4474,-2.4393,-2.4348,-2.433,-2.4331,-2.4266,-2.4209,-2.4103,-2.4034,-2.3907,-2.3834,-2.3768,-2.3711,-2.3645,-2.3585,-2.3487,-2.3395,-4.6027,-4.5986,-4.5986,-4.5958,-4.5626,-4.4128,-4.3416,-4.3158,-4.1563,-4.0853,-4.0877,-4.0883,-4.0888,-4.0911,-4.0943,-4.0956,-4.0988,-4.0976,-4.1007,-4.0754,-3.9217,-3.8516,-3.801,-3.6849,-3.593,-3.5973,-3.597,-3.5943,-3.5916,-3.585,-3.5588,-3.4756,-3.3751,-3.3044,-3.2182,-3.1203,-3.071,-3.0707,-3.0701,-3.0678,-3.0678,-3.0678,-3.0309,-2.9878,-2.9373,-2.8692,-2.7714,-2.7197,-2.6699,-2.5861,-2.5719,-2.5657,-2.5576,-2.554,-2.5503,-2.5488,-2.5425,-2.54,-2.5388,-2.5374,-2.5361,-2.5308,-2.5293,-2.5293,-2.5293,-2.5298,-2.5317,-2.5322,-2.5351,-2.5374,-2.5373,-2.5355,-2.5384,-2.537,-2.5317,-2.5287,-2.5296,-2.5296,-2.5258,-2.5195,-2.5162,-2.5095,-2.5044,-2.5004,-2.4945,-2.4896,-2.4824,-2.4757,-2.4718,-2.4679,-2.4658,-2.4634,-2.4599,-2.4582,-2.4557,-2.4515,-2.4454,-2.4419,-2.4384,-2.4312,-2.4247,-2.4228,-2.4228,-2.4199,-2.4132,-2.4006,-2.3915,-2.3824,-2.3768,-2.3689,-2.3641,-2.3573,-2.3505,-2.3418,-2.3324,-4.5935,-4.5923,-4.5904,-4.5898,-4.562,-4.4102,-4.336,-4.3119,-4.1499,-4.0826,-4.0812,-4.0798,-4.0828,-4.0833,-4.0833,-4.0859,-4.0921,-4.0943,-4.0964,-4.0672,-3.9272,-3.8412,-3.8062,-3.6701,-3.596,-3.5915,-3.5898,-3.5895,-3.5901,-3.5872,-3.573,-3.5321,-3.4124,-3.3223,-3.2622,-3.1624,-3.0752,-3.0683,-3.0649,-3.0642,-3.0638,-3.0618,-3.056,-3.025,-2.9826,-2.9283,-2.8872,-2.8202,-2.7492,-2.672,-2.6606,-2.6172,-2.5758,-2.5576,-2.5476,-2.5433,-2.5404,-2.5382,-2.5394,-2.5351,-2.5317,-2.5308,-2.5308,-2.5308,-2.5308,-2.5308,-2.5308,-2.5308,-2.5313,-2.5317,-2.5303,-2.5308,-2.5312,-2.5297,-2.5276,-2.5239,-2.5231,-2.5208,-2.5203,-2.5162,-2.5107,-2.5031,-2.4985,-2.4957,-2.4882,-2.4839,-2.4772,-2.4726,-2.4687,-2.4647,-2.4617,-2.4574,-2.4557,-2.4532,-2.4517,-2.4446,-2.4402,-2.4357,-2.4303,-2.4257,-2.4172,-2.4142,-2.4103,-2.4074,-2.3996,-2.3876,-2.3785,-2.3728,-2.3671,-2.36,-2.3551,-2.3494,-2.3424,-2.3324,-2.3223,-4.5899,-4.5906,-4.5906,-4.5615,-4.5002,-4.3853,-4.3034,-4.246,-4.1306,-4.0751,-4.0763,-4.0787,-4.0804,-4.0804,-4.0801,-4.0828,-4.0854,-4.0888,-4.0883,-4.0514,-3.9232,-3.8358,-3.813,-3.6595,-3.5954,-3.5779,-3.5799,-3.5846,-3.5875,-3.5857,-3.583,-3.5551,-3.4505,-3.3728,-3.3083,-3.2004,-3.1123,-3.0797,-3.0629,-3.0602,-3.0602,-3.0602,-3.0602,-3.0466,-3.0238,-2.9834,-2.935,-2.9047,-2.8307,-2.7524,-2.6997,-2.6555,-2.6122,-2.5708,-2.5464,-2.5408,-2.5387,-2.5384,-2.5356,-2.5313,-2.5308,-2.5308,-2.5308,-2.5308,-2.5308,-2.5308,-2.5308,-2.5308,-2.5308,-2.5298,-2.5293,-2.5297,-2.5287,-2.5266,-2.5215,-2.5201,-2.5185,-2.5125,-2.512,-2.512,-2.5044,-2.4979,-2.4945,-2.4889,-2.4843,-2.4791,-2.4718,-2.4687,-2.4655,-2.4607,-2.4576,-2.4542,-2.4507,-2.4481,-2.4465,-2.4412,-2.4339,-2.4303,-2.4247,-2.4172,-2.4095,-2.4036,-2.3986,-2.3927,-2.3827,-2.3753,-2.3703,-2.3645,-2.3578,-2.351,-2.3482,-2.3413,-2.333,-2.3229,-2.3126,-4.5887,-4.588,-4.5847,-4.5348,-4.4428,-4.3578,-4.2707,-4.1837,-4.1028,-4.0674,-4.0694,-4.072,-4.0764,-4.0776,-4.0767,-4.0771,-4.0796,-4.0807,-4.0818,-4.0469,-3.9111,-3.8292,-3.7821,-3.6736,-3.5718,-3.5727,-3.5722,-3.5769,-3.5811,-3.5799,-3.5767,-3.5525,-3.4903,-3.4206,-3.3416,-3.2374,-3.1551,-3.1039,-3.0632,-3.0613,-3.0565,-3.0585,-3.06,-3.06,-3.0576,-3.0247,-2.9758,-2.961,-2.9102,-2.8354,-2.7679,-2.7073,-2.6644,-2.6032,-2.5575,-2.5436,-2.5388,-2.5341,-2.5317,-2.5308,-2.5308,-2.5308,-2.5308,-2.5308,-2.5308,-2.5308,-2.5303,-2.5298,-2.5298,-2.5288,-2.5287,-2.5276,-2.5261,-2.5215,-2.5189,-2.5168,-2.5132,-2.507,-2.5012,-2.4985,-2.4964,-2.4929,-2.4875,-2.4839,-2.4772,-2.4718,-2.4663,-2.4639,-2.4607,-2.4566,-2.4515,-2.4491,-2.4465,-2.4447,-2.4412,-2.4358,-2.4294,-2.4247,-2.419,-2.4123,-2.4016,-2.3917,-2.3865,-2.3803,-2.3779,-2.3693,-2.3641,-2.3551,-2.3494,-2.343,-2.3401,-2.333,-2.3229,-2.3144,-2.304,-4.5803,-4.5795,-4.5727,-4.5241,-4.4403,-4.3516,-4.2686,-4.1791,-4.0961,-4.0621,-4.0614,-4.0609,-4.0641,-4.0636,-4.0687,-4.0738,-4.0781,-4.0779,-4.0784,-4.0533,-3.9104,-3.8285,-3.8029,-3.6503,-3.5786,-3.5684,-3.5694,-3.5708,-3.5727,-3.5737,-3.5713,-3.5534,-3.502,-3.4371,-3.3994,-3.2755,-3.1864,-3.1555,-3.0955,-3.0574,-3.0516,-3.0516,-3.0506,-3.0515,-3.051,-3.0457,-3.025,-3.0187,-2.9854,-2.9173,-2.8932,-2.8136,-2.7012,-2.6598,-2.6049,-2.563,-2.5379,-2.5365,-2.5313,-2.5308,-2.5308,-2.5308,-2.5308,-2.5308,-2.5308,-2.5303,-2.5298,-2.5292,-2.5297,-2.5262,-2.5236,-2.522,-2.5212,-2.5178,-2.5143,-2.5088,-2.5044,-2.5025,-2.4959,-2.4903,-2.4875,-2.4858,-2.4813,-2.4757,-2.4718,-2.4663,-2.4615,-2.459,-2.4539,-2.4515,-2.4472,-2.4456,-2.4412,-2.4375,-2.4349,-2.4303,-2.4238,-2.4181,-2.4113,-2.4026,-2.3945,-2.3824,-2.3747,-2.3693,-2.3667,-2.3611,-2.3522,-2.3459,-2.3383,-2.3336,-2.3307,-2.3217,-2.3132,-2.3045,-2.2957,-4.5754,-4.5692,-4.5233,-4.4515,-4.3644,-4.2815,-4.194,-4.1173,-4.0764,-4.0598,-4.0579,-4.0581,-4.0588,-4.0602,-4.0648,-4.0662,-4.0681,-4.0681,-4.0681,-4.0346,-3.9102,-3.8212,-3.7781,-3.6543,-3.5654,-3.5646,-3.5635,-3.5629,-3.5646,-3.5664,-3.5679,-3.5581,-3.5294,-3.4823,-3.4425,-3.3144,-3.2317,-3.1674,-3.1018,-3.0549,-3.05,-3.0495,-3.049,-3.0485,-3.0485,-3.0485,-3.0479,-3.0465,-3.0369,-2.9843,-2.9562,-2.8954,-2.8154,-2.7619,-2.6968,-2.6198,-2.6083,-2.5842,-2.5404,-2.5327,-2.5308,-2.5308,-2.5308,-2.5308,-2.5303,-2.5293,-2.5307,-2.5292,-2.5257,-2.5217,-2.5209,-2.5206,-2.5172,-2.5137,-2.5088,-2.5063,-2.4999,-2.4959,-2.4936,-2.4861,-2.4809,-2.4791,-2.4753,-2.4703,-2.4671,-2.4631,-2.4582,-2.4549,-2.4507,-2.4482,-2.4447,-2.443,-2.4376,-2.4321,-2.4266,-2.4237,-2.4162,-2.4075,-2.3958,-2.3896,-2.3834,-2.3739,-2.3671,-2.36,-2.3544,-2.3494,-2.3407,-2.3372,-2.3348,-2.3277,-2.3193,-2.3119,-2.3033,-2.2881,-2.2777,-4.5354,-4.529,-4.4693,-4.3821,-4.2749,-4.2133,-4.1393,-4.0562,-4.0565,-4.0573,-4.058,-4.0564,-4.0586,-4.0593,-4.06,-4.0607,-4.0595,-4.0588,-4.0588,-4.0035,-3.907,-3.8209,-3.7598,-3.6511,-3.5604,-3.5617,-3.5616,-3.5616,-3.5608,-3.5637,-3.564,-3.5604,-3.5554,-3.5255,-3.4594,-3.3745,-3.2896,-3.1695,-3.0909,-3.0523,-3.0455,-3.0469,-3.0463,-3.0477,-3.0497,-3.0483,-3.0477,-3.0477,-3.0458,-3.0298,-2.9916,-2.9437,-2.8937,-2.8426,-2.778,-2.7145,-2.6933,-2.6544,-2.5923,-2.5538,-2.5346,-2.5308,-2.5308,-2.5303,-2.5293,-2.5297,-2.5276,-2.5266,-2.5236,-2.5204,-2.517,-2.5185,-2.5131,-2.5082,-2.5031,-2.5011,-2.5028,-2.5081,-2.5,-2.4843,-2.4791,-2.4745,-2.4706,-2.4655,-2.4623,-2.4572,-2.4539,-2.4515,-2.4482,-2.443,-2.4394,-2.4358,-2.4312,-2.4247,-2.419,-2.4133,-2.4074,-2.3986,-2.3876,-2.3782,-2.3736,-2.3671,-2.3594,-2.3522,-2.3459,-2.3378,-2.3289,-2.3301,-2.3301,-2.3193,-2.3095,-2.302,-2.2919,-2.2764,-2.2623,-4.4402,-4.4402,-4.4314,-4.3363,-4.1931,-4.1854,-4.1296,-4.0516,-4.0496,-4.0523,-4.0523,-4.0512,-4.0554,-4.0588,-4.0576,-4.0591,-4.0588,-4.0588,-4.0581,-4.0041,-3.9032,-3.8208,-3.7514,-3.6607,-3.5611,-3.5591,-3.5579,-3.5605,-3.5617,-3.5591,-3.561,-3.5623,-3.5578,-3.5559,-3.5161,-3.4377,-3.3138,-3.1923,-3.1023,-3.0554,-3.0466,-3.0417,-3.0406,-3.0402,-3.0416,-3.041,-3.039,-3.0421,-3.0421,-3.0421,-3.0242,-2.9896,-2.9402,-2.9146,-2.8621,-2.8005,-2.7794,-2.7351,-2.6678,-2.5885,-2.5404,-2.5327,-2.5303,-2.5293,-2.5297,-2.5311,-2.5285,-2.5338,-2.5436,-2.5426,-2.5309,-2.5158,-2.5469,-2.5526,-2.5624,-2.5575,-2.5532,-2.5355,-2.5216,-2.4911,-2.4959,-2.5231,-2.5257,-2.5327,-2.4758,-2.4659,-2.4507,-2.4482,-2.4438,-2.4394,-2.4321,-2.4275,-2.4237,-2.419,-2.4113,-2.4054,-2.3976,-2.3904,-2.3792,-2.3703,-2.3623,-2.3567,-2.3522,-2.3441,-2.336,-2.3265,-2.318,-2.3163,-2.3139,-2.307,-2.2982,-2.2881,-2.2751,-2.2609,-2.246,-4.3701,-4.2777,-4.2777,-4.2385,-4.1758,-4.1239,-4.0804,-4.0535,-4.0496,-4.0496,-4.0496,-4.0496,-4.0504,-4.0531,-4.0531,-4.0546,-4.0542,-4.0542,-4.0542,-3.9983,-3.9001,-3.8166,-3.7453,-3.6574,-3.5521,-3.5534,-3.5547,-3.5547,-3.5547,-3.5554,-3.5547,-3.5528,-3.5534,-3.5547,-3.5271,-3.4648,-3.3333,-3.2139,-3.1368,-3.1016,-3.0446,-3.0402,-3.0396,-3.0404,-3.0404,-3.0404,-3.0404,-3.0404,-3.0404,-3.0404,-3.0404,-3.0135,-2.991,-2.9833,-2.941,-2.878,-2.8665,-2.8203,-2.7448,-2.6582,-2.5923,-2.536,-2.5293,-2.5374,-2.5474,-2.5337,-2.5568,-2.5719,-2.5938,-2.6003,-2.6574,-2.6578,-2.6598,-2.6494,-2.6363,-2.6254,-2.6151,-2.5973,-2.5933,-2.5807,-2.6047,-2.6342,-2.628,-2.6179,-2.5425,-2.4764,-2.4584,-2.4485,-2.4607,-2.4635,-2.4653,-2.4632,-2.4611,-2.4431,-2.4361,-2.4145,-2.392,-2.3901,-2.388,-2.377,-2.3741,-2.3494,-2.3448,-2.3348,-2.3265,-2.3168,-2.3077,-2.304,-2.299,-2.2944,-2.2829,-2.2712,-2.2565,-2.2432,-2.229,-4.2874,-4.1788,-4.1527,-4.1412,-4.1335,-4.0746,-4.0496,-4.0496,-4.0496,-4.0496,-4.0496,-4.0496,-4.0496,-4.0496,-4.0496,-4.0496,-4.0504,-4.0504,-4.0496,-3.9861,-3.8938,-3.8142,-3.743,-3.6546,-3.5514,-3.55,-3.55,-3.5507,-3.5514,-3.5507,-3.5507,-3.5501,-3.5489,-3.5508,-3.5309,-3.4603,-3.3474,-3.2391,-3.1718,-3.1269,-3.0519,-3.0404,-3.0404,-3.0404,-3.0404,-3.0404,-3.0404,-3.0404,-3.0404,-3.0404,-3.0404,-3.0404,-3.0385,-3.0308,-3.0058,-2.9717,-2.939,-2.9088,-2.8294,-2.7456,-2.672,-2.6345,-2.6214,-2.6154,-2.6003,-2.597,-2.6446,-2.6651,-2.6772,-2.6999,-2.7597,-2.7262,-2.7135,-2.6953,-2.6956,-2.689,-2.6895,-2.6798,-2.6822,-2.6807,-2.6969,-2.6887,-2.6804,-2.6646,-2.6368,-2.5745,-2.5662,-2.556,-2.5512,-2.5482,-2.5331,-2.5261,-2.5163,-2.4934,-2.4685,-2.4795,-2.4874,-2.4701,-2.4585,-2.4139,-2.3957,-2.3726,-2.3413,-2.3241,-2.3156,-2.307,-2.2977,-2.2902,-2.2881,-2.2842,-2.2685,-2.2528,-2.2429,-2.2276,-2.2132,-4.1854,-4.17,-4.09,-4.0573,-4.0612,-4.0535,-4.0496,-4.0496,-4.0496,-4.0496,-4.0496,-4.0496,-4.0496,-4.0496,-4.0496,-4.0496,-4.0496,-4.0496,-4.0496,-4.0092,-3.8815,-3.8142,-3.7411,-3.6481,-3.55,-3.55,-3.55,-3.55,-3.55,-3.55,-3.55,-3.55,-3.5488,-3.5488,-3.5404,-3.4661,-3.3757,-3.291,-3.2179,-3.1385,-3.075,-3.05,-3.0404,-3.0404,-3.0404,-3.0404,-3.0404,-3.0404,-3.0404,-3.0404,-3.0404,-3.0404,-3.0404,-3.0404,-3.0308,-3.025,-3.025,-2.9865,-2.9121,-2.828,-2.7802,-2.7432,-2.716,-2.7232,-2.7465,-2.751,-2.7434,-2.7509,-2.7582,-2.7571,-2.7577,-2.7551,-2.7629,-2.7703,-2.7748,-2.7754,-2.7795,-2.7779,-2.7819,-2.783,-2.7391,-2.7056,-2.7056,-2.7046,-2.7063,-2.6867,-2.6783,-2.6631,-2.6366,-2.6129,-2.5913,-2.5774,-2.5644,-2.5568,-2.5436,-2.5748,-2.5811,-2.5614,-2.5266,-2.4801,-2.4395,-2.4145,-2.3793,-2.3342,-2.319,-2.3228,-2.2998,-2.2751,-2.2685,-2.2623,-2.2504,-2.2352,-2.2251,-2.2149,-2.2003,-4.145,-4.0893,-4.0631,-4.0496,-4.0496,-4.0496,-4.0496,-4.0496,-4.0496,-4.0496,-4.0496,-4.0496,-4.0496,-4.0496,-4.0496,-4.0496,-4.0496,-4.0496,-4.0496,-4.0285,-3.8777,-3.82,-3.7488,-3.6462,-3.5519,-3.55,-3.55,-3.55,-3.55,-3.55,-3.55,-3.55,-3.55,-3.55,-3.5442,-3.5064,-3.4622,-3.3757,-3.2949,-3.2122,-3.1308,-3.075,-3.0423,-3.0423,-3.0404,-3.0404,-3.0404,-3.0404,-3.0404,-3.0404,-3.0404,-3.0404,-3.0404,-3.0404,-3.0404,-3.0404,-3.0404,-3.0277,-2.9907,-2.9448,-2.8842,-2.8286,-2.7891,-2.7899,-2.7733,-2.7669,-2.789,-2.8272,-2.8343,-2.8518,-2.8963,-2.8965,-2.9028,-2.902,-2.9024,-2.8989,-2.898,-2.8914,-2.8885,-2.8884,-2.8611,-2.8433,-2.8357,-2.802,-2.7933,-2.7668,-2.7526,-2.7058,-2.6746,-2.6507,-2.6297,-2.618,-2.6091,-2.6107,-2.6182,-2.6429,-2.641,-2.6136,-2.5804,-2.5412,-2.5035,-2.4698,-2.4344,-2.399,-2.3702,-2.3413,-2.3047,-2.2716,-2.2508,-2.238,-2.2268,-2.2166,-2.2077,-2.1974,-2.1857,-4.1027,-4.0516,-4.0496,-4.0496,-4.0496,-4.0496,-4.0496,-4.0496,-4.0496,-4.0496,-4.0496,-4.0496,-4.0496,-4.0496,-4.0496,-4.0496,-4.0496,-4.0496,-4.0496,-4.0265,-3.8777,-3.818,-3.7469,-3.6404,-3.5635,-3.55,-3.55,-3.55,-3.55,-3.55,-3.55,-3.55,-3.55,-3.55,-3.5462,-3.5346,-3.4981,-3.4199,-3.3468,-3.2756,-3.1872,-3.1173,-3.0731,-3.0519,-3.0404,-3.0404,-3.0404,-3.0404,-3.0404,-3.0404,-3.0404,-3.0404,-3.0404,-3.0404,-3.0404,-3.0404,-3.0373,-3.0316,-3.0203,-3.0164,-2.948,-2.8881,-2.8555,-2.8542,-2.8508,-2.8646,-2.8798,-2.9023,-2.909,-2.9307,-2.9653,-2.9726,-2.969,-2.9644,-2.9589,-2.9514,-2.9456,-2.9343,-2.9295,-2.9357,-2.9363,-2.938,-2.9368,-2.9241,-2.891,-2.8579,-2.822,-2.7702,-2.724,-2.7127,-2.7004,-2.6938,-2.6934,-2.7061,-2.7065,-2.7072,-2.6959,-2.6667,-2.6331,-2.6012,-2.5707,-2.538,-2.5005,-2.4652,-2.4358,-2.3926,-2.3154,-2.2722,-2.2446,-2.2228,-2.2077,-2.1974,-2.1884,-2.1812,-2.1723,-4.0516,-4.0496,-4.0496,-4.0496,-4.0496,-4.0496,-4.0496,-4.0496,-4.0496,-4.0496,-4.0496,-4.0496,-4.0496,-4.0496,-4.0496,-4.0496,-4.0496,-4.0496,-4.04,-3.9958,-3.8681,-3.82,-3.7346,-3.6288,-3.5654,-3.55,-3.55,-3.55,-3.55,-3.55,-3.55,-3.55,-3.55,-3.55,-3.55,-3.5404,-3.5077,-3.4584,-3.4064,-3.3314,-3.2449,-3.1737,-3.1212,-3.0827,-3.0519,-3.0423,-3.0404,-3.0404,-3.0404,-3.0404,-3.0404,-3.0404,-3.0404,-3.0404,-3.0404,-3.0373,-3.0336,-3.026,-3.0227,-3.0206,-3.0152,-2.9692,-2.9789,-2.998,-2.9862,-2.9551,-2.9535,-2.9575,-2.9601,-2.9618,-2.9726,-2.969,-2.9673,-2.9617,-2.9579,-2.954,-2.9492,-2.9434,-2.9375,-2.9382,-2.9388,-2.9376,-2.9334,-2.9291,-2.9197,-2.8972,-2.8617,-2.8471,-2.8115,-2.8136,-2.8046,-2.8009,-2.8036,-2.8144,-2.8071,-2.7678,-2.7549,-2.7254,-2.6967,-2.6676,-2.6367,-2.6058,-2.5686,-2.5346,-2.5037,-2.4482,-2.3665,-2.2929,-2.2341,-2.2155,-2.2101,-2.1858,-2.1768,-2.1693,-2.1602,-4.0496,-4.0496,-4.0496,-4.0496,-4.0496,-4.0496,-4.0496,-4.0496,-4.0496,-4.0496,-4.0496,-4.0496,-4.0496,-4.0496,-4.0496,-4.0496,-4.0496,-4.0419,-4.0054,-3.94,-3.8565,-3.7757,-3.6904,-3.6077,-3.5596,-3.55,-3.55,-3.55,-3.55,-3.55,-3.55,-3.55,-3.55,-3.55,-3.55,-3.55,-3.5276,-3.5007,-3.4564,-3.393,-3.3141,-3.241,-3.1814,-3.1269,-3.0712,-3.0558,-3.0404,-3.0404,-3.0404,-3.0404,-3.0404,-3.0404,-3.0404,-3.0367,-3.0329,-3.0318,-3.0267,-3.0208,-3.0187,-3.0145,-3.0101,-3.0076,-3.0011,-2.9953,-2.9945,-2.994,-2.9899,-2.9849,-2.9798,-2.9745,-2.9672,-2.9654,-2.9617,-2.9579,-2.9521,-2.9481,-2.9433,-2.9431,-2.939,-2.9378,-2.9365,-2.9334,-2.9291,-2.9186,-2.9119,-2.904,-2.8947,-2.8822,-2.8731,-2.8657,-2.8582,-2.8505,-2.8432,-2.834,-2.8246,-2.7936,-2.7946,-2.7865,-2.7486,-2.7213,-2.704,-2.673,-2.637,-2.5891,-2.5347,-2.4756,-2.4101,-2.3407,-2.2716,-2.2374,-2.2265,-2.1924,-2.1665,-2.1606,-2.1511,-4.0496,-4.0496,-4.0496,-4.0496,-4.0496,-4.0496,-4.0496,-4.0496,-4.0496,-4.0496,-4.0496,-4.0496,-4.0496,-4.0496,-4.0496,-4.0496,-4.0496,-4.0458,-4.0112,-3.9304,-3.8354,-3.7584,-3.6719,-3.5923,-3.5577,-3.55,-3.55,-3.55,-3.55,-3.55,-3.55,-3.55,-3.55,-3.55,-3.55,-3.55,-3.55,-3.5288,-3.5007,-3.4564,-3.3891,-3.316,-3.2564,-3.1737,-3.1121,-3.0808,-3.0442,-3.0423,-3.0404,-3.0404,-3.0404,-3.0379,-3.0367,-3.0323,-3.0286,-3.0273,-3.024,-3.0187,-3.0145,-3.0087,-3.0042,-2.9996,-2.994,-2.9864,-2.9839,-2.9841,-2.9815,-2.9753,-2.9727,-2.9682,-2.9636,-2.9589,-2.9569,-2.9521,-2.9453,-2.9402,-2.9401,-2.9399,-2.9368,-2.9355,-2.9323,-2.9262,-2.9207,-2.91,-2.901,-2.894,-2.8834,-2.8724,-2.865,-2.8582,-2.8492,-2.8419,-2.8327,-2.825,-2.8168,-2.8085,-2.7954,-2.7853,-2.7663,-2.7475,-2.7496,-2.7251,-2.6764,-2.615,-2.5505,-2.5009,-2.4579,-2.3867,-2.3208,-2.2946,-2.2603,-2.2246,-2.1905,-2.1581,-2.147,-4.0496,-4.0496,-4.0496,-4.0496,-4.0496,-4.0496,-4.0496,-4.0496,-4.0496,-4.0496,-4.0496,-4.0496,-4.0496,-4.0496,-4.0496,-4.0496,-4.0419,-4.0323,-3.9746,-3.915,-3.8123,-3.7238,-3.6442,-3.5885,-3.5558,-3.55,-3.55,-3.55,-3.55,-3.55,-3.55,-3.55,-3.55,-3.55,-3.55,-3.55,-3.55,-3.5442,-3.5327,-3.5064,-3.4526,-3.4026,-3.3506,-3.2275,-3.1718,-3.1352,-3.0731,-3.0481,-3.0404,-3.0398,-3.0379,-3.0348,-3.0311,-3.028,-3.026,-3.0219,-3.0185,-3.0142,-3.0079,-3.0,-2.9945,-2.9916,-2.9874,-2.9815,-2.9799,-2.978,-2.9744,-2.97,-2.9673,-2.9636,-2.9598,-2.9531,-2.9482,-2.9453,-2.9412,-2.9401,-2.938,-2.9378,-2.9355,-2.9323,-2.9269,-2.9207,-2.913,-2.9021,-2.8917,-2.8846,-2.8761,-2.8637,-2.8536,-2.8497,-2.8419,-2.8313,-2.825,-2.8168,-2.8056,-2.7971,-2.7821,-2.7719,-2.7615,-2.7494,-2.7355,-2.7246,-2.7151,-2.6451,-2.5765,-2.548,-2.5044,-2.438,-2.3867,-2.3636,-2.3242,-2.267,-2.2248,-2.194,-2.1456,-4.0496,-4.0496,-4.0496,-4.0496,-4.0496,-4.0496,-4.0496,-4.0496,-4.0496,-4.0496,-4.0496,-4.0496,-4.0496,-4.0496,-4.0496,-4.0496,-4.0419,-3.9938,-3.9111,-3.8334,-3.7507,-3.6776,-3.5981,-3.5654,-3.55,-3.55,-3.55,-3.55,-3.55,-3.55,-3.55,-3.55,-3.55,-3.55,-3.55,-3.55,-3.5474,-3.5474,-3.5429,-3.5397,-3.5089,-3.4507,-3.3853,-3.3141,-3.2699,-3.1827,-3.1205,-3.0744,-3.0521,-3.0342,-3.0316,-3.0286,-3.0228,-3.0233,-3.0199,-3.0157,-3.014,-3.0068,-2.9996,-2.9929,-2.9899,-2.9832,-2.978,-2.9746,-2.9728,-2.9727,-2.9709,-2.9655,-2.9617,-2.9588,-2.9549,-2.9463,-2.9423,-2.9402,-2.9401,-2.938,-2.9378,-2.9365,-2.9323,-2.9269,-2.9215,-2.913,-2.9051,-2.8929,-2.8834,-2.8749,-2.8675,-2.8562,-2.8424,-2.8327,-2.8273,-2.8191,-2.8168,-2.8102,-2.7989,-2.7856,-2.7719,-2.7569,-2.7448,-2.734,-2.7214,-2.6989,-2.6808,-2.6539,-2.6095,-2.5789,-2.5435,-2.4999,-2.4566,-2.4315,-2.3821,-2.3249,-2.2968,-2.2692,-2.1935,-4.0496,-4.0496,-4.0496,-4.0496,-4.0496,-4.0496,-4.0496,-4.0496,-4.0496,-4.0496,-4.0496,-4.0496,-4.0496,-4.0496,-4.0496,-4.0458,-4.0323,-3.9669,-3.89,-3.7988,-3.7046,-3.6308,-3.5788,-3.55,-3.55,-3.55,-3.55,-3.55,-3.55,-3.55,-3.55,-3.55,-3.55,-3.5481,-3.5493,-3.5467,-3.546,-3.5453,-3.5427,-3.542,-3.5427,-3.4979,-3.4455,-3.3936,-3.3327,-3.2462,-3.1629,-3.1104,-3.0772,-3.0433,-3.0267,-3.0254,-3.02,-3.0166,-3.0142,-3.0098,-3.0053,-2.9972,-2.9905,-2.9855,-2.9832,-2.9763,-2.9728,-2.971,-2.9636,-2.9636,-2.9608,-2.956,-2.9521,-2.9481,-2.9471,-2.9402,-2.9401,-2.938,-2.9388,-2.9396,-2.9336,-2.9283,-2.924,-2.9175,-2.9119,-2.9051,-2.894,-2.881,-2.8694,-2.8619,-2.8562,-2.8453,-2.8313,-2.8196,-2.8126,-2.8053,-2.8028,-2.7954,-2.7821,-2.7704,-2.76,-2.7448,-2.7293,-2.7117,-2.6956,-2.6691,-2.6435,-2.6243,-2.6118,-2.5979,-2.5622,-2.5285,-2.5173,-2.495,-2.4392,-2.3788,-2.3603,-2.3383,-2.2674,-4.0496,-4.0496,-4.0496,-4.0496,-4.0496,-4.0496,-4.0496,-4.0496,-4.0496,-4.0496,-4.0496,-4.0496,-4.0496,-4.0496,-4.0496,-4.0419,-4.0054,-3.9246,-3.8527,-3.77,-3.6827,-3.6115,-3.5692,-3.55,-3.55,-3.55,-3.55,-3.55,-3.55,-3.5474,-3.5467,-3.5493,-3.5474,-3.5467,-3.546,-3.542,-3.5379,-3.5372,-3.5357,-3.5323,-3.5357,-3.5393,-3.4939,-3.451,-3.4023,-3.3254,-3.2255,-3.1513,-3.1129,-3.0604,-3.0221,-3.018,-3.0157,-3.0094,-3.0083,-3.003,-2.994,-2.9891,-2.9849,-2.9798,-2.9745,-2.97,-2.9692,-2.9645,-2.9569,-2.954,-2.9492,-2.9463,-2.9423,-2.9402,-2.9392,-2.939,-2.9388,-2.9378,-2.9386,-2.9365,-2.9283,-2.9218,-2.9152,-2.9096,-2.9028,-2.8959,-2.8822,-2.8669,-2.8587,-2.8523,-2.8414,-2.8309,-2.8201,-2.8081,-2.8,-2.7929,-2.7871,-2.778,-2.7686,-2.7567,-2.743,-2.7307,-2.7133,-2.694,-2.6725,-2.6504,-2.6278,-2.6082,-2.5972,-2.5883,-2.5791,-2.5501,-2.5451,-2.5354,-2.4922,-2.4351,-2.4228,-2.396,-2.3388,-4.0496,-4.0496,-4.0496,-4.0496,-4.0496,-4.0496,-4.0496,-4.0496,-4.0496,-4.0496,-4.0496,-4.0496,-4.0496,-4.0496,-4.0496,-4.0265,-3.9592,-3.8796,-3.7834,-3.6904,-3.6269,-3.5788,-3.5558,-3.55,-3.55,-3.55,-3.55,-3.55,-3.5467,-3.5446,-3.5432,-3.5439,-3.5364,-3.5357,-3.5357,-3.5323,-3.5342,-3.5308,-3.53,-3.5285,-3.5293,-3.5296,-3.5285,-3.4882,-3.4429,-3.3578,-3.2701,-3.1928,-3.1128,-3.0501,-3.0178,-3.0116,-3.0064,-3.0019,-2.9972,-2.9951,-2.9857,-2.9816,-2.9764,-2.9719,-2.9673,-2.9589,-2.9569,-2.9531,-2.9472,-2.9443,-2.9423,-2.944,-2.9409,-2.939,-2.938,-2.9388,-2.9386,-2.9365,-2.9355,-2.9272,-2.9218,-2.9112,-2.9021,-2.8964,-2.8912,-2.8798,-2.8675,-2.8562,-2.8471,-2.838,-2.8259,-2.8164,-2.8091,-2.7982,-2.7871,-2.7798,-2.7724,-2.7662,-2.76,-2.7415,-2.726,-2.7133,-2.6972,-2.6725,-2.6504,-2.6329,-2.6133,-2.5972,-2.5846,-2.5772,-2.5663,-2.5551,-2.5457,-2.5326,-2.5192,-2.492,-2.4782,-2.453,-2.3973]},{"header":{"parameterUnit":"m.s-1","parameterCategory":1,"la1":31.0,"la2":29.5877,"lo1":-88.7671,"lo2":-86.6584,"dy":0.0162,"dx":0.0185,"nx":115,"ny":88,"refTime":"2024-06-02T06:00:00:Z","depth":0,"parameterNumber":3,"parameterNumberName":"V-component_of_WINDS"},"data":[0.0,0.0,0.0,0.0,0.0,0.0,0.0,0.0,0.0,0.0,0.0,0.0,0.0,0.0,0.0,0.0,0.0,0.0,0.0,0.0,0.0,0.0,0.0,0.0,0.0,0.0,0.0,0.0,0.0,0.0,0.0,0.0,0.0,0.0,0.0,0.0,0.0,0.0,0.0,0.0,0.0,0.0,0.0,0.0,0.0,0.0,0.0,0.0,0.0,0.0,0.0,0.0,0.0,0.0,0.0,0.0,0.0,0.0,0.0,0.0,0.0,0.0,0.0,0.0,0.0,0.0,0.0,0.0,0.0,0.0,0.0,0.0,0.0,0.0,0.0,0.0,0.0,0.0,0.0,0.0,0.0,0.0,0.0,0.0,0.0,0.0,0.0,0.0,0.0,0.0,0.0,0.0,0.0,0.0,0.0,0.0,0.0,0.0,0.0,0.0,0.0,0.0,0.0,0.0,0.0,0.0,0.0,0.0,0.0,0.0,0.0,0.0,0.0,0.0,0.0,0.0,0.0,0.0,0.0,0.0,0.0,0.0,0.0,0.0,0.0,0.0,0.0,0.0,0.0,0.0,0.0,0.0,0.0,0.0,0.0,0.0,0.0,0.0,0.0,0.0,0.0,0.0,0.0,0.0,0.0,0.0,0.0,0.0,0.0,0.0,0.0,0.0,0.0,0.0,0.0,0.0,0.0,0.0,0.0,0.0,0.0,0.0,0.0,0.0,0.0,0.0,0.0,0.0,0.0,0.0,0.0,0.0,0.0,0.0,0.0,0.0,0.0,0.0,0.0,0.0,0.0,0.0,0.0,0.0,0.0,0.0,0.0,0.0,0.0,0.0,0.0,0.0,0.0,0.0,0.0,0.0,0.0,0.0,0.0,0.0,0.0,0.0,0.0,0.0,0.0,0.0,0.0,0.0,0.0,0.0,0.0,0.0,0.0,0.0,0.0,0.0,0.0,0.0,0.0,0.0,0.0,0.0,0.0,0.0,0.0,0.0,0.0,0.0,0.0,0.0,0.0,0.0,0.0,0.0,0.0,0.0,0.0,0.0,0.0,0.0,0.0,0.0,0.0,0.0,0.0,0.0,0.0,0.0,0.0,0.0,0.0,0.0,0.0,0.0,0.0,0.0,0.0,0.0,0.0,0.0,0.0,0.0,0.0,0.0,0.0,0.0,0.0,0.0,0.0,0.0,0.0,0.0,0.0,0.0,0.0,0.0,0.0,0.0,0.0,0.0,0.0,0.0,0.0,0.0,0.0,0.0,0.0,0.0,0.0,0.0,0.0,0.0,0.0,0.0,0.0,0.0,0.0,0.0,0.0,0.0,0.0,0.0,0.0,0.0,0.0,0.0,0.0,0.0,0.0,0.0,0.0,0.0,0.0,0.0,0.0,0.0,0.0,0.0,0.0,0.0,0.0,0.0,0.0,0.0,0.0,0.0,0.0,0.0,0.0,0.0,0.0,0.0,0.0,0.0,0.0,0.0,0.0,0.0,0.0,0.0,0.0,0.0,0.0,0.0,0.0,0.0,0.0,0.0,0.0,0.0,0.0,0.0,0.0,0.0,0.0,0.0,0.0,0.0,0.0,0.0,0.0,0.0,0.0,0.0,0.0,0.0,0.0,0.0,0.0,0.0,0.0,0.0,0.0,0.0,0.0,0.0,0.0,0.0,0.0,0.0,0.0,0.0,0.0,0.0,0.0,0.0,0.0,0.0,0.0,0.0,0.0,0.0,0.0,0.0,0.0,0.0,0.0,0.0,0.0,0.0,0.0,0.0,0.0,0.0,0.0,0.0,0.0,0.0,0.0,0.0,0.0,0.0,0.0,0.0,0.0,0.0,0.0,0.0,0.0,0.0,0.0,0.0,0.0,0.0,0.0,0.0,0.0,0.0,0.0,0.0,0.0,0.0,0.0,0.0,0.0,0.0,0.0,0.0,0.0,0.0,0.0,0.0,0.0,0.0,0.0,0.0,0.0,0.0,0.0,0.0,0.0,0.0,0.0,0.0,0.0,0.0,0.0,0.0,0.0,0.0,0.0,0.0,0.0,0.0,0.0,0.0,0.0,0.0,0.0,0.0,0.0,0.0,0.0,0.0,0.0,0.0,0.0,0.0,0.0,0.0,0.0,0.0,0.0,0.0,0.0,0.0,0.0,0.0,0.0,0.0,0.0,0.0,0.0,0.0,0.0,0.0,0.0,0.0,0.0,0.0,0.0,0.0,0.0,0.0,0.0,0.0,0.0,0.0,0.0,0.0,0.0,0.0,0.0,0.0,0.0,0.0,0.0,0.0,0.0,0.0,0.0,0.0,0.0,0.0,0.0,0.0,0.0,0.0,0.0,0.0,0.0,0.0,0.0,0.0,0.0,0.0,0.0,0.0,0.0,0.0,0.0,0.0,0.0,0.0,0.0,0.0,0.0,0.0,0.0,0.0,0.0,0.0,0.0,0.0,0.0,0.0,0.0,0.0,0.0,0.0,0.0,0.0,0.0,0.0,0.0,0.0,0.0,0.0,0.0,0.0,0.0,0.0,0.0,0.0,0.0,0.0,0.0,0.0,0.0,0.0,0.0,0.0,0.0,0.0,0.0,0.0,0.0,0.0,0.0,0.0,0.0,0.0,0.0,0.0,0.0,0.0,0.0,0.0,0.0,0.0,0.0,0.0,0.0,0.0,0.0,0.0,0.0,0.0,0.0,0.0,0.0,0.0,0.0,0.0,0.0,0.0,0.0,0.0,0.0,0.0,0.0,0.0,0.0,0.0,0.0,0.0,0.0,0.0,0.0,0.0,0.0,0.0,0.0,0.0,0.0,0.0,0.0,0.0,0.0,0.0,0.0,0.0,0.0,0.0,0.0,0.0,0.0,0.0,0.0,0.0,0.0,0.0,0.0,0.0,0.0,0.0,0.0,0.0,0.0,0.0,0.0,0.0,0.0,0.0,0.0,0.0,0.0,0.0,0.0,0.0,0.0,0.0,0.0,0.0,0.0,0.0,0.0,0.0,0.0,0.0,0.0,0.0,0.0,0.0,0.0,0.0,0.0,0.0,0.0,0.0,0.0,0.0,0.0,0.0,0.0,0.0,0.0,0.0,0.0,0.0,0.0,0.0,0.0,0.0,0.0,0.0,0.0,0.0,0.0,0.0,0.0,0.0,0.0,0.0,0.0,0.0,0.0,0.0,0.0,0.0,0.0,0.0,0.0,0.0,0.0,0.0,0.0,0.0,0.0,0.0,0.0,0.0,0.0,0.0,0.0,0.0,0.0,0.0,0.0,0.0,0.0,0.0,0.0,0.0,0.0,0.0,0.0,0.0,0.0,0.0,0.0,0.0,0.0,0.0,0.0,0.0,0.0,0.0,0.0,0.0,0.0,0.0,0.0,0.0,0.0,0.0,0.0,0.0,0.0,0.0,0.0,0.0,0.0,0.0,0.0,0.0,0.0,0.0,0.0,0.0,0.0,0.0,0.0,0.0,0.0,0.0,0.0,0.0,0.0,0.0,0.0,0.0,0.0,0.0,0.0,0.0,0.0,0.0,0.0,0.0,0.0,0.0,0.0,0.0,0.0,0.0,0.0,0.0,0.0,0.0,0.0,0.0,0.0,0.0,0.0,0.0,0.0,0.0,0.0,0.0,0.0,0.0,0.0,0.0,0.0,0.0,0.0,0.0,0.0,0.0,0.0,0.0,0.0,0.0,0.0,0.0,0.0,0.0,0.0,0.0,0.0,0.0,0.0,0.0,0.0,0.0,0.0,0.0,0.0,0.0,0.0,0.0,0.0,0.0,0.0,0.0,0.0,0.0,0.0,0.0,0.0,0.0,0.0,0.0,0.0,0.0,0.0,0.0,0.0,0.0,0.0,0.0,0.0,0.0,0.0,0.0,0.0,0.0,0.0,0.0,0.0,0.0,0.0,0.0,0.0,0.0,0.0,0.0,0.0,0.0,0.0,0.0,0.0,0.0,0.0,0.0,0.0,0.0,0.0,0.0,0.0,0.0,0.0,0.0,0.0,0.0,0.0,0.0,0.0,0.0,0.0,0.0,0.0,0.0,0.0,0.0,0.0,0.0,0.0,0.0,0.0,0.0,0.0,0.0,0.0,0.0,0.0,0.0,0.0,0.0,0.0,0.0,0.0,0.0,0.0,0.0,0.0,0.0,0.0,0.0,0.0,0.0,0.0,0.0,0.0,0.0,0.0,0.0,0.0,0.0,0.0,0.0,0.0,0.0,0.0,0.0,0.0,0.0,0.0,0.0,0.0,0.0,0.0,0.0,0.0,0.0,0.4872,0.0,0.0,0.0,0.0,0.0,0.0,0.0,0.0,0.0,0.0,0.0,0.0,0.0,0.0,0.0,0.0,0.0,0.0,0.0,0.0,0.0,0.0,0.0,0.0,0.0,0.0,0.0,0.0,0.0,0.0,0.0,0.0,0.0,0.0,0.0,0.0,0.0,0.0,0.0,0.0,0.0,0.0,0.0,0.0,0.0,0.0,0.0,0.0,0.0,0.0,0.0,0.0,0.0,0.0,0.0,0.0,0.0,0.0,0.0,0.0,0.0,0.0,0.0,0.0,0.0,0.0,0.0,0.0,0.0,0.0,0.0,0.0,0.0,0.0,0.0,0.0,0.0,0.0,0.0,0.0,0.0,0.0,0.0,0.0,0.0,0.0,0.0,0.0,0.0,0.0,0.0,0.0,0.0,0.0,0.0,0.0,0.0,0.0,0.0,0.0,0.0,0.0,0.0,0.0,0.0,0.0,0.0,0.0,0.0,0.0,0.5061,0.5269,0.538,0.538,0.5249,0.0,0.0,0.0,0.0,0.0,0.0,0.0,0.0,0.0,0.0,0.0,0.0,0.0,0.0,0.0,0.0,0.0,0.0,0.0,0.0,0.0,0.0,0.0,0.0,0.0,0.0,0.0,0.0,0.0,0.0,0.0,0.0,0.0,0.0,0.0,0.0,0.0,0.0,0.0,0.0,0.0,0.0,0.0,0.0,0.0,0.0,0.0,0.0,0.0,0.0,0.0,0.0,0.0,0.0,0.0,0.0,0.0,0.0,0.0,0.0,0.0,0.0,0.0,0.0,0.0,0.0,0.0,0.0,0.0,0.0,0.0,0.0,0.0,0.0,0.0,0.0,0.0,0.0,0.0,0.0,0.0,0.0,0.0,0.0,0.0,0.0,0.0,0.0,0.0,0.0,0.0,0.0,0.0,0.0,0.0,0.0,0.0,0.0,0.0,0.0,0.0,0.0,0.0,0.0,0.0,0.0,0.0,0.0,0.0,0.0,0.0,0.0,0.5479,0.5477,0.5431,0.0,0.0,0.0,0.0,0.0,0.0,0.0,0.0,0.0,0.0,0.0,0.0,0.0,0.0,0.0,0.0,0.0,0.0,0.0,0.0,0.0,0.0,0.0,0.0,0.0,0.0,0.0,0.0,0.0,0.0,0.0,0.0,0.0,0.0,0.0,0.0,0.0,0.0,0.0,0.0,0.0,0.0,0.0,0.0,0.0,0.0,0.0,0.0,0.0,0.0,0.0,0.0,0.0,0.0,0.0,0.0,0.0,0.0,0.0,0.0,0.0,0.0,0.0,0.0,0.0,0.0,0.0,0.0,0.0,0.0,0.0,0.0,0.0,0.0,0.0,0.0,0.0,0.0,0.0,0.0,0.0,0.0,0.0,0.0,0.0,0.0,0.0,0.0,0.0,0.0,0.0,0.0,0.0,0.0,0.0,0.0,0.0,0.0,0.0,0.0,0.0,0.0,0.0,0.0,0.0,0.0,0.0,0.0,0.0,0.0,0.5039,0.5147,0.5363,0.0,0.4974,0.0,0.0,0.0,0.0,0.0,0.0,0.0,0.0,0.0,0.0,0.0,0.0,0.0,0.0,0.0,0.0,0.0,0.0,0.0,0.0,0.0,0.0,0.0,0.0,0.0,0.0,0.0,0.0,0.0,0.0,0.0,0.0,0.0,0.0,0.0,0.0,0.0,0.0,0.0,0.0,0.0,0.0,0.0,0.0,0.0,0.0,0.0,0.0,0.0,0.0,0.0,0.0,0.0,0.0,0.0,0.0,0.0,0.0,0.0,0.0,0.0,0.0,0.0,0.0,0.0,0.0,0.0,0.0,0.0,0.0,0.0,0.0,0.0,0.0,0.0,0.0,0.0,0.0,0.0,0.0,0.0,0.0,0.0,0.0,0.0,0.0,0.0,0.0,0.0,0.0,0.0,0.0,0.0,0.0,0.0,0.0,0.0,0.0,0.0,0.0,0.0,0.0,0.0,0.0,0.0,0.0,0.0,0.0,0.0,0.0,0.4902,0.4934,0.5137,0.5058,0.0,0.0,0.0,0.0,0.0,0.0,0.0,0.0,0.0,0.0,0.0,0.0,0.0,0.0,0.0,0.0,0.0,0.0,0.0,0.0,0.0,0.0,0.0,0.0,0.0,0.0,0.0,0.0,0.0,0.0,0.0,0.0,0.0,0.0,0.0,0.0,0.0,0.0,0.0,0.0,0.0,0.0,0.0,0.0,0.0,0.0,0.0,0.0,0.0,0.0,0.0,0.0,0.0,0.0,0.0,0.0,0.0,0.0,0.0,0.0,0.0,0.0,0.0,0.0,0.0,0.0,0.0,0.0,0.0,0.0,0.0,0.0,0.0,0.0,0.0,0.0,0.0,0.0,0.0,0.0,0.0,0.0,0.0,0.0,0.0,0.0,0.0,0.0,0.0,0.0,0.0,0.0,0.0,0.0,0.0,0.0,0.0,0.0,0.0,0.0,0.0,0.0,0.0,0.0,0.0,0.0,0.0,0.0,0.0,0.0,0.4565,0.4726,0.4796,0.4944,0.481,0.4409,0.0,0.0,0.0,0.0,0.0,0.0,0.0,0.0,0.0,0.0,0.0,0.0,0.0,0.0,0.0,0.0,0.0,0.0,0.0,0.0,0.0,0.0,0.0,0.0,0.0,0.0,0.0,0.0,0.0,0.0,0.0,0.0,0.0,0.0,0.0,0.0,0.0,0.0,0.0,0.0,0.0,0.0,0.0,0.0,0.0,0.0,0.0,0.0,0.0,0.0,0.0,0.0,0.0,0.0,0.0,0.0,0.0,0.0,0.0,0.0,0.0,0.0,0.0,0.0,0.0,0.0,0.0,0.0,0.0,0.0,0.0,0.0,0.0,0.0,0.0,0.0,0.0,0.0,0.0,0.0,0.0,0.0,0.0,0.0,0.0,0.0,0.0,0.0,0.0,0.0,0.0,0.0,0.0,0.0,0.0,0.0,0.0,0.0,0.0,0.0,0.0,0.0,0.0,0.0,0.0,0.0,0.0,0.0,0.4112,0.4307,0.4533,0.478,0.4822,0.4603,0.0,0.0,0.0,0.0,0.0,0.0,0.0,0.0,0.0,0.0,0.0,0.0,0.0,0.0,0.0,0.0,0.0,0.0,0.0,0.0,0.0,0.0,0.0,0.0,0.0,0.0,0.0,0.0,0.0,0.0,0.0,0.0,0.0,0.0,0.0,0.0,0.0,0.0,0.0,0.0,0.0,0.0,0.0,0.0,0.0,0.0,0.0,0.0,0.0,0.0,0.0,0.0,0.0,0.0,0.0,0.0,0.0,0.0,0.0,0.0,0.0,0.0,0.0,0.0,0.0,0.0,0.0,0.0,0.0,0.0,0.0,0.0,0.0,0.0,0.0,0.0,0.0,0.0,0.0,0.0,0.0,0.0,0.0,0.0,0.0,0.0,0.0,0.0,0.0,0.0,0.0,0.0,0.0,0.0,0.0,0.0,0.0,0.0,0.0,0.0,0.0,0.0,0.0,0.0,0.0,0.0,0.0,0.0,0.0,0.3868,0.4172,0.4404,0.4533,0.4587,0.4374,0.0,0.0,0.0,0.0,0.0,0.0,0.0,0.0,0.0,0.0,0.0,0.0,0.0,0.0,0.0,0.0,0.0,0.0,0.0,0.0,0.0,0.0,0.0,0.0,0.0,0.0,0.0,0.0,0.0,0.0,0.0,0.0,0.0,0.0,0.0,0.0,0.0,0.0,0.0,0.0,0.0,0.0,0.0,0.0,0.0,0.0,0.0,0.0,0.0,0.0,0.0,0.0,0.0,0.0,0.0,0.0,0.0,0.0,0.0,0.0,0.0,0.0,0.0,0.0,0.0,0.0,0.0,0.0,0.0,0.0,0.0,0.0,0.0,0.0,0.0,0.0,0.0,0.0,0.0,0.0,0.0,0.0,0.0,0.0,0.0,0.0,0.0,0.0,0.0,0.0,0.0,0.0,0.0,0.0,0.0,0.0,0.0,0.0,0.0,0.0,0.0,0.0,0.0,0.0,0.0,0.0,0.0,0.0,0.0,0.3754,0.0,0.4231,0.0,0.4404,0.4255,0.0,0.0,0.0,0.0,0.0,0.0,0.0,0.0,0.0,0.0,0.0,0.0,0.0,0.0,0.0,0.0,0.0,0.0,0.0,0.0,0.0,0.0,0.0,0.0,0.0,0.0,0.0,0.0,0.0,0.0,0.0,0.0,0.0,0.0,0.0,0.0,0.0,0.0,0.0,0.0,0.0,0.0,0.0,0.0,0.0,0.0,0.0,0.0,0.0,0.0,0.0,0.0,0.0,0.0,0.0,0.0,0.0,0.0,0.0,0.0,0.0,0.0,0.0,0.0,0.0,0.0,0.0,0.0,0.0,0.0,0.0,0.0,0.0,0.0,0.0,0.0,0.0,0.0,0.0,0.0,0.0,0.0,0.0,0.0,0.0,0.0,0.0,0.0,0.0,0.0,0.0,0.0,0.0,0.0,0.0,0.0,0.0,0.0,0.0,0.0,0.0,0.0,0.0,0.0,0.0,0.0,0.0,0.0,0.3422,0.3853,0.3886,0.4021,0.428,0.428,0.4203,0.0,0.0,0.0,0.0,0.0,0.0,0.0,0.0,0.0,0.0,0.0,0.0,0.0,0.0,0.0,0.0,0.0,0.0,0.0,0.0,0.0,0.0,0.0,0.0,0.0,0.0,0.0,0.0,0.0,0.0,0.0,0.0,0.0,0.0,0.0,0.0,0.0,0.0,0.0,0.0,0.0,0.0,0.0,0.0,0.0,0.0,0.0,0.0,0.0,0.0,0.0,0.0,0.0,0.0,0.0,0.0,0.0,0.0,0.0,0.0,0.0,0.0,0.0,0.0,0.0,0.0,0.0,0.0,0.0,0.0,0.0,0.0,0.0,0.0,0.0,0.0,0.0,0.0,0.0,0.0,0.0,0.0,0.0,0.0,0.0,0.0,0.0,0.0,0.0,0.0,0.0,0.0,0.0,0.0,0.0,0.0,0.0,0.0,0.0,0.0,0.0,0.0,0.0,0.0,0.0,0.0,0.0,0.0,0.0,0.3405,0.3548,0.3712,0.388,0.3972,0.3998,0.0,0.0,0.0,0.0,0.0,0.0,0.0,0.0,0.0,0.0,0.0,0.0,0.0,0.0,0.0,0.0,0.0,0.0,0.0,0.0,0.0,0.0,0.0,0.0,0.0,0.0,0.0,0.0,0.0,0.0,0.0,0.0,0.0,0.0,0.0,0.0,0.0,0.0,0.0,0.0,0.0,0.0,0.0,0.0,0.0,0.0,0.0,0.0,0.0,0.0,0.0,0.0,0.0,0.0,0.0,0.0,0.0,0.0,0.0,0.0,0.0,0.0,0.0,0.0,0.0,0.0,0.0,0.0,0.0,0.0,0.0,0.0,0.0,0.0,0.0,0.0,0.0,0.0,0.0,0.0,0.0,0.0,0.0,0.0,0.0,0.0,0.0,0.0,0.0,0.0,0.0,0.0,0.0,0.0,0.0,0.0,0.0,0.0,0.0,0.0,0.0,0.0,0.0,0.0,0.0,0.0,0.0,0.0,0.0,0.3119,0.3322,0.3509,0.3687,0.3796,0.3883,0.393,0.0,0.0,0.0,0.0,0.0,0.0,0.0,0.0,0.0,0.0,0.0,0.0,0.0,0.0,0.0,0.0,0.0,0.0,0.0,0.0,0.0,0.0,0.0,0.0,0.0,0.0,0.0,0.0,0.0,0.0,0.0,0.0,0.0,0.0,0.0,0.0,0.0,0.0,0.0,0.0,0.0,0.0,0.0,0.0,0.0,0.0,0.0,0.0,0.0,0.0,0.0,0.0,0.0,0.0,0.0,0.0,0.0,0.0,0.0,0.0,0.0,0.0,0.0,0.0,0.0,0.0,0.0,0.0,0.0,0.0,0.0,0.0,0.0,0.0,0.0,0.0,0.0,0.0,0.0,0.0,0.0,0.0,0.0,0.0,0.0,0.0,0.0,0.0,0.0,0.0,0.0,0.0,0.0,0.0,0.0,0.0,0.0,0.0,0.0,0.0,0.0,0.0,0.0,0.0,0.0,0.0,0.0,0.0,0.2989,0.318,0.3414,0.3689,0.373,0.3834,0.0,0.0,0.0,0.0,0.0,0.0,0.0,0.0,0.0,0.0,0.0,0.0,0.0,0.0,0.0,0.0,0.0,0.0,0.0,0.0,0.0,0.0,0.0,0.0,0.0,0.0,0.0,0.0,0.0,0.0,0.0,0.0,0.0,0.0,0.0,0.0,0.0,0.0,0.0,0.0,0.0,0.0,0.0,0.0,0.0,0.0,0.0,0.0,0.0,0.0,0.0,0.0,0.0,0.0,0.0,0.0,0.0,0.0,0.0,0.0,0.0,0.0,0.0,0.0,0.0,0.0,0.0,0.0,0.0,0.0,0.0,0.0,0.0,0.0,0.0,0.0,0.0,0.0,0.0,0.0,0.0,0.0,0.0,0.0,0.0,0.0,0.0,0.0,0.0,0.0,0.0,0.0,0.0,0.0,0.0,0.0,0.0,0.0,0.0,0.0,0.0,0.0,0.0,0.0,0.0,0.0,0.0,0.0,0.0,0.2986,0.3055,0.3244,0.3532,0.3531,0.3619,0.0,0.0,0.0,0.0,0.0,0.0,0.0,0.0,0.0,0.0,0.0,0.0,0.0,0.0,0.0,0.0,0.0,0.0,0.0,0.0,0.0,0.0,0.0,0.0,0.0,0.0,0.0,0.0,0.0,0.0,0.0,0.0,0.0,0.0,0.0,0.0,0.0,0.0,0.0,0.0,0.0,0.0,0.0,0.0,0.0,0.0,0.0,0.0,0.0,0.0,0.0,0.0,0.0,0.0,0.0,0.0,0.0,0.0,0.0,0.0,0.0,0.0,0.0,0.0,0.0,0.0,0.0,0.0,0.0,0.0,0.0,0.0,0.0,0.0,0.0,0.0,0.0,0.0,0.0,0.0,0.0,0.0,0.0,0.0,0.0,0.0,0.0,0.0,0.0,0.0,0.0,0.0,0.0,0.0,0.0,0.0,0.0,0.0,0.0,0.0,0.0,0.0,0.0,0.0,0.0,0.0,0.0,0.0,0.2603,0.2831,0.291,0.3089,0.3378,0.3387,0.3522,0.0,0.0,0.0,0.0,0.0,0.0,0.0,0.0,0.0,0.0,0.0,0.0,0.0,0.0,0.0,0.0,0.0,0.0,0.0,0.0,0.0,0.0,0.0,0.0,0.0,0.0,0.0,0.0,0.0,0.0,0.0,0.0,0.0,0.0,0.0,0.0,0.0,0.0,0.0,0.0,0.0,0.0,0.0,0.0,0.0,0.0,0.0,0.0,0.0,0.0,0.0,0.0,0.0,0.0,0.0,0.0,0.0,0.0,0.0,0.0,0.0,0.0,0.0,0.0,0.0,0.0,0.0,0.0,0.0,0.0,0.0,0.0,0.0,0.0,0.0,0.0,0.0,0.0,0.0,0.0,0.0,0.0,0.0,0.0,0.0,0.0,0.0,0.0,0.0,0.0,0.0,0.0,0.0,0.0,0.0,0.0,0.0,0.0,0.0,0.0,0.0,0.0,0.0,0.0,0.0,0.0,0.0,0.0,0.2359,0.2552,0.2739,0.2948,0.3143,0.3308,0.3497,0.0,0.0,0.0,0.0,0.0,0.0,0.0,0.0,0.0,0.0,0.0,0.0,0.0,0.0,0.0,0.0,0.0,0.0,0.0,0.0,0.0,0.0,0.0,0.0,0.0,0.0,0.0,0.0,0.0,0.0,0.0,0.0,0.0,0.0,0.0,0.0,0.0,0.0,0.0,0.0,0.0,0.0,0.0,0.0,0.0,0.0,0.0,0.0,0.0,0.0,0.0,0.0,0.0,0.0,0.0,0.0,0.0,0.0,0.0,0.0,0.0,0.0,0.0,0.0,0.0,0.0,0.0,0.0,0.0,0.0,0.0,0.0,0.0,0.0,0.0,0.0,0.0,0.0,0.0,0.0,0.0,0.0,0.0,0.0,0.0,0.0,0.0,0.0,0.0,0.0,0.0,0.0,0.0,0.0,0.0,0.0,0.0,0.0,0.0,0.0,0.0,0.0,0.0,0.0,0.0,0.0,0.0,0.0,0.2128,0.2288,0.2476,0.2677,0.2887,0.3166,0.3404,0.0,0.0,0.0,0.0,0.0,0.0,0.0,0.0,0.0,0.0,0.0,0.0,0.0,0.0,0.0,0.0,0.0,0.0,0.0,0.0,0.0,0.0,0.0,0.0,0.0,0.0,0.0,0.0,0.0,0.0,0.0,0.0,0.0,0.0,0.0,0.0,0.0,0.0,0.0,0.0,0.0,0.0,0.0,0.0,0.0,0.0,0.0,0.0,0.6416,0.0,0.0,0.0,0.0,0.0,0.0,0.0,0.0,0.0,0.0,0.0,0.0,0.0,0.0,0.0,0.0,0.0,0.0,0.0,0.0,0.0,0.0,0.0,0.0,0.0,0.0,0.0,0.0,0.0,0.0,0.0,0.0,0.0,0.0,0.0,0.0,0.0,0.0,0.0,0.0,0.0,0.0,0.0,0.0,0.0,0.0,0.0,0.0,0.0,0.0,0.0,0.0,0.0,0.0,0.0,0.0,0.0,0.0,0.0,0.1846,0.1973,0.2227,0.247,0.2711,0.3052,0.3313,0.0,0.0,0.0,0.0,0.0,0.0,0.0,0.0,0.0,0.0,0.0,0.0,0.0,0.0,0.0,0.0,0.0,0.0,0.0,0.0,0.0,0.0,0.0,0.0,0.0,0.0,0.0,0.0,0.0,0.0,0.0,0.0,0.0,0.0,0.0,0.0,0.0,0.0,0.0,0.0,0.0,0.0,0.0,0.0,0.0,0.0,0.0,0.0,0.0,0.0,0.0,0.0,0.0,0.0,0.0,0.0,0.0,0.0,0.0,0.0,0.0,0.0,0.0,0.0,0.0,0.0,0.0,0.0,0.0,0.0,0.0,0.0,0.0,0.0,0.0,0.0,0.0,0.0,0.0,0.0,0.0,0.0,0.0,0.0,0.0,0.0,0.0,0.0,0.0,0.0,0.0,0.0,0.0,0.0,0.0,0.0,0.0,0.0,0.0,0.0,0.0,0.0,0.0,0.0,0.0,0.0,0.0,0.1254,0.1433,0.1588,0.1919,0.2244,0.2525,0.2923,0.319,0.3276,0.0,0.0,0.0,0.0,0.0,0.0,0.0,0.0,0.0,0.0,0.0,0.0,0.0,0.0,0.0,0.0,0.0,0.0,0.0,0.0,0.0,0.0,0.0,0.0,0.0,0.0,0.0,0.0,0.0,0.0,0.0,0.0,0.0,0.0,0.0,0.0,0.0,0.0,0.3796,0.4532,0.0,0.0,0.0,0.0,0.0,0.0,0.0,0.0,0.7047,0.0,0.0,0.0,0.0,0.0,0.0,0.0,0.0,0.0,0.0,0.0,0.0,0.0,0.0,0.0,0.0,0.0,0.0,0.0,0.0,0.0,0.0,0.0,0.0,0.0,0.0,0.0,0.0,0.0,0.0,0.0,0.0,0.0,0.0,0.0,0.0,0.0,0.0,0.0,0.0,0.0,0.0,0.0,0.0,0.0,0.0,0.0,0.0,0.0,0.0,0.0,0.0,0.0,0.0,0.0,0.0,0.0688,0.0784,0.0919,0.1099,0.1452,0.1789,0.2173,0.2663,0.3017,0.3148,0.0,0.0,0.0,0.0,0.0,0.0,0.0,0.0,0.0,0.0,0.0,0.0,0.0,0.0,0.0,0.0,0.0,0.0,0.0,0.0,0.0,0.0,0.0,0.0,0.0,0.0,0.0,0.0,0.0,0.0,0.0,0.0,0.0,0.0,0.0,0.0,0.0,0.0,0.0,0.4594,0.5014,0.0,0.0,0.0,0.0,0.0,0.0,0.0,0.0,0.6874,0.0,0.0,0.0,0.0,0.0,0.0,0.0,0.0,0.0,0.0,0.0,0.0,0.0,0.0,0.0,0.0,0.0,0.0,0.0,0.0,0.0,0.0,0.0,0.0,0.0,0.0,0.0,0.0,0.0,0.0,0.0,0.0,0.0,0.0,0.0,0.0,0.0,0.0,0.0,0.0,0.0,0.0,0.0,0.0,0.0,0.0,0.0,0.0,0.0,0.0,0.0,0.0,0.0,0.0,0.0,0.0451,0.0509,0.0668,0.0959,0.1251,0.1574,0.1995,0.2518,0.291,0.0,0.0,0.0,0.0,0.0,0.0,0.0,0.0,0.0,0.0,0.0,0.0,0.0,0.0,0.0,0.0,0.0,0.0,0.0,0.0,0.0,0.0,0.0,0.0,0.0,0.0,0.0,0.0,0.0,0.0,0.0,0.0,0.0,0.0,0.0,0.0,0.0,0.0,0.0,0.0,0.4103,0.447,0.4996,0.0,0.0,0.0,0.0,0.0,0.0,0.6237,0.6375,0.0,0.0,0.0,0.0,0.0,0.0,0.0,0.0,0.0,0.0,0.0,0.0,0.0,0.0,0.0,0.0,0.0,0.0,0.0,0.0,0.0,0.0,0.0,0.0,0.0,0.0,0.0,0.0,0.0,0.0,0.0,0.0,0.0,0.0,0.0,0.0,0.0,0.0,0.0,0.0,0.0,0.0,0.0,0.0,0.0,0.0,0.0,0.0,0.0,0.0,0.0,0.0,0.0,0.0,0.0,0.0235,0.0287,0.0456,0.0766,0.1032,0.1385,0.1773,0.2296,0.2745,0.0,0.0,0.0,0.0,0.0,0.0,0.0,0.0,0.0,0.0,0.0,0.0,0.0,0.0,0.0,0.0,0.0,0.0,0.0,0.0,0.0,0.0,0.0,0.0,0.0,0.0,0.0,0.0,0.0,0.0,0.0,0.0,0.0,0.0,0.0,0.0,0.0,0.0,0.0,0.0,0.0,0.4036,0.4382,0.476,0.0,0.0,0.0,0.0,0.5702,0.5757,0.0,0.0,0.0,0.0,0.0,0.0,0.0,0.0,0.0,0.0,0.0,0.0,0.0,0.0,0.0,0.0,0.0,0.0,0.0,0.0,0.0,0.0,0.0,0.0,0.0,0.0,0.0,0.0,0.0,0.0,0.0,0.0,0.0,0.0,0.0,0.0,0.0,0.0,0.0,0.0,0.0,0.0,0.0,0.0,0.0,0.0,0.0,0.0,0.0,0.0,0.0,0.0,0.0,0.0,0.0,0.0,0.0045,0.0049,0.0128,0.0291,0.0605,0.0978,0.1366,0.1888,0.2356,0.0,0.0,0.0,0.0,0.0,0.0,0.0,0.0,0.0,0.0,0.0,0.0,0.0,0.0,0.0,0.0,0.0,0.0,0.0,0.0,0.0,0.0,0.0,0.0,0.0,0.0,0.0,0.0,0.0,0.0,0.0,0.0,0.0,0.0,0.0,0.0,0.0,0.0,0.0,0.0,0.0,0.4042,0.4436,0.4585,0.4816,0.0,0.0,0.534,0.5356,0.5412,0.0,0.0,0.0,0.0,0.0,0.0,0.0,0.0,0.0,0.0,0.0,0.0,0.0,0.0,0.0,0.0,0.0,0.0,0.0,0.0,0.0,0.0,0.0,0.0,0.0,0.0,0.0,0.0,0.0,0.0,0.0,0.0,0.0,0.0,0.0,0.0,0.0,0.0,0.0,0.0,0.0,0.0,0.0,0.0,0.0,0.0,0.0,0.0,0.0,0.0,0.0,0.0,0.0,0.0,0.0,0.0,0.0,0.0,0.0051,0.0186,0.0523,0.0841,0.1163,0.1689,0.2141,0.0,0.0,0.0,0.0,0.0,0.0,0.0,0.0,0.0,0.0,0.0,0.0,0.0,0.0,0.0,0.0,0.0,0.0,0.0,0.0,0.0,0.0,0.0,0.0,0.0,0.0,0.0,0.0,0.0,0.0,0.0,0.0,0.0,0.0,0.0,0.0,0.0,0.0,0.0,0.0,0.0,0.0,0.408,0.4347,0.0,0.0,0.0,0.4998,0.5014,0.0,0.0,0.0,0.0,0.0,0.0,0.0,0.0,0.0,0.0,0.0,0.0,0.0,0.0,0.0,0.0,0.0,0.0,0.0,0.0,0.0,0.0,0.0,0.0,0.0,0.0,0.0,0.0,0.0,0.0,0.0,0.0,0.0,0.0,0.0,0.0,0.0,0.0,0.0,0.0,0.0,0.0,0.0,0.0,0.0,0.0,0.0,0.0,0.0,0.0,0.0,0.0,0.0,0.0,0.0,0.0,0.0,0.0,0.0,0.0052,0.0162,0.0415,0.0706,0.0961,0.1438,0.0,0.0,0.0,0.0,0.0,0.0,0.0,0.0,0.0,0.0,0.0,0.0,0.0,0.0,0.0,0.0,0.0,0.0,0.0,0.0,0.0,0.0,0.0,0.0,0.0,0.0,0.0,0.1748,0.0,0.0,0.0,0.0,0.0,0.0,0.0,0.0,0.0,0.0,0.0,0.0,0.0,0.0,0.3894,0.386,0.4247,0.4554,0.0,0.0,0.4816,0.4784,0.4778,0.4775,0.0,0.0,0.0,0.0,0.0,0.0,0.0,0.0,0.0,0.0,0.0,0.0,0.0,0.0,0.0,0.0,0.0,0.0,0.0,0.0,0.0,0.0,0.0,0.0,0.0,0.0,0.0,0.0,0.0,0.0,0.0,0.0,0.0,0.0,0.0,0.0,0.0,0.0,0.0,0.0,0.0,0.0,0.0,0.0,0.0,0.0,0.0,0.0,0.0,0.0,0.0,0.0,0.0,0.0,0.0,0.0,0.0,0.0,0.0,0.0168,0.0325,0.0556,0.0933,0.1337,0.0,0.0,0.0,0.0,0.0,0.0,0.0,0.0,0.0,0.0,0.0,0.0,0.0,0.0,0.0,0.0,0.0,0.0,0.0,0.0,0.0,0.0,0.0,0.0,0.0,0.0,0.0,0.0,0.0,0.0,0.0,0.0,0.0,0.0,0.0,0.0,0.0,0.0,0.0,0.0,0.0,0.412,0.401,0.439,0.4653,0.0,0.476,0.4853,0.4731,0.4698,0.4706,0.4643,0.0,0.0,0.0,0.0,0.0,0.0,0.0,0.0,0.0,0.0,0.0,0.0,0.0,0.0,0.0,0.0,0.0,0.0,0.0,0.0,0.0,0.0,0.0,0.0,0.0,0.0,0.0,0.0,0.0,0.0,0.0,0.0,0.0,0.0,0.0,0.0,0.0,0.0,0.0,0.0,0.0,0.0,0.0,0.0,0.0,0.0,0.0,0.0,0.0,0.0,0.0,0.0,0.0,0.0,0.0,0.0,0.0,0.0,0.014,0.0274,0.0444,0.0791,0.1123,0.0,0.0,0.0,0.0,0.0,0.0,0.0,0.0,0.0,0.0,0.0,0.0,0.0,0.0,0.0,0.0,0.0,0.0,0.0,0.0,0.0,0.0,0.0,0.0,0.0,0.0,0.0,0.0,0.2048,0.2233,0.2499,0.0,0.0,0.0,0.0,0.0,0.0,0.0,0.0,0.0,0.0,0.3881,0.4201,0.4374,0.0,0.0,0.4779,0.4701,0.465,0.4719,0.4766,0.4729,0.4837,0.0,0.0,0.0,0.0,0.0,0.0,0.0,0.0,0.0,0.0,0.0,0.0,0.0,0.0,0.0,0.0,0.0,0.0,0.0,0.0,0.0,0.0,0.0,0.0,0.0,0.0,0.0,0.0,0.0,0.0,0.0,0.0,0.0,0.0,0.0,0.0,0.0,0.0,0.0,0.0,0.0,0.0,0.0,0.0,0.0,0.0,0.0,0.0,0.0,0.0,0.0,0.0,0.0,0.0,0.0,0.0,0.0,0.0084,0.0193,0.0346,0.0643,0.0888,0.0,0.0,0.0,0.0,0.0,0.0,0.0,0.0,0.0,0.0,0.0,0.0,0.0,0.0,0.0,0.0,0.0,0.0,0.0,0.0,0.0,0.0,0.0,0.0,0.0,0.0,0.0,0.0,0.2038,0.2145,0.2366,0.0,0.0,0.0,0.0,0.0,0.0,0.0,0.0,0.0,0.0,0.3672,0.4114,0.4289,0.4487,0.4834,0.475,0.4636,0.4611,0.4723,0.478,0.4738,0.0,0.0,0.0,0.0,0.0,0.0,0.0,0.0,0.0,0.0,0.0,0.0,0.0,0.0,0.0,0.0,0.0,0.0,0.0,0.0,0.0,0.0,0.0,0.0,0.0,0.0,0.0,0.0906,0.0,0.0,0.0793,0.0,0.0,0.0,0.0,0.0,0.0,0.0,0.0,0.0,0.0,0.0,0.0,0.0,0.0,0.0,0.0,0.0,0.0,0.0,0.0,0.0,0.0,0.0,0.0,0.0,0.0,0.0,0.0,0.0083,0.0213,0.0386,0.0608,0.0807,0.0,0.0,0.0,0.0,0.0,0.0,0.0,0.0,0.0,0.0,0.0,0.0,0.0,0.0,0.0,0.0,0.0,0.0,0.0,0.0,0.0,0.0,0.0,0.0,0.0,0.0,0.1994,0.213,0.2242,0.0,0.0,0.0,0.0,0.0,0.0,0.0,0.0,0.0,0.2883,0.3257,0.3532,0.3686,0.4169,0.4508,0.4605,0.4722,0.474,0.4626,0.4725,0.4753,0.0,0.0,0.0,0.0,0.0,0.0,0.0,0.0,0.0,0.0,0.0,0.0,0.0,0.0,0.0,0.0,0.0,0.0,0.0,0.0,0.0,0.0,0.0,0.0,0.0,0.0,0.0,0.103,0.0965,0.0,0.0,0.0,0.0,0.0,0.0,0.0,0.0,0.0,0.0,0.0,0.0,0.0,0.0,0.0,0.0,0.0,0.0,0.0,0.0,0.0,0.0,0.0,0.0,0.0,0.0,0.0,0.0,0.0,0.0,0.0,0.0028,0.0055,0.0208,0.0428,0.0725,0.0,0.0,0.0,0.0,0.0,0.0,0.0,0.0,0.0,0.0,0.0,0.0,0.0,0.0,0.0,0.0,0.0,0.0,0.0,0.0,0.0,0.0,0.0,0.0,0.0,0.1903,0.0,0.0,0.0,0.0,0.0,0.0,0.0,0.0,0.0,0.0,0.0,0.2599,0.2681,0.2959,0.3179,0.3225,0.3814,0.4241,0.0,0.0,0.0,0.0,0.0,0.0,0.0,0.0,0.0,0.0,0.0,0.0,0.0,0.0,0.5145,0.548,0.5559,0.5587,0.5688,0.0,0.0,0.0,0.0,0.0,0.0,0.0,0.0,0.0,0.0,0.0,0.0,0.0,0.0,0.0945,0.0955,0.0908,0.0,0.0,0.0,0.0,0.0,0.0,0.0,0.0,0.0,0.0,0.0,0.0,0.0,0.0,0.0,0.0,0.0,0.0,0.0,0.0,0.0,0.0,0.0,0.0,0.0,0.0,0.0,0.0,0.0,0.0,0.0,0.0,0.0131,0.0354,0.0668,0.0789,0.0896,0.0,0.0,0.0,0.0,0.0,0.0,0.0,0.0,0.0,0.0,0.0,0.0,0.0,0.0,0.0,0.0,0.0,0.0,0.0,0.0,0.0,0.0,0.0,0.1946,0.0,0.0,0.0,0.0,0.0,0.0,0.0,0.0,0.0,0.2356,0.2436,0.2531,0.2633,0.2823,0.2956,0.2956,0.0,0.0,0.0,0.0,0.0,0.0,0.0,0.4999,0.505,0.5133,0.5224,0.5241,0.5159,0.5055,0.5033,0.0,0.0,0.5312,0.5413,0.5488,0.5595,0.5818,0.6017,0.6109,0.6266,0.6438,0.0,0.0,0.0,0.0,0.099,0.0,0.0,0.0,0.087,0.0827,0.0,0.0881,0.0,0.0,0.0,0.0,0.0379,0.0253,0.0,0.0,0.0,0.0,0.0,0.0,0.0,0.0,0.0,0.0,0.0,0.0,0.0,0.0,0.0,0.0,0.0,0.0,0.0,0.0,0.0,0.0,0.0,0.0,0.0,0.0,0.0131,0.0311,0.0573,0.0586,0.0616,0.0675,0.0746,0.0,0.0,0.0,0.0,0.0,0.0,0.0,0.0,0.0,0.0,0.0,0.0,0.0,0.0,0.0,0.0,0.0,0.0,0.0,0.0,0.2047,0.0,0.0,0.0,0.0,0.0,0.0,0.0,0.0,0.0,0.2309,0.233,0.2422,0.255,0.2687,0.0,0.0,0.0,0.0,0.366,0.3846,0.4101,0.434,0.4475,0.4724,0.4882,0.4825,0.0,0.0,0.5154,0.5193,0.521,0.5275,0.5183,0.5154,0.5276,0.5465,0.5609,0.5751,0.5984,0.6219,0.6366,0.651,0.6731,0.0379,0.0,0.0,0.0,0.0,0.0563,0.0566,0.0601,0.0541,0.0539,0.0533,0.055,0.0,0.0,0.0,0.0,0.0,0.0,0.0113,0.0,0.0,0.0,0.0,0.0,0.0,0.0,0.0,0.0,0.0,0.0,0.0,0.0,0.0,0.0,0.0,0.0,0.0,0.0,0.0,0.0,0.0,0.0,0.0,0.0,0.0129,0.0218,0.0243,0.0338,0.0398,0.0421,0.0431,0.0,0.0,0.0,0.0,0.0,0.0,0.0,0.0,0.0,0.0,0.0,0.0,0.0,0.0,0.0,0.0,0.0,0.0,0.0,0.1998,0.2062,0.2097,0.0,0.0,0.0,0.0,0.0,0.0,0.0,0.0,0.0,0.2585,0.2632,0.2663,0.0,0.0,0.2893,0.2909,0.3204,0.3469,0.3464,0.3907,0.0,0.4426,0.4664,0.4838,0.4868,0.4951,0.5007,0.505,0.505,0.5089,0.5193,0.5234,0.5275,0.5402,0.5356,0.5408,0.5547,0.5794,0.603,0.6171,0.641,0.6651,0.0177,0.0268,0.0357,0.0419,0.0423,0.0358,0.0358,0.0423,0.039,0.0385,0.044,0.0432,0.0425,0.039,0.0441,0.0,0.0,0.0,0.009,0.0,0.0,0.0,0.0,0.0,0.0,0.0,0.0,0.0,0.0,0.0,0.0,0.0,0.0,0.0,0.0,0.0,0.0,0.0,0.0,0.0,0.0,0.0,0.0,0.0,0.0077,0.0123,0.0138,0.0174,0.0244,0.0245,0.0276,0.0302,0.0,0.0,0.0,0.0,0.0,0.0,0.0,0.0,0.0,0.0,0.0,0.0891,0.101,0.0,0.0,0.0,0.1717,0.1861,0.1945,0.2014,0.0,0.0,0.0,0.0,0.0,0.0,0.0,0.2561,0.266,0.2723,0.2772,0.2756,0.2797,0.2824,0.2933,0.2995,0.2989,0.0,0.3382,0.3312,0.3732,0.4124,0.4302,0.4551,0.4779,0.496,0.5015,0.503,0.4994,0.5007,0.5029,0.5111,0.5198,0.5306,0.541,0.5359,0.5397,0.5655,0.5918,0.6154,0.6363,0.6597,0.6798,0.0,0.0,0.0284,0.0416,0.0421,0.0281,0.0316,0.0457,0.0351,0.0376,0.0457,0.0456,0.0448,0.0373,0.0249,0.0,0.0218,0.0062,0.0,0.0,0.0,0.0,0.0,0.0,0.0,0.0,0.0,0.0,0.0,0.0,0.0,0.0,0.0,0.0,0.0,0.0,0.0,0.0,0.0,0.0,0.0,0.0,0.0,0.0,0.0,0.005,0.0192,0.0133,0.0124,0.0178,0.0245,0.0215,0.0119,0.0,0.0,0.0,0.0,0.0,0.0,0.0,0.0,0.0,0.0,0.0,0.0,0.0,0.0,0.0,0.1525,0.0,0.1873,0.1943,0.0,0.0,0.0,0.2352,0.2484,0.2498,0.2563,0.2686,0.0,0.0,0.2887,0.2912,0.2961,0.3013,0.3104,0.3183,0.3121,0.3273,0.339,0.3347,0.359,0.3893,0.4141,0.4434,0.4733,0.5018,0.5101,0.5098,0.5054,0.5056,0.5042,0.5083,0.5164,0.5286,0.532,0.5457,0.5598,0.5916,0.6173,0.6477,0.6727,0.6897,0.7051,0.0,0.0,0.0081,0.0116,0.0144,0.0217,0.0217,0.0144,0.0253,0.0215,0.0142,0.0139,0.0204,0.0297,0.0132,0.0132,0.0264,0.0099,0.0,0.0,0.0,0.0,0.0,0.0,0.0,0.0,0.0,0.0,0.0,0.0,0.0,0.0,0.0,0.0,0.0,0.0,0.0,0.0,0.0,0.0,0.0,0.0,0.0,0.0,0.0,0.0,0.005,0.0023,0.0022,0.0042,0.0059,0.0057,0.0018,0.0069,0.0,0.0,0.0,0.0,0.0,0.0,0.0,0.0,0.0,0.0614,0.0668,0.0,0.0985,0.0,0.1378,0.1603,0.1742,0.1857,0.0,0.0,0.2298,0.2397,0.2629,0.2663,0.2709,0.2832,0.2846,0.287,0.2967,0.3059,0.3153,0.3269,0.3161,0.3091,0.318,0.3311,0.3433,0.3534,0.3691,0.3868,0.4027,0.4467,0.4814,0.4992,0.5118,0.52,0.5295,0.5309,0.5333,0.5434,0.5572,0.5603,0.5538,0.5649,0.5756,0.5842,0.6077,0.6297,0.6496,0.6781,0.7021,0.0,0.0,0.0,0.0,0.0,0.0115,0.0114,0.0,0.0111,0.0111,0.0,0.0,0.0071,0.0175,0.007,0.007,0.014,0.007,0.0,0.0,0.0,0.0,0.0,0.0,0.0,0.0,0.0,0.0,0.0,0.0,0.0,0.0,0.0,0.0,0.0,0.0,0.0,0.0,0.0,0.0,0.0,0.0,0.0,0.0,0.0,0.0,0.0,0.0,0.0,0.0,0.0,0.0,0.0,0.0,0.0,0.0,0.0,0.0,0.0,0.0,0.0,0.0,0.0,0.0,0.0,0.0,0.0763,0.0945,0.1215,0.1427,0.1595,0.1762,0.1975,0.2314,0.2364,0.2491,0.2751,0.2789,0.2832,0.2933,0.2947,0.297,0.3083,0.3156,0.3237,0.3381,0.3286,0.322,0.336,0.3444,0.3509,0.3599,0.3666,0.3799,0.4024,0.445,0.482,0.4954,0.5046,0.5161,0.5372,0.5398,0.5452,0.5579,0.5658,0.5741,0.5762,0.5837,0.5909,0.6047,0.613,0.6244,0.637,0.6666,0.6886,0.0,0.0,0.0,0.0,0.0,0.0,0.0,0.0,0.0038,0.0037,0.0,0.0,0.0,0.0,0.0,0.0,0.0,0.0,0.0,0.0,0.0,0.0,0.0,0.0,0.0,0.0,0.0,0.0,0.0,0.0,0.0,0.0,0.0,0.0,0.0,0.0,0.0,0.0,0.0,0.0,0.0,0.0,0.0,0.0,0.0,0.0,0.0,0.0,0.0,0.0,0.0,0.0,0.0,0.0,0.0,0.0,0.0,0.0,0.0,0.0,0.0,0.0,0.0,0.0,0.0,0.038,0.0488,0.0752,0.1005,0.1255,0.1462,0.1658,0.1953,0.2315,0.2465,0.2622,0.2854,0.2926,0.2952,0.3013,0.3024,0.3088,0.3199,0.3218,0.3286,0.3406,0.3425,0.3449,0.3553,0.3602,0.3605,0.3613,0.3638,0.3805,0.411,0.4467,0.477,0.4937,0.5011,0.5108,0.5375,0.5424,0.5469,0.5624,0.5692,0.5768,0.5982,0.6021,0.6104,0.6291,0.6296,0.6282,0.6369,0.6526,0.6708,0.0,0.0,0.0,0.0,0.0,0.0,0.0,0.0,0.0157,0.0154,0.0,0.0,0.0,0.0,0.0,0.0,0.0,0.0,0.0,0.0,0.0,0.0,0.0,0.0,0.0,0.0,0.0,0.0,0.0,0.0,0.0,0.0,0.0,0.0,0.0,0.0,0.0,0.0,0.0,0.0,0.0,0.0,0.0,0.0,0.0,0.0,0.0,0.0,0.0,0.0,0.0,0.0,0.0,0.0,0.0,0.0,0.0,0.0,0.0,0.0,0.0,0.0,0.0018,0.0074,0.016,0.0294,0.0454,0.063,0.0849,0.1062,0.1324,0.1566,0.1859,0.2207,0.2509,0.273,0.2874,0.3045,0.3161,0.3156,0.3161,0.3207,0.3343,0.3365,0.3411,0.3523,0.3578,0.3558,0.3608,0.3613,0.3613,0.3613,0.3774,0.3941,0.4021,0.4411,0.4732,0.4883,0.4996,0.5194,0.5476,0.5552,0.5641,0.5873,0.5998,0.607,0.6103,0.6166,0.6238,0.6227,0.6401,0.6482,0.6418,0.6431,0.6517,0.0,0.0,0.0,0.0,0.0,0.0,0.0,0.0,0.0082,0.008,0.0,0.0,0.0,0.0,0.0,0.0,0.0,0.0,0.0,0.0,0.0,0.0,0.0,0.0,0.0,0.0,0.0,0.0,0.0,0.0,0.0,0.0,0.0,0.0,0.0,0.0,0.0,0.0,0.0,0.0,0.0,0.0,0.0,0.0,0.0,0.0,0.0,0.0,0.0,0.0,0.0,0.0,0.0,0.0,0.0,0.0,0.0,0.0,0.0,0.0,0.0,0.0,0.0059,0.01,0.0152,0.0271,0.0412,0.0551,0.0803,0.1066,0.132,0.1614,0.1943,0.2309,0.2585,0.2793,0.2944,0.3109,0.3218,0.3297,0.3282,0.3328,0.3504,0.3493,0.3515,0.3602,0.3613,0.3613,0.3613,0.3613,0.3613,0.3613,0.383,0.3993,0.4021,0.4328,0.4688,0.4873,0.4956,0.5175,0.554,0.5591,0.5677,0.5946,0.6114,0.6185,0.626,0.638,0.6529,0.6545,0.6613,0.6679,0.6694,0.6654,0.6627,0.0,0.0,0.0,0.0,0.0,0.0,0.0,0.0,0.0,0.0,0.0,0.0,0.0,0.0,0.0,0.0,0.0,0.0,0.0,0.0,0.0,0.0,0.0,0.0,0.0,0.0,0.0,0.0,0.0,0.0,0.0,0.0,0.0,0.0,0.0,0.0,0.0,0.0,0.0,0.0,0.0,0.0,0.0,0.0,0.0,0.0,0.0,0.0,0.0,0.0,0.0,0.0,0.0,0.0,0.0,0.0,0.0,0.0,0.0,0.0,0.002,0.004,0.0146,0.0209,0.0219,0.0281,0.0403,0.0524,0.0841,0.1141,0.1419,0.1729,0.2071,0.2427,0.2686,0.2874,0.2978,0.3176,0.333,0.3414,0.3433,0.3468,0.3591,0.3608,0.3613,0.3613,0.3613,0.3613,0.3613,0.3613,0.361,0.3663,0.3855,0.3993,0.4079,0.4328,0.4629,0.4846,0.4928,0.5093,0.5458,0.5567,0.5673,0.5946,0.6114,0.6223,0.6354,0.6529,0.6734,0.6852,0.6807,0.6851,0.7075,0.695,0.6864,0.0,0.0,0.0,0.0,0.0,0.0,0.0,0.0,0.0,0.0,0.0,0.0,0.0,0.0,0.0,0.0,0.0,0.0,0.0,0.0,0.0,0.0,0.0,0.0,0.0,0.0,0.0,0.0,0.0,0.0,0.0,0.0,0.0,0.0,0.0,0.0,0.0,0.0,0.0,0.0,0.0,0.0,0.0,0.0,0.0,0.0,0.0,0.0,0.0,0.0,0.0,0.0,0.0,0.0,0.0,0.0,0.0,0.0,0.0,0.0,0.0042,0.0154,0.0178,0.0219,0.021,0.0367,0.053,0.0663,0.0984,0.1265,0.155,0.1831,0.2052,0.2253,0.2684,0.3004,0.3006,0.3323,0.3523,0.3547,0.3589,0.3555,0.358,0.3613,0.3613,0.3613,0.3613,0.3613,0.3613,0.3613,0.3638,0.3744,0.391,0.4049,0.4162,0.4442,0.4715,0.4873,0.5014,0.5179,0.5536,0.5489,0.5567,0.5946,0.6119,0.62,0.6255,0.649,0.668,0.6761,0.687,0.7095,0.735,0.7226,0.7159,0.0,0.0,0.0,0.0,0.0,0.0,0.0,0.0,0.0,0.0,0.0,0.0,0.0,0.0,0.0,0.0,0.0,0.0,0.0,0.0,0.0,0.0,0.0,0.0,0.0,0.0,0.0,0.0,0.0,0.0,0.0,0.0,0.0,0.0,0.0,0.0,0.0,0.0,0.0,0.0,0.0,0.0,0.0,0.0,0.0,0.0,0.0,0.0,0.0,0.0,0.0,0.0,0.0,0.0,0.0,0.0,0.0,0.0,0.0,0.0066,0.0137,0.0186,0.0332,0.0404,0.042,0.0489,0.0656,0.0837,0.1071,0.1328,0.1673,0.1933,0.218,0.2387,0.2808,0.3029,0.3088,0.3377,0.3585,0.3613,0.3613,0.3613,0.3613,0.3613,0.3613,0.3613,0.3613,0.3613,0.3613,0.3666,0.3747,0.3799,0.3907,0.4021,0.4193,0.447,0.4715,0.4873,0.5014,0.5234,0.5508,0.5544,0.5681,0.5946,0.6114,0.6228,0.6282,0.6517,0.6707,0.6815,0.695,0.7198,0.7417,0.7629,0.7737,0.0,0.0,0.0,0.0,0.0,0.0,0.0,0.0,0.0,0.0,0.0,0.0,0.0,0.0,0.0,0.0,0.0,0.0,0.0,0.0,0.0,0.0,0.0,0.0,0.0,0.0,0.0,0.0,0.0,0.0,0.0,0.0,0.0,0.0033,0.0065,0.0061,0.0059,0.0118,0.0114,0.0056,0.0,0.0028,0.0,0.0056,0.0,0.0055,0.0054,0.0054,0.0026,0.0,0.0,0.0,0.0,0.0,0.0,0.0,0.0023,0.0046,0.0092,0.019,0.0242,0.029,0.0472,0.0632,0.0687,0.0697,0.0815,0.1006,0.1193,0.1482,0.1847,0.2109,0.2368,0.2589,0.2918,0.3095,0.3132,0.3416,0.3613,0.3613,0.3613,0.3613,0.3613,0.3613,0.3613,0.3613,0.3613,0.361,0.3638,0.3744,0.3796,0.3907,0.3993,0.4135,0.4276,0.455,0.4767,0.4901,0.5124,0.5344,0.5595,0.5736,0.5873,0.6005,0.6119,0.6228,0.6359,0.6544,0.6734,0.6847,0.7036,0.7246,0.7574,0.799,0.8254,0.0,0.0,0.0,0.0,0.0,0.0,0.0,0.0,0.0,0.0,0.0,0.0,0.0,0.0,0.0,0.0,0.0,0.0,0.0,0.0,0.0,0.0,0.0,0.0,0.0,0.0,0.0,0.0,0.0,0.0,0.0,0.0,0.0,0.0099,0.0226,0.0219,0.0273,0.0442,0.0399,0.0252,0.0,0.0112,0.0168,0.0168,0.0308,0.0308,0.0195,0.0195,0.011,0.0,0.0,0.0,0.0,0.0,0.0,0.0,0.0125,0.0225,0.0349,0.0375,0.0426,0.0552,0.0605,0.0744,0.1004,0.1057,0.1093,0.1231,0.1485,0.1776,0.2123,0.2347,0.2528,0.2666,0.2929,0.3105,0.316,0.3416,0.3613,0.3613,0.3613,0.3613,0.3613,0.3613,0.3613,0.3613,0.3613,0.3666,0.3744,0.3827,0.3938,0.4107,0.4193,0.4332,0.4581,0.477,0.4932,0.5073,0.5344,0.5567,0.5709,0.5791,0.5873,0.6091,0.6228,0.6309,0.6413,0.6571,0.6766,0.6901,0.7122,0.7392,0.7768,0.8135,0.8305,0.0,0.0,0.0,0.0,0.0,0.0,0.0,0.0,0.0,0.0,0.0,0.0,0.0,0.0,0.0,0.0,0.0,0.0,0.0,0.0,0.0,0.0,0.0,0.0,0.0,0.0,0.0,0.0,0.0,0.0,0.0,0.0,0.0101,0.0235,0.0298,0.0354,0.0437,0.0485,0.047,0.0401,0.0253,0.028,0.0336,0.0336,0.0364,0.0364,0.0336,0.0308,0.0278,0.0247,0.022,0.0243,0.0235,0.0261,0.0232,0.0228,0.0277,0.0353,0.0403,0.0489,0.0625,0.0756,0.0851,0.0975,0.1207,0.1402,0.153,0.157,0.1691,0.1923,0.2307,0.2447,0.2579,0.2775,0.2996,0.316,0.3274,0.3471,0.3613,0.3613,0.3613,0.3613,0.3613,0.3613,0.3613,0.3613,0.3666,0.3744,0.3796,0.3938,0.4132,0.4325,0.4439,0.4525,0.4719,0.4908,0.5046,0.5211,0.543,0.565,0.5841,0.585,0.5873,0.6146,0.6332,0.6468,0.6571,0.6712,0.6847,0.7009,0.7225,0.7521,0.7848,0.8162,0.8395,0.0049,0.0098,0.0188,0.0229,0.0226,0.018,0.018,0.018,0.018,0.018,0.018,0.0135,0.0089,0.0088,0.0044,0.0,0.0,0.0,0.0,0.0,0.0,0.0,0.0,0.0,0.0,0.0,0.0,0.0,0.0,0.0069,0.0068,0.0101,0.027,0.0405,0.0437,0.0524,0.0607,0.0656,0.0602,0.0582,0.0542,0.0536,0.0533,0.0477,0.0505,0.0533,0.0505,0.0477,0.0449,0.0393,0.0393,0.0388,0.0406,0.0405,0.0427,0.0469,0.0493,0.052,0.0572,0.0746,0.0864,0.1002,0.1108,0.1234,0.1431,0.1656,0.1853,0.1989,0.1993,0.2184,0.2437,0.2551,0.2691,0.2888,0.3054,0.3246,0.3388,0.3502,0.3613,0.3613,0.3613,0.3613,0.3613,0.3613,0.361,0.3663,0.3744,0.3852,0.3907,0.4107,0.4356,0.4546,0.4688,0.4829,0.4881,0.5018,0.5215,0.5434,0.5626,0.5786,0.5973,0.5923,0.5955,0.6277,0.6517,0.668,0.6739,0.6847,0.6982,0.7198,0.7413,0.7681,0.8029,0.8321,0.8586,0.015,0.0391,0.0659,0.0741,0.0784,0.0679,0.0673,0.0628,0.0628,0.0673,0.0628,0.0448,0.0359,0.0357,0.0132,0.0,0.0,0.0,0.0,0.0,0.0,0.0,0.0,0.0,0.0,0.0,0.0,0.0,0.0,0.0175,0.0276,0.0304,0.0405,0.0573,0.0706,0.0788,0.0839,0.0927,0.0883,0.0883,0.0849,0.0855,0.0813,0.0701,0.0813,0.0785,0.0701,0.0701,0.0589,0.0421,0.0421,0.042,0.0419,0.0419,0.0502,0.0668,0.0696,0.0807,0.1001,0.1059,0.1116,0.1257,0.1315,0.1431,0.1741,0.1824,0.202,0.241,0.2437,0.2465,0.2549,0.2719,0.286,0.2916,0.319,0.336,0.3416,0.353,0.3585,0.3613,0.3613,0.3613,0.3613,0.3613,0.3666,0.3744,0.3796,0.3907,0.4132,0.4356,0.4522,0.4715,0.4908,0.5128,0.5242,0.527,0.5434,0.5654,0.5814,0.5978,0.6032,0.6087,0.6223,0.6386,0.6625,0.6788,0.6852,0.6987,0.7117,0.7333,0.7628,0.7922,0.8189,0.8533,0.8798,0.055,0.0687,0.0774,0.0805,0.0786,0.078,0.0726,0.0718,0.0718,0.0718,0.0718,0.0628,0.0583,0.0582,0.049,0.0264,0.0,0.0,0.0,0.0,0.0,0.0,0.0,0.0,0.0,0.0,0.0,0.0076,0.018,0.0283,0.0346,0.044,0.0607,0.0742,0.0808,0.0933,0.0987,0.0999,0.0961,0.0962,0.0913,0.0885,0.0869,0.0841,0.0869,0.0897,0.0813,0.0841,0.0785,0.0729,0.0729,0.0729,0.0729,0.0813,0.0926,0.1066,0.1094,0.1122,0.1206,0.1206,0.1347,0.16,0.1628,0.174,0.202,0.2158,0.2327,0.2493,0.2663,0.2747,0.2749,0.286,0.2942,0.3051,0.3246,0.3444,0.353,0.3585,0.3613,0.3613,0.3613,0.3613,0.361,0.3666,0.3744,0.3796,0.3938,0.4132,0.4353,0.4519,0.4715,0.4908,0.5101,0.5325,0.5599,0.554,0.5567,0.5814,0.5978,0.6032,0.6114,0.6173,0.6282,0.6468,0.6707,0.6896,0.6987,0.7095,0.7252,0.7467,0.7735,0.8082,0.8315,0.8666,0.8929,0.0953,0.0941,0.1034,0.1064,0.1085,0.1023,0.101,0.0951,0.0944,0.0942,0.0897,0.0852,0.0852,0.0807,0.0762,0.0534,0.0264,0.0,0.0,0.0124,0.0041,0.0,0.0,0.0,0.0,0.0,0.0079,0.0192,0.0296,0.0431,0.056,0.065,0.0812,0.091,0.0909,0.1043,0.1098,0.1044,0.1018,0.0957,0.0958,0.0928,0.0878,0.0898,0.0897,0.0897,0.0897,0.0897,0.0897,0.0897,0.0926,0.0982,0.1038,0.1094,0.1206,0.129,0.1347,0.1403,0.1459,0.1515,0.1654,0.1908,0.1936,0.2046,0.2296,0.2465,0.2579,0.2663,0.2828,0.2968,0.2998,0.3028,0.3109,0.3218,0.336,0.3499,0.3585,0.3585,0.3613,0.3613,0.3613,0.3613,0.3638,0.3744,0.3824,0.3907,0.4135,0.4356,0.4491,0.4712,0.4877,0.512,0.5293,0.5513,0.5759,0.5814,0.5814,0.6009,0.6168,0.6196,0.6228,0.6287,0.6369,0.6576,0.6766,0.6955,0.7122,0.723,0.7386,0.7574,0.7895,0.8268,0.8507,0.8778,0.9035,0.1212,0.1208,0.1485,0.1522,0.1508,0.146,0.1482,0.1427,0.1402,0.1346,0.1301,0.1166,0.1076,0.1031,0.0897,0.0717,0.0669,0.0528,0.0388,0.0379,0.0165,0.0,0.0,0.0,0.0,0.0,0.0196,0.031,0.0377,0.0661,0.086,0.0909,0.1021,0.1076,0.1109,0.1076,0.1109,0.1066,0.101,0.1016,0.0988,0.0926,0.0898,0.0876,0.0871,0.0897,0.0897,0.0897,0.0897,0.0926,0.1038,0.1178,0.1262,0.1318,0.1318,0.1374,0.1515,0.1684,0.1797,0.1905,0.2045,0.2184,0.2212,0.2322,0.2521,0.2661,0.2775,0.2858,0.2996,0.3105,0.3132,0.3274,0.336,0.3388,0.3499,0.3585,0.3585,0.3613,0.3613,0.3613,0.361,0.3663,0.3769,0.3852,0.3938,0.4162,0.4356,0.4519,0.4601,0.4877,0.5124,0.5312,0.5504,0.5732,0.5923,0.6114,0.6146,0.6232,0.6332,0.6408,0.6413,0.6472,0.6581,0.6766,0.6928,0.7122,0.723,0.7365,0.758,0.7794,0.8135,0.8427,0.8666,0.891,0.9237,0.1465,0.1464,0.1557,0.159,0.1568,0.1529,0.1501,0.1478,0.1448,0.1391,0.1391,0.1346,0.1301,0.1301,0.1211,0.1166,0.1165,0.098,0.0791,0.0602,0.0505,0.0452,0.0483,0.0435,0.0432,0.0432,0.0471,0.0582,0.0681,0.0849,0.0935,0.1051,0.1091,0.111,0.1109,0.1109,0.1109,0.1106,0.1048,0.0996,0.1015,0.0939,0.088,0.0899,0.088,0.0926,0.1038,0.0954,0.0954,0.1038,0.1066,0.1234,0.1459,0.16,0.1682,0.1793,0.1933,0.2018,0.2102,0.224,0.241,0.2521,0.2629,0.274,0.2882,0.2938,0.2993,0.3051,0.3188,0.3302,0.333,0.3444,0.3499,0.3416,0.353,0.3613,0.3613,0.3613,0.3613,0.361,0.3663,0.3744,0.3827,0.3938,0.4159,0.438,0.455,0.4688,0.4904,0.5073,0.5297,0.5481,0.5704,0.5923,0.6141,0.6305,0.6418,0.6445,0.6522,0.6571,0.6603,0.6685,0.6793,0.6928,0.7122,0.7257,0.7365,0.7526,0.7741,0.8008,0.8328,0.8566,0.8778,0.9061,0.9387,0.1768,0.1768,0.1869,0.1906,0.188,0.1834,0.18,0.1773,0.1726,0.1705,0.1705,0.1615,0.157,0.1525,0.1436,0.1391,0.1391,0.1256,0.1114,0.0965,0.0767,0.0707,0.0691,0.0636,0.0629,0.0629,0.0668,0.0779,0.0882,0.0973,0.1058,0.1102,0.1108,0.1086,0.1111,0.1109,0.1109,0.1106,0.1125,0.1109,0.1124,0.1151,0.1146,0.1091,0.1069,0.1108,0.1181,0.1094,0.1094,0.1178,0.1234,0.143,0.1712,0.1824,0.1934,0.2073,0.2268,0.2382,0.241,0.2603,0.2772,0.2854,0.2938,0.2991,0.3077,0.3132,0.3218,0.3246,0.336,0.3499,0.3471,0.3557,0.3557,0.3471,0.353,0.3585,0.361,0.3635,0.3666,0.3719,0.3799,0.391,0.4076,0.4187,0.4408,0.4601,0.4798,0.4881,0.5097,0.5293,0.5567,0.5814,0.6005,0.6196,0.6359,0.6522,0.6657,0.6685,0.6739,0.6739,0.6766,0.6842,0.695,0.7095,0.7257,0.7467,0.7574,0.7714,0.7901,0.8195,0.854,0.8771,0.9008,0.9283,0.9588,0.2022,0.2072,0.2271,0.237,0.2356,0.2278,0.224,0.2273,0.2193,0.2155,0.2109,0.1885,0.184,0.175,0.1615,0.1525,0.1436,0.1436,0.1435,0.1285,0.0992,0.0794,0.0773,0.0755,0.0747,0.0746,0.0864,0.0903,0.0977,0.1106,0.1196,0.1162,0.1167,0.1104,0.1149,0.1109,0.1176,0.1176,0.1276,0.1326,0.1328,0.1479,0.1505,0.1368,0.1355,0.1361,0.1325,0.1346,0.1318,0.1346,0.1515,0.171,0.1933,0.2015,0.2127,0.2268,0.2549,0.2689,0.2772,0.2938,0.3077,0.3105,0.3132,0.3132,0.3188,0.333,0.3416,0.3388,0.3502,0.3585,0.3585,0.3613,0.3613,0.3613,0.3585,0.3613,0.3638,0.3744,0.3769,0.3824,0.3938,0.4132,0.4408,0.4487,0.468,0.4873,0.5128,0.5183,0.5238,0.554,0.6032,0.625,0.6332,0.644,0.6603,0.6663,0.6798,0.6874,0.6928,0.6955,0.6933,0.7009,0.7139,0.7284,0.7446,0.7634,0.7815,0.7955,0.8195,0.8513,0.8804,0.9035,0.9263,0.9543,0.9777,0.227,0.2322,0.2371,0.2422,0.2408,0.2328,0.2291,0.2278,0.2238,0.2244,0.22,0.2155,0.2109,0.2109,0.2019,0.1974,0.193,0.175,0.1705,0.1653,0.1354,0.1181,0.1142,0.1113,0.11,0.11,0.114,0.1218,0.1176,0.1228,0.1198,0.1203,0.1281,0.128,0.1249,0.1378,0.1445,0.1479,0.1512,0.1509,0.1526,0.1594,0.1553,0.1471,0.1434,0.1452,0.1522,0.1628,0.16,0.1543,0.1766,0.1903,0.2043,0.2324,0.2493,0.2577,0.2798,0.2996,0.3049,0.3216,0.3302,0.333,0.3416,0.3471,0.3471,0.353,0.3557,0.3557,0.3585,0.3613,0.3613,0.3613,0.3613,0.3613,0.3641,0.3666,0.3716,0.3769,0.3824,0.3965,0.4187,0.438,0.4546,0.4767,0.4991,0.5183,0.5375,0.5572,0.5595,0.5814,0.6305,0.649,0.6625,0.6685,0.6766,0.6852,0.6933,0.7036,0.709,0.7149,0.7149,0.7171,0.7306,0.7419,0.766,0.7875,0.8062,0.8221,0.854,0.8831,0.9061,0.9283,0.9498,0.9725,0.9966,0.2624,0.2725,0.2876,0.2977,0.3061,0.2957,0.2958,0.2934,0.2834,0.2691,0.2601,0.2511,0.2422,0.2334,0.2244,0.22,0.2155,0.2019,0.1974,0.1919,0.1737,0.1513,0.1345,0.1312,0.1297,0.1297,0.1297,0.1375,0.1412,0.1393,0.1397,0.1428,0.1472,0.1468,0.1415,0.1513,0.158,0.1614,0.1681,0.1715,0.1712,0.1821,0.1814,0.1762,0.1679,0.168,0.1699,0.1822,0.185,0.1821,0.1905,0.2043,0.2212,0.2493,0.2719,0.2777,0.3051,0.3246,0.333,0.3466,0.3605,0.3663,0.3749,0.3749,0.3777,0.3777,0.3777,0.3774,0.3719,0.3691,0.3663,0.3663,0.3691,0.3691,0.3747,0.3774,0.3793,0.3879,0.4021,0.4218,0.4411,0.466,0.4794,0.5046,0.527,0.5494,0.5709,0.5841,0.5946,0.6223,0.6495,0.6734,0.6842,0.6874,0.6955,0.7041,0.7095,0.7198,0.7306,0.7365,0.7386,0.7386,0.7521,0.7681,0.7901,0.8121,0.8328,0.854,0.8771,0.9035,0.9309,0.9517,0.9706,0.994,1.0154,0.3078,0.3279,0.3533,0.3784,0.391,0.3831,0.372,0.3739,0.3562,0.3408,0.3181,0.3045,0.2869,0.2602,0.2557,0.2378,0.2333,0.2333,0.2243,0.2127,0.1984,0.175,0.1475,0.1433,0.1456,0.1454,0.1375,0.1493,0.1571,0.1608,0.1648,0.1668,0.1718,0.1704,0.1676,0.1688,0.1681,0.1782,0.195,0.2017,0.2051,0.2177,0.2209,0.2148,0.2068,0.1964,0.1948,0.197,0.2015,0.2071,0.2071,0.224,0.2493,0.2663,0.283,0.2998,0.3246,0.3497,0.361,0.3716,0.3855,0.3938,0.3965,0.3993,0.3965,0.3965,0.3965,0.3938,0.3879,0.3827,0.3824,0.3827,0.3827,0.3827,0.3941,0.3965,0.3935,0.4079,0.4301,0.4487,0.466,0.4936,0.516,0.5356,0.5489,0.5795,0.6009,0.6141,0.6273,0.649,0.6761,0.7031,0.7058,0.7009,0.7122,0.723,0.7306,0.7386,0.7499,0.758,0.7655,0.7708,0.7815,0.7949,0.8195,0.844,0.8626,0.8857,0.9061,0.9263,0.9491,0.9681,0.9844,1.0102,1.0334,0.3781,0.3833,0.3882,0.3934,0.3961,0.3879,0.3815,0.3849,0.3697,0.363,0.354,0.3451,0.3406,0.3363,0.3229,0.3184,0.2959,0.2778,0.2556,0.2185,0.2061,0.1977,0.1861,0.1845,0.1771,0.1769,0.1769,0.1808,0.1847,0.1843,0.1821,0.1807,0.1946,0.194,0.1951,0.2105,0.2221,0.2253,0.242,0.2452,0.2452,0.2519,0.2521,0.2481,0.2366,0.2317,0.2271,0.2186,0.2242,0.2354,0.241,0.2493,0.2661,0.2884,0.3079,0.3274,0.3522,0.3716,0.3771,0.3882,0.3965,0.4021,0.4049,0.3993,0.3993,0.4021,0.3993,0.3993,0.3993,0.3965,0.3938,0.3965,0.3965,0.3993,0.4079,0.4218,0.4325,0.438,0.4494,0.4688,0.4963,0.5215,0.5329,0.5677,0.5873,0.6096,0.6282,0.6436,0.6598,0.6761,0.7004,0.7246,0.7246,0.7198,0.7279,0.7413,0.7521,0.7601,0.7741,0.7875,0.7949,0.8002,0.8109,0.8301,0.8513,0.8732,0.891,0.9113,0.9309,0.9517,0.9699,0.9888,1.0076,1.0308,1.0514,0.4133,0.4383,0.4383,0.4533,0.4706,0.46,0.4476,0.4487,0.4332,0.421,0.4078,0.3987,0.3853,0.3719,0.363,0.3496,0.3406,0.327,0.3093,0.2886,0.2749,0.2692,0.2623,0.2458,0.2318,0.2005,0.1887,0.1925,0.2043,0.2156,0.221,0.2232,0.2362,0.241,0.2382,0.2489,0.2523,0.2522,0.2621,0.2686,0.2686,0.2684,0.2652,0.2625,0.2528,0.2465,0.2384,0.2465,0.2507,0.2589,0.2717,0.2772,0.283,0.3079,0.333,0.3499,0.3688,0.3879,0.3965,0.4052,0.4135,0.4215,0.4215,0.4242,0.4242,0.4215,0.4242,0.4215,0.4162,0.4079,0.4021,0.4079,0.4107,0.4135,0.4304,0.4467,0.4577,0.4605,0.4715,0.4936,0.516,0.5403,0.565,0.5923,0.6114,0.6282,0.6554,0.6739,0.6869,0.7031,0.7171,0.7359,0.7386,0.7413,0.7467,0.7574,0.7702,0.7836,0.7981,0.8162,0.8295,0.8348,0.8407,0.8593,0.8752,0.8982,0.9166,0.9387,0.9569,0.9784,0.9973,1.0128,1.0316,1.0488,1.0693,0.4533,0.4935,0.4935,0.5186,0.5501,0.5369,0.5235,0.5251,0.5103,0.479,0.4748,0.4523,0.4297,0.4074,0.3942,0.3808,0.3676,0.3585,0.3452,0.3431,0.3302,0.3243,0.32,0.3021,0.2749,0.2121,0.2161,0.2277,0.2393,0.2507,0.2606,0.2735,0.2804,0.2818,0.2816,0.2799,0.2822,0.2855,0.2922,0.2954,0.2954,0.2954,0.2918,0.291,0.2861,0.2794,0.276,0.2829,0.2895,0.2832,0.3044,0.3065,0.3084,0.3221,0.3499,0.361,0.3771,0.3938,0.4135,0.4218,0.4301,0.4491,0.446,0.446,0.446,0.4432,0.4436,0.4408,0.4356,0.4218,0.4104,0.4215,0.4276,0.4359,0.455,0.4715,0.4774,0.4774,0.4967,0.5183,0.5434,0.565,0.5868,0.6119,0.6277,0.6468,0.6739,0.6982,0.7117,0.7252,0.7392,0.7473,0.7521,0.7574,0.7655,0.7788,0.7916,0.8023,0.8189,0.8401,0.8586,0.8639,0.8699,0.8778,0.8962,0.9185,0.942,0.9595,0.9784,1.0025,1.0187,1.0342,1.0496,1.0641,1.0845,0.5386,0.5486,0.5484,0.5534,0.5551,0.5415,0.5372,0.5247,0.5141,0.5013,0.4966,0.4919,0.4832,0.4788,0.4788,0.4565,0.4166,0.3942,0.3719,0.3693,0.3565,0.353,0.3497,0.3372,0.3107,0.2945,0.2904,0.2943,0.2865,0.2981,0.3047,0.3013,0.3023,0.3016,0.3141,0.3115,0.3198,0.3293,0.3424,0.3491,0.3525,0.3522,0.3516,0.348,0.3398,0.3336,0.3321,0.3338,0.3345,0.3222,0.3355,0.3359,0.3363,0.3396,0.3552,0.3716,0.391,0.4049,0.4221,0.4356,0.4436,0.4491,0.4491,0.4491,0.4491,0.4491,0.4491,0.4491,0.4463,0.4436,0.4405,0.4491,0.4577,0.466,0.477,0.4963,0.5105,0.5215,0.5242,0.5434,0.5681,0.5923,0.6114,0.6309,0.6522,0.6685,0.6928,0.709,0.7225,0.7359,0.7526,0.7601,0.7655,0.7735,0.7848,0.8002,0.8135,0.8209,0.8368,0.856,0.8738,0.8877,0.8982,0.9061,0.9211,0.9465,0.964,0.9829,1.0017,1.0231,1.0393,1.0522,1.0675,1.0845,1.1015,0.5687,0.5789,0.5789,0.5904,0.6075,0.5968,0.5905,0.592,0.5713,0.5591,0.5502,0.5324,0.5191,0.5191,0.5055,0.4832,0.461,0.4478,0.4342,0.4303,0.4167,0.4074,0.4008,0.3846,0.3779,0.3761,0.3763,0.3491,0.3178,0.3374,0.345,0.3501,0.3551,0.3657,0.3623,0.3611,0.358,0.3679,0.3761,0.3825,0.3825,0.3825,0.3825,0.3808,0.3746,0.3663,0.3604,0.3663,0.3601,0.3563,0.3674,0.3732,0.3729,0.3727,0.3777,0.3882,0.4021,0.4162,0.4328,0.4463,0.4491,0.4491,0.4491,0.4491,0.4491,0.4491,0.4491,0.4491,0.4491,0.4546,0.4574,0.466,0.4715,0.4825,0.4987,0.5156,0.5325,0.5513,0.5626,0.5713,0.5955,0.6141,0.6277,0.6495,0.6744,0.6933,0.7117,0.7225,0.7333,0.7494,0.766,0.7768,0.7815,0.7895,0.8008,0.8168,0.8321,0.8427,0.8527,0.8738,0.8949,0.9106,0.9237,0.9335,0.9536,0.9718,0.994,1.0128,1.0283,1.0437,1.0547,1.0701,1.0879,1.1049,1.1217,0.5939,0.6142,0.6239,0.6424,0.664,0.6513,0.6526,0.6533,0.6269,0.6124,0.6127,0.5813,0.5638,0.5549,0.5322,0.5142,0.5099,0.501,0.4921,0.4879,0.4716,0.4659,0.4644,0.4511,0.4307,0.4229,0.4268,0.4036,0.3645,0.3763,0.3878,0.393,0.4208,0.4276,0.414,0.3975,0.3944,0.3949,0.3897,0.3894,0.3956,0.3959,0.3995,0.3995,0.4025,0.3982,0.3951,0.403,0.3993,0.3985,0.4013,0.4107,0.4071,0.4065,0.4079,0.4086,0.4135,0.4298,0.4436,0.4491,0.4491,0.4491,0.4491,0.4491,0.4491,0.4491,0.4519,0.4546,0.4546,0.4601,0.4715,0.477,0.4853,0.4987,0.5211,0.5407,0.5572,0.5759,0.6005,0.6114,0.6282,0.6418,0.6549,0.6685,0.6928,0.7117,0.7306,0.7386,0.7494,0.7628,0.7788,0.7928,0.8008,0.8062,0.8168,0.8268,0.8454,0.8586,0.8745,0.8929,0.9159,0.9361,0.9491,0.9647,0.9758,0.9966,1.0187,1.0393,1.0522,1.0616,1.0726,1.0879,1.1049,1.1226,1.1393,0.6692,0.6742,0.6936,0.7014,0.6934,0.6795,0.6665,0.6572,0.6442,0.6343,0.6387,0.6296,0.621,0.6118,0.5764,0.5544,0.5369,0.5233,0.5188,0.5156,0.4931,0.487,0.4712,0.4482,0.4553,0.4579,0.4501,0.4384,0.4229,0.4309,0.4345,0.4363,0.4378,0.4373,0.4551,0.4385,0.4266,0.4365,0.4282,0.4331,0.4459,0.4459,0.4525,0.4595,0.4628,0.4586,0.4521,0.4545,0.4528,0.4458,0.4485,0.4393,0.4248,0.4362,0.433,0.4231,0.419,0.4273,0.4463,0.4491,0.4491,0.4491,0.4491,0.4491,0.4491,0.4519,0.4546,0.4688,0.466,0.4739,0.4877,0.4959,0.5101,0.5266,0.543,0.5677,0.5868,0.595,0.6223,0.644,0.6549,0.669,0.6852,0.6982,0.7117,0.7306,0.7467,0.7547,0.7649,0.7788,0.7922,0.8035,0.8168,0.8215,0.8354,0.8487,0.8613,0.8771,0.8956,0.9133,0.9342,0.9595,0.9836,0.9966,1.0076,1.0205,1.0411,1.0598,1.0718,1.082,1.093,1.1074,1.1251,1.1427,1.1603,0.7144,0.7033,0.7063,0.71,0.7108,0.6973,0.6877,0.6844,0.6685,0.6612,0.6609,0.6473,0.6428,0.634,0.6166,0.6077,0.5944,0.5808,0.5808,0.567,0.5539,0.5413,0.5394,0.5217,0.509,0.501,0.5087,0.5126,0.501,0.4735,0.4618,0.4763,0.4843,0.4971,0.4991,0.4843,0.483,0.4769,0.467,0.4634,0.4694,0.4728,0.4761,0.4794,0.4794,0.4794,0.4827,0.4791,0.4776,0.4727,0.4748,0.4716,0.4648,0.4653,0.4634,0.4502,0.4482,0.4498,0.4508,0.4494,0.4491,0.4491,0.4491,0.4491,0.4519,0.4574,0.4605,0.4688,0.4767,0.4873,0.5014,0.5128,0.5293,0.5458,0.5677,0.5873,0.6059,0.6223,0.6391,0.6603,0.6793,0.6933,0.7068,0.7171,0.7279,0.7413,0.7574,0.7681,0.7815,0.7955,0.8062,0.8174,0.8275,0.8374,0.8533,0.8672,0.8824,0.9001,0.9256,0.9413,0.9569,0.9803,1.0017,1.0231,1.036,1.0522,1.0667,1.0744,1.0794,1.0947,1.1124,1.1276,1.1452,1.1753,1.1952,0.7539,0.7325,0.7229,0.7235,0.725,0.7145,0.7066,0.7061,0.6925,0.6881,0.6836,0.6697,0.6564,0.652,0.6476,0.6432,0.6384,0.6428,0.6428,0.6296,0.6144,0.5966,0.5829,0.5701,0.5559,0.5601,0.5482,0.5482,0.5401,0.5207,0.5049,0.5162,0.5234,0.5387,0.5441,0.5307,0.5173,0.502,0.4861,0.48,0.4858,0.4894,0.4927,0.4964,0.4967,0.493,0.4964,0.4964,0.496,0.4968,0.5006,0.5025,0.494,0.4916,0.4867,0.4756,0.4719,0.468,0.46,0.4532,0.4498,0.4491,0.4491,0.4519,0.4574,0.466,0.477,0.4825,0.4877,0.5042,0.5207,0.5325,0.5485,0.5704,0.5923,0.6091,0.6269,0.6457,0.6611,0.6744,0.6933,0.7095,0.723,0.7333,0.744,0.7542,0.7649,0.7788,0.7955,0.8115,0.8221,0.8328,0.846,0.8586,0.8745,0.8903,0.9061,0.9237,0.9465,0.9699,0.9862,1.0017,1.0198,1.0411,1.0598,1.0777,1.0922,1.0896,1.0896,1.1124,1.1326,1.1477,1.1678,1.1977,1.2283,0.7779,0.7779,0.7714,0.7597,0.7394,0.738,0.7282,0.7098,0.7095,0.7054,0.7054,0.7007,0.6877,0.6792,0.6745,0.6656,0.6428,0.6428,0.6473,0.6387,0.6138,0.6094,0.5984,0.5839,0.564,0.5637,0.5715,0.5679,0.5601,0.5637,0.5521,0.5562,0.5595,0.5592,0.5608,0.556,0.5397,0.5199,0.5018,0.4976,0.503,0.509,0.5156,0.5292,0.5329,0.5362,0.5359,0.5296,0.5296,0.5296,0.5299,0.5238,0.5118,0.5106,0.5047,0.4938,0.4901,0.4823,0.4704,0.4593,0.4508,0.4494,0.4519,0.4574,0.466,0.4691,0.4829,0.5069,0.5175,0.5318,0.5495,0.5635,0.5851,0.604,0.63,0.6495,0.6662,0.6794,0.6934,0.6938,0.7127,0.7384,0.7571,0.7743,0.7599,0.7657,0.7815,0.7955,0.8088,0.8221,0.8374,0.8507,0.8672,0.8804,0.8956,0.9113,0.9263,0.9446,0.9673,0.994,1.018,1.0308,1.0411,1.059,1.0769,1.0972,1.115,1.1141,1.1192,1.1377,1.1553,1.1753,1.2002,1.2308,1.2578,0.7706,0.7543,0.7543,0.7521,0.7363,0.7272,0.7149,0.7102,0.7095,0.7095,0.7095,0.7095,0.7051,0.701,0.701,0.6922,0.683,0.683,0.683,0.6736,0.657,0.6472,0.6352,0.6161,0.6064,0.5986,0.6028,0.6028,0.6028,0.599,0.6028,0.6025,0.5867,0.5909,0.5902,0.5837,0.5653,0.545,0.532,0.5295,0.5266,0.5292,0.5326,0.5395,0.5395,0.5395,0.5395,0.5395,0.5395,0.5395,0.5395,0.5347,0.5274,0.526,0.5186,0.5042,0.5022,0.4941,0.484,0.4687,0.46,0.4529,0.4574,0.4674,0.4779,0.4868,0.5115,0.535,0.5543,0.5705,0.6013,0.6258,0.6508,0.6606,0.6726,0.6912,0.7068,0.7203,0.7344,0.7431,0.7654,0.7897,0.8034,0.816,0.7956,0.7778,0.7958,0.8133,0.8323,0.8483,0.867,0.8844,0.9018,0.9165,0.9351,0.942,0.9513,0.9717,0.9922,1.0182,1.0446,1.0522,1.0624,1.0794,1.0972,1.1175,1.1318,1.1393,1.1494,1.1628,1.1852,1.2076,1.2348,1.2627,1.2837,0.756,0.7415,0.7322,0.7302,0.7288,0.7139,0.7095,0.7095,0.7095,0.7095,0.7095,0.7095,0.7095,0.7095,0.7095,0.7095,0.7051,0.7051,0.7095,0.6984,0.6822,0.6725,0.66,0.6444,0.6222,0.63,0.63,0.6261,0.6222,0.6261,0.6261,0.618,0.6138,0.6141,0.6146,0.6101,0.5865,0.5711,0.5593,0.5549,0.5416,0.5395,0.5395,0.5395,0.5395,0.5395,0.5395,0.5395,0.5395,0.5395,0.5395,0.5395,0.5392,0.5378,0.5334,0.524,0.5182,0.5096,0.4989,0.4903,0.4802,0.4794,0.4858,0.4965,0.5025,0.5195,0.5501,0.5756,0.5935,0.6171,0.653,0.6671,0.686,0.6939,0.716,0.7331,0.7459,0.7589,0.7786,0.7909,0.8117,0.8252,0.8323,0.8434,0.8472,0.8303,0.8431,0.8614,0.8816,0.8961,0.9095,0.9288,0.9439,0.9602,0.9755,0.9955,1.0176,1.039,1.0562,1.0559,1.0729,1.0813,1.0887,1.1023,1.12,1.1377,1.1519,1.1669,1.1753,1.1828,1.2126,1.2455,1.2593,1.2861,1.3069,0.738,0.7353,0.7166,0.7109,0.7115,0.7102,0.7095,0.7095,0.7095,0.7095,0.7095,0.7095,0.7095,0.7095,0.7095,0.7095,0.7095,0.7095,0.7095,0.7024,0.6844,0.6725,0.6597,0.6474,0.63,0.63,0.63,0.63,0.63,0.63,0.63,0.63,0.6257,0.6257,0.6282,0.6112,0.5952,0.5803,0.5674,0.5569,0.5457,0.5412,0.5395,0.5395,0.5395,0.5395,0.5395,0.5395,0.5395,0.5395,0.5395,0.5395,0.5395,0.5395,0.5378,0.5368,0.5368,0.53,0.5135,0.5178,0.5184,0.5146,0.5218,0.5355,0.5588,0.5753,0.5925,0.613,0.6336,0.6556,0.678,0.6965,0.721,0.7391,0.7598,0.7795,0.7937,0.8064,0.8273,0.8442,0.8473,0.8498,0.8563,0.8658,0.8859,0.8892,0.8961,0.9105,0.9272,0.9414,0.9495,0.9701,0.9876,1.0072,1.0245,1.0567,1.0823,1.1038,1.115,1.1139,1.1182,1.1259,1.1317,1.1353,1.1531,1.1803,1.1908,1.2002,1.2126,1.2283,1.2539,1.2808,1.2944,1.3079,1.3286,0.7309,0.721,0.7119,0.7095,0.7095,0.7095,0.7095,0.7095,0.7095,0.7095,0.7095,0.7095,0.7095,0.7095,0.7095,0.7095,0.7095,0.7095,0.7095,0.7058,0.6837,0.6736,0.661,0.647,0.6303,0.63,0.63,0.63,0.63,0.63,0.63,0.63,0.63,0.63,0.6289,0.6183,0.6105,0.5952,0.581,0.5664,0.5556,0.5457,0.5399,0.5399,0.5395,0.5395,0.5395,0.5395,0.5395,0.5395,0.5395,0.5395,0.5395,0.5395,0.5395,0.5395,0.5395,0.5441,0.5509,0.5624,0.5672,0.5562,0.5548,0.5708,0.5832,0.5944,0.6215,0.656,0.6772,0.7044,0.7356,0.766,0.788,0.798,0.8186,0.8381,0.855,0.8633,0.8797,0.8934,0.9021,0.9067,0.9111,0.9138,0.9278,0.9392,0.9444,0.9482,0.9603,0.9746,0.9865,1.0115,1.0343,1.0515,1.0745,1.1117,1.1312,1.15,1.1624,1.1682,1.1707,1.178,1.184,1.1896,1.2077,1.2253,1.2319,1.2398,1.2573,1.2759,1.2954,1.3089,1.32,1.3334,1.3525,0.7234,0.7098,0.7095,0.7095,0.7095,0.7095,0.7095,0.7095,0.7095,0.7095,0.7095,0.7095,0.7095,0.7095,0.7095,0.7095,0.7095,0.7095,0.7095,0.7055,0.6837,0.6732,0.6607,0.646,0.6323,0.63,0.63,0.63,0.63,0.63,0.63,0.63,0.63,0.63,0.6293,0.6272,0.6207,0.603,0.5901,0.5776,0.562,0.5532,0.5453,0.5416,0.5395,0.5395,0.5395,0.5395,0.5395,0.5395,0.5395,0.5395,0.5395,0.5395,0.5395,0.5395,0.5458,0.555,0.5837,0.6034,0.6065,0.5974,0.6005,0.6067,0.6222,0.6416,0.6715,0.7035,0.7253,0.7511,0.7807,0.8139,0.8269,0.8361,0.8554,0.8742,0.8865,0.8971,0.9061,0.9256,0.9364,0.944,0.9542,0.9678,0.9743,0.9806,0.9889,0.9946,1.0016,1.021,1.0366,1.0645,1.0916,1.1174,1.1419,1.1701,1.1862,1.1943,1.2069,1.2199,1.2296,1.2344,1.2399,1.2493,1.268,1.2788,1.2736,1.279,1.2959,1.3061,1.32,1.3334,1.3443,1.3597,1.3739,0.7098,0.7095,0.7095,0.7095,0.7095,0.7095,0.7095,0.7095,0.7095,0.7095,0.7095,0.7095,0.7095,0.7095,0.7095,0.7095,0.7095,0.7095,0.7078,0.7001,0.682,0.6736,0.6627,0.6439,0.6327,0.63,0.63,0.63,0.63,0.63,0.63,0.63,0.63,0.63,0.63,0.6282,0.6224,0.6098,0.6006,0.5874,0.5722,0.5596,0.5539,0.547,0.5416,0.5399,0.5395,0.5395,0.5395,0.5395,0.5395,0.5395,0.5395,0.5395,0.5395,0.5458,0.5554,0.5848,0.6115,0.6317,0.6478,0.6481,0.6672,0.6715,0.6791,0.6924,0.7159,0.7408,0.7621,0.7867,0.8139,0.8269,0.8404,0.8598,0.8797,0.8926,0.9017,0.9139,0.9262,0.937,0.9478,0.958,0.9708,0.9836,1.0053,1.0224,1.0345,1.0574,1.0687,1.0906,1.1083,1.1281,1.1577,1.1874,1.2097,1.2215,1.241,1.2492,1.2647,1.2759,1.286,1.2957,1.3088,1.3194,1.3277,1.3362,1.3423,1.3372,1.3292,1.3411,1.3576,1.3559,1.3668,1.3787,1.3928,0.7095,0.7095,0.7095,0.7095,0.7095,0.7095,0.7095,0.7095,0.7095,0.7095,0.7095,0.7095,0.7095,0.7095,0.7095,0.7095,0.7095,0.7082,0.7018,0.6903,0.68,0.6658,0.6549,0.6402,0.6317,0.63,0.63,0.63,0.63,0.63,0.63,0.63,0.63,0.63,0.63,0.63,0.622,0.6173,0.6095,0.5983,0.5844,0.5715,0.561,0.5549,0.545,0.5423,0.5395,0.5395,0.5395,0.5395,0.5395,0.5395,0.5395,0.5491,0.5587,0.5756,0.5918,0.6112,0.6313,0.6511,0.6708,0.6909,0.7101,0.726,0.7293,0.7396,0.7559,0.7754,0.7949,0.8144,0.8333,0.8468,0.8598,0.8797,0.899,0.9119,0.921,0.928,0.9408,0.951,0.9612,0.9708,0.9836,1.0085,1.0276,1.0498,1.0751,1.1028,1.1209,1.1397,1.1584,1.1771,1.1996,1.2212,1.2428,1.2548,1.281,1.3031,1.3147,1.3309,1.3482,1.362,1.3764,1.3875,1.3978,1.4113,1.4268,1.4134,1.3955,1.3913,1.4014,1.3933,1.3902,1.4031,1.4104,0.7095,0.7095,0.7095,0.7095,0.7095,0.7095,0.7095,0.7095,0.7095,0.7095,0.7095,0.7095,0.7095,0.7095,0.7095,0.7095,0.7095,0.7088,0.7028,0.6886,0.6763,0.6627,0.6474,0.6375,0.6313,0.63,0.63,0.63,0.63,0.63,0.63,0.63,0.63,0.63,0.63,0.63,0.63,0.6262,0.6173,0.6095,0.5976,0.5847,0.5742,0.5596,0.5488,0.5467,0.5402,0.5399,0.5395,0.5395,0.5395,0.5425,0.5491,0.562,0.5818,0.5987,0.6152,0.6313,0.6511,0.6773,0.697,0.7167,0.7396,0.7619,0.7717,0.7787,0.7884,0.8042,0.8209,0.8371,0.8533,0.8694,0.8829,0.899,0.9145,0.9306,0.9376,0.9446,0.9542,0.9644,0.974,0.9862,1.0021,1.0269,1.0523,1.0713,1.0996,1.1279,1.1466,1.1584,1.1802,1.2027,1.2243,1.2467,1.2652,1.2836,1.3072,1.3285,1.3455,1.3661,1.401,1.4186,1.4231,1.4421,1.4651,1.4805,1.4989,1.4805,1.4643,1.4618,1.4574,1.4516,1.443,1.4318,1.4414,0.7095,0.7095,0.7095,0.7095,0.7095,0.7095,0.7095,0.7095,0.7095,0.7095,0.7095,0.7095,0.7095,0.7095,0.7095,0.7095,0.7082,0.7065,0.6964,0.6859,0.6722,0.6566,0.6467,0.6368,0.631,0.63,0.63,0.63,0.63,0.63,0.63,0.63,0.63,0.63,0.63,0.63,0.63,0.6289,0.6269,0.6183,0.6088,0.6,0.5908,0.5691,0.5593,0.5528,0.5453,0.5409,0.5395,0.5428,0.5425,0.5488,0.5686,0.5851,0.6053,0.6251,0.6416,0.6613,0.6806,0.7064,0.7293,0.7493,0.7657,0.7884,0.8019,0.8014,0.8074,0.8306,0.8474,0.8603,0.8732,0.8888,0.9049,0.9145,0.9274,0.9376,0.944,0.951,0.9644,0.974,0.99,1.0021,1.0244,1.0491,1.0776,1.0965,1.1185,1.1498,1.1747,1.184,1.2027,1.2274,1.2467,1.2652,1.2897,1.308,1.3307,1.3519,1.3731,1.3971,1.424,1.4449,1.4627,1.4965,1.5329,1.5538,1.5649,1.5457,1.5389,1.5386,1.5311,1.5184,1.5042,1.4904,1.4712,0.7095,0.7095,0.7095,0.7095,0.7095,0.7095,0.7095,0.7095,0.7095,0.7095,0.7095,0.7095,0.7095,0.7095,0.7095,0.7095,0.7082,0.6997,0.6852,0.6759,0.6614,0.6485,0.6385,0.6327,0.63,0.63,0.63,0.63,0.63,0.63,0.63,0.63,0.63,0.63,0.63,0.63,0.6335,0.6335,0.6367,0.6321,0.6266,0.6084,0.5969,0.5844,0.5766,0.5648,0.5573,0.549,0.5519,0.5521,0.555,0.5716,0.6013,0.6185,0.635,0.6548,0.6716,0.6942,0.7167,0.7358,0.7559,0.7819,0.8014,0.8214,0.8279,0.8209,0.8274,0.8538,0.8738,0.8835,0.8964,0.9113,0.9242,0.9306,0.9376,0.944,0.951,0.9612,0.974,0.99,1.006,1.0244,1.0466,1.0744,1.0996,1.1216,1.1404,1.1685,1.2065,1.2243,1.2367,1.2552,1.2652,1.2844,1.3089,1.3324,1.3519,1.3821,1.4061,1.427,1.4508,1.4883,1.5206,1.5671,1.603,1.6115,1.6165,1.6157,1.6106,1.6132,1.5992,1.5793,1.5822,1.5742,1.5359,0.7095,0.7095,0.7095,0.7095,0.7095,0.7095,0.7095,0.7095,0.7095,0.7095,0.7095,0.7095,0.7095,0.7095,0.7095,0.7088,0.7065,0.695,0.6815,0.6698,0.6532,0.6443,0.6351,0.63,0.63,0.63,0.63,0.63,0.63,0.63,0.63,0.63,0.63,0.6296,0.6338,0.6374,0.6412,0.6451,0.6486,0.6525,0.6486,0.6325,0.6153,0.606,0.6026,0.587,0.5862,0.58,0.5773,0.5778,0.5815,0.5984,0.6247,0.6412,0.6613,0.6811,0.7007,0.7265,0.7456,0.7652,0.7819,0.8079,0.8279,0.8414,0.8603,0.8533,0.863,0.8861,0.899,0.9119,0.9151,0.9306,0.9376,0.944,0.9478,0.9516,0.9638,0.9798,0.9926,1.0117,1.0276,1.0466,1.0713,1.1059,1.1303,1.149,1.1685,1.1895,1.2274,1.259,1.2744,1.2858,1.2958,1.3072,1.3307,1.3549,1.3761,1.4061,1.4359,1.4647,1.4942,1.541,1.5845,1.6161,1.64,1.651,1.656,1.6577,1.6781,1.6869,1.6647,1.6388,1.645,1.6525,1.6173,0.7095,0.7095,0.7095,0.7095,0.7095,0.7095,0.7095,0.7095,0.7095,0.7095,0.7095,0.7095,0.7095,0.7095,0.7095,0.7082,0.7018,0.6876,0.6793,0.6647,0.6535,0.6409,0.6334,0.63,0.63,0.63,0.63,0.63,0.63,0.6335,0.6374,0.6338,0.6335,0.6374,0.6412,0.6525,0.6637,0.6676,0.6753,0.6826,0.6753,0.656,0.6436,0.6396,0.6344,0.6313,0.6233,0.6161,0.6086,0.6122,0.6148,0.6346,0.6548,0.6741,0.6876,0.7106,0.7396,0.7591,0.7754,0.7949,0.8144,0.8306,0.8479,0.8641,0.8829,0.8926,0.9017,0.9113,0.9242,0.9306,0.9338,0.9408,0.9478,0.951,0.9548,0.9612,0.9798,0.9989,1.018,1.0339,1.053,1.0719,1.1028,1.1365,1.1622,1.1778,1.1988,1.2236,1.2482,1.2797,1.3019,1.3172,1.3294,1.3437,1.3541,1.3782,1.4052,1.4291,1.4617,1.4971,1.5352,1.5768,1.6142,1.6457,1.6666,1.6768,1.6909,1.6959,1.7208,1.7385,1.7289,1.705,1.7123,1.713,1.6954,0.7095,0.7095,0.7095,0.7095,0.7095,0.7095,0.7095,0.7095,0.7095,0.7095,0.7095,0.7095,0.7095,0.7095,0.7095,0.7055,0.6937,0.6841,0.6671,0.6549,0.6436,0.6351,0.631,0.63,0.63,0.63,0.63,0.63,0.6374,0.649,0.6567,0.6528,0.6714,0.6753,0.6753,0.6826,0.683,0.6903,0.6942,0.7019,0.698,0.6861,0.6819,0.6741,0.6614,0.6489,0.6393,0.6278,0.6192,0.624,0.6449,0.6642,0.6872,0.7068,0.7265,0.7433,0.7722,0.7954,0.8149,0.8312,0.8474,0.8694,0.8829,0.8958,0.9081,0.9177,0.9242,0.9318,0.9414,0.9408,0.944,0.9478,0.9548,0.9612,0.9644,0.983,0.9989,1.0238,1.0491,1.0649,1.0846,1.109,1.1404,1.1685,1.1903,1.212,1.2398,1.2613,1.2728,1.3011,1.3294,1.3445,1.3597,1.3679,1.3761,1.4082,1.438,1.4617,1.4913,1.5352,1.5768,1.6095,1.6449,1.6666,1.6825,1.6937,1.7067,1.7234,1.7374,1.7529,1.7722,1.7734,1.7759,1.7741,1.7578]}]]